     2              OBSERVATION DATA    GPS                 RINEX VERSION / TYPE
ASRINEXO V2.9.7 UX USGS/MENLO_PARK 11-JUN-01 15:54          PGM / RUN BY / DATE
                                                            COMMENT
BIT 2 OF LLI (+4) FLAGS DATA COLLECTED UNDER "AS" CONDITION COMMENT
BIT 2 OF LLI (+4) FLAGS DATA COLLECTED UNDER "AS" CONDITION COMMENT
BIT 2 OF LLI (+4) FLAGS DATA COLLECTED UNDER "AS" CONDITION COMMENT
BIT 2 OF LLI (+4) FLAGS DATA COLLECTED UNDER "AS" CONDITION COMMENT
BIT 2 OF LLI (+4) FLAGS DATA COLLECTED UNDER "AS" CONDITION COMMENT
BIT 2 OF LLI (+4) FLAGS DATA COLLECTED UNDER "AS" CONDITION COMMENT
BIT 2 OF LLI (+4) FLAGS DATA COLLECTED UNDER "AS" CONDITION COMMENT
BIT 2 OF LLI (+4) FLAGS DATA COLLECTED UNDER "AS" CONDITION COMMENT
Original Marker Name: brek Break_1977_USGS                  COMMENT
Campaign Name: USGS-Parkfield                               COMMENT
4-Character Station Name: BREK                              COMMENT
6-Character Antenna Code: DMRCHT                            COMMENT
Vertical Measurement Point: BCR                             COMMENT
Vertical Offset to Rinex Ref. Point: 0.0348                 COMMENT
Radial Measurement Point: ECF                               COMMENT
Radial Offset to Rinex Ref. Point: 0.1897                   COMMENT
Antenna Height from Field Measurement: 1.4980 m             COMMENT
Additional Antenna Identification Info.:                    COMMENT
Turborogue and Ashtech Choke Ring                           COMMENT
Original XYZ: -2622969.7467 -4459602.6640 3718462.4165      COMMENT
New XYZ position is based on association with SCEC monument COMMENT
E1F1N2K1+0011. Position of that monument is believed to be  COMMENT
valid to within 1 m horizontally; vertical accuracy         COMMENT
should be no worse than 3-times this value.                 COMMENT
                                                            COMMENT
Revised Rinex header created by UCSD GPS archive for        COMMENT
GSAC on 18-Oct-2001 (2001:291) 15:19:30 GMT                 COMMENT
For assistance contact dagnew@ucsd.edu                      COMMENT
or anderson@python.ucsd.edu                                 COMMENT
                                                            COMMENT
BREAK 1977                                                  MARKER NAME
CHS US GEOLOGICAL SURVEY                                    OBSERVER / AGENCY
LP019992809 ASHTECH Z-XII3 CD00                             REC # / TYPE / VERS
CR14341 DORNE-MARGOL. TYPE T                                ANT # / TYPE
 -2622964.7150 -4459586.5838  3718437.7135                  APPROX POSITION XYZ
        1.4511        0.0000        0.0000                  ANTENNA: DELTA H/E/N
     1     1     0                                          WAVELENGTH FACT L1/2
     5    C1    L1    L2    P1    P2                        # / TYPES OF OBSERV
    30                                                      INTERVAL
  2001     5    27     0     1    0.000000                  TIME OF FIRST OBS
  2001     5    27    23    59    0.000000                  TIME OF LAST OBS
                                                            END OF HEADER
 01  5 27  0  1  0.0000000  0 11 03 21 23 29 25 14 11 15 18 09 31
  22569599.751   -13557053.455 8 -10538579.25146  22569599.291    22569611.2594
  21081208.143   -22779167.918 9 -17727014.26647  21081207.534    21081215.6624
  23926467.208    -6977388.185 8  -5421665.97645  23926466.302    23926476.6494
  20374288.924   -24572830.551 9 -18341883.26448  20374288.684    20374296.4544
  24184645.629    -7718620.209 7  -5553833.93145  24184645.159    24184665.3074
  20217446.769   -27069745.828 9 -20530804.60148  20217446.203    20217452.8394
  24586787.385    -5989929.082 7  -4655623.69645  24586786.842    24586798.9354
  22918110.794   -13578382.792 8 -10338279.25746  22918110.013    22918122.3754
  23021407.432   -13056611.285 8 -10156731.10246  23021406.991    23021415.3544
  24216964.591    -5252187.197 7  -4078758.29945  24216963.855    24216973.4614
  22449519.299   -11973790.522 8  -9291646.51046  22449518.672    22449528.9804
 01  5 27  0  1 30.0000000  0 11 03 21 23 29 25 14 11 15 18 09 31
  22583517.964   -13483913.468 8 -10481587.19546  22583517.506    22583529.4554
  21083351.795   -22767902.688 9 -17718236.15147  21083351.200    21083359.3614
  23938406.229    -6914648.178 8  -5372777.69645  23938405.277    23938415.6804
  20369590.761   -24597519.396 9 -18361121.25948  20369590.536    20369598.2784
  24166066.710    -7816250.334 8  -5629908.85945  24166066.381    24166086.4714
  20215729.554   -27078769.678 9 -20537836.12348  20215728.982    20215735.5764
  24567525.921    -6091148.503 7  -4734495.83145  24567525.346    24567537.4374
  22935833.692   -13485249.006 8 -10265707.62546  22935832.893    22935845.2614
  23034470.516   -12987964.893 8 -10103240.44446  23034469.998    23034478.3804
  24228204.297    -5193121.855 7  -4032733.34445  24228203.503    24228213.3064
  22453710.661   -11951765.240 8  -9274483.99046  22453709.950    22453720.2344
 01  5 27  0  2  0.0000000  0 11 03 21 23 29 25 14 11 15 18 09 31
  22597494.080   -13410468.932 8 -10424357.83746  22597493.651    22597505.6654
  21085524.832   -22756483.269 9 -17709337.88847  21085524.225    21085532.4144
  23950352.242    -6851871.443 8  -5323860.83245  23950351.276    23950361.7444
  20364981.100   -24621743.110 9 -18379996.81248  20364980.867    20364988.6054
  24147486.755    -7913887.247 8  -5705989.07745  24147486.423    24147506.1654
  20214110.636   -27087277.099 9 -20544465.23848  20214110.053    20214116.6274
  24548274.421    -6192315.373 7  -4813327.00345  24548273.924    24548285.9274
  22953606.352   -13391853.229 8 -10192931.82946  22953605.589    22953617.9944
  23047548.256   -12919241.001 8 -10049689.40846  23047547.734    23047556.1714
  24239538.653    -5133558.656 7  -3986320.45545  24239537.957    24239548.2654
  22458003.657   -11929205.160 8  -9256904.73946  22458002.978    22458013.3134
 01  5 27  0  2 30.0000000  0 11 03 21 23 29 25 14 11 15 18 09 31
  22611527.342   -13336723.716 8 -10366894.17646  22611526.985    22611539.1264
  21087727.067   -22744910.266 9 -17700319.95147  21087726.481    21087734.6844
  23962305.015    -6789058.702 8  -5274915.89045  23962304.151    23962314.6724
  20360459.747   -24645502.723 9 -18398510.73248  20360459.517    20360467.2784
  24128905.945    -8011528.985 8  -5782073.07745  24128905.537    24128925.0504
  20212589.688   -27095269.602 9 -20550693.11548  20212589.126    20212595.6804
  24529033.216    -6293428.359 8  -4892116.17145  24529032.694    24529044.7284
  22971428.457   -13298197.426 8 -10119953.44046  22971427.721    22971440.2194
  23060640.618   -12850440.603 8  -9996078.75546  23060640.051    23060648.4584
  24250967.038    -5073500.088 7  -3939521.56644  24250966.495    24250977.0704
  22462397.948   -11906112.644 8  -9238910.59946  22462397.326    22462407.6464
 01  5 27  0  3  0.0000000  0 11 03 21 23 29 25 14 11 15 18 09 31
  22625617.698   -13262679.124 8 -10309197.24046  22625617.331    22625629.5124
  21089958.896   -22733182.104 9 -17691181.11247  21089958.296    21089966.4784
  23974264.983    -6726208.439 8  -5225941.71245  23974264.132    23974274.7534
  20356026.875   -24668797.378 9 -18416662.34448  20356026.636    20356034.3824
  24110324.965    -8109171.356 8  -5858157.58145  24110324.600    24110343.8724
  20211166.840   -27102746.462 9 -20556519.19748  20211166.301    20211172.8274
  24509802.825    -6394484.480 8  -4970861.03645  24509802.158    24509814.2164
  22989300.143   -13204281.614 8 -10046772.43146  22989299.399    22989311.9214
  23073747.702   -12781562.439 8  -9942407.50446  23073747.148    23073755.5074
  24262489.886    -5012946.864 7  -3892337.25544  24262489.527    24262500.1294
  22466893.664   -11882487.934 8  -9220501.76646  22466892.994    22466903.2964
 01  5 27  0  3 30.0000000  0 11 03 21 23 29 25 14 11 15 18 09 31
  22639764.174   -13188339.246 8 -10251270.20646  22639763.837    22639776.1144
  21092219.979   -22721300.063 9 -17681922.37047  21092219.370    21092227.5364
  23986231.916    -6663321.428 8  -5176938.88845  23986231.108    23986241.7494
  20351682.263   -24691628.286 9 -18434452.59848  20351682.024    20351689.7004
  24091744.118    -8206813.048 8  -5934241.55345  24091743.663    24091762.6814
  20209841.723   -27109709.558 9 -20561944.93848  20209841.198    20209847.7574
  24490583.492    -6495482.541 8  -5049560.64845  24490582.743    24490594.7014
  23007220.871   -13110108.156 8  -9973390.67246  23007220.143    23007232.7234
  23086869.282   -12712607.932 8  -9888676.78846  23086868.773    23086877.1374
  24274106.381    -4951901.838 7  -3844769.70044  24274106.195    24274116.4984
  22471490.044   -11858333.748 8  -9201680.36546  22471489.362    22471499.6984
 01  5 27  0  4  0.0000000  0 11 03 21 23 29 25 14 11 15 18 09 31
  22653966.321   -13113707.017 8 -10193115.38046  22653965.936    22653978.2954
  21094510.454   -22709263.599 9 -17672543.29547  21094509.855    21094517.9824
  23998205.960    -6600397.622 8  -5127907.41345  23998205.128    23998215.8914
  20347425.692   -24713996.075 9 -18451881.97748  20347425.471    20347433.1294
  24073163.838    -8304451.573 8  -6010323.08845  24073163.417    24073182.0624
  20208614.208   -27116159.892 9 -20566971.12348  20208613.688    20208620.2864
  24471375.415    -6596420.880 8  -5128213.72545  24471374.720    24471386.6554
  23025190.338   -13015678.899 8  -9899809.59346  23025189.582    23025202.1794
  23100005.265   -12643577.462 8  -9834886.86646  23100004.790    23100013.2884
  24285816.257    -4890366.821 7  -3796820.35744  24285816.099    24285826.0104
  22476186.821   -11833651.899 8  -9182447.78046  22476186.170    22476196.5054
 01  5 27  0  4 30.0000000  0 11 03 21 23 29 25 14 11 15 18 09 31
  22668223.619   -13038784.692 8 -10134734.48746  22668223.275    22668235.6654
  21096830.511   -22697071.687 9 -17663043.09747  21096829.909    21096838.0084
  24010187.198    -6537436.154 7  -5078846.59045  24010186.364    24010197.2494
  20343257.339   -24735900.335 9 -18468950.16848  20343257.146    20343264.8144
  24054584.734    -8402083.425 8  -6086399.40645  24054584.389    24054602.7894
  20207484.322   -27122097.323 9 -20571597.64048  20207483.820    20207490.3924
  24452179.210    -6697296.796 8  -5206818.15845  24452178.580    24452190.5454
  23043208.367   -12920994.230 8  -9826029.50346  23043207.669    23043220.1884
  23113155.769   -12574470.210 8  -9781037.09846  23113155.395    23113164.0894
  24297619.356    -4828342.912 7  -3748490.01644  24297619.357    24297628.5424
  22480984.085   -11808442.753 8  -9162804.30846  22480983.389    22480993.6394
 01  5 27  0  5  0.0000000  0 11 03 21 23 29 25 14 11 15 18 09 31
  22682535.642   -12963575.276 8 -10076129.90546  22682535.278    22682547.6674
  21099180.002   -22684724.880 9 -17653422.20147  21099179.392    21099187.4804
  24022175.438    -6474437.209 7  -5029756.55845  24022174.605    24022185.5734
  20339177.162   -24757341.612 9 -18485657.59848  20339176.961    20339184.6254
  24036007.316    -8499706.514 8  -6162468.88045  24036006.930    24036025.2984
  20206451.823   -27127522.855 9 -20575825.28248  20206451.305    20206457.8714
  24432995.198    -6798108.424 8  -5285372.51445  24432994.640    24433006.6414
  23061274.700   -12826055.799 8  -9752051.68546  23061273.972    23061286.5224
  23126321.035   -12505286.717 8  -9727127.94046  23126320.641    23126329.4194
  24309514.968    -4765832.285 7  -3699780.42345  24309515.042    24309524.1014
  22485881.298   -11782708.105 8  -9142751.36246  22485880.599    22485890.8164
 01  5 27  0  5 30.0000000  0 11 03 21 23 29 25 14 11 15 18 09 31
  22696901.603   -12888082.195 8 -10017304.29946  22696901.252    22696913.5624
  21101559.012   -22672222.945 9 -17643680.42247  21101558.395    21101566.4844
  24034170.813    -6411400.764 8  -4980637.29945  24034170.110    24034181.0704
  20335184.951   -24778320.521 9 -18502004.74048  20335184.745    20335192.4164
  24017432.152    -8597318.286 8  -6238529.54845  24017431.699    24017449.9734
  20205516.496   -27132437.677 9 -20579654.96448  20205515.992    20205522.5624
  24413823.793    -6898854.175 8  -5363875.52145  24413823.272    24413835.2264
  23079389.036   -12730865.444 8  -9677877.54946  23079388.242    23079400.8144
  23139500.841   -12436027.397 8  -9673159.69746  23139500.387    23139509.0354
  24321502.531    -4702837.304 7  -3650693.41744  24321502.286    24321511.6164
  22490878.026   -11756449.874 8  -9122290.42846  22490877.340    22490887.6454
 01  5 27  0  6  0.0000000  0 11 03 21 23 29 25 14 11 15 18 09 31
  22711321.193   -12812307.675 8  -9958259.37546  22711320.809    22711333.1194
  21103967.795   -22659564.884 9 -17633816.99147  21103967.197    21103975.2744
  24046173.567    -6348325.901 8  -4931488.10545  24046172.830    24046183.8184
  20331280.779   -24798836.847 9 -18517991.42748  20331280.577    20331288.2554
  23998859.669    -8694915.553 8  -6314578.91845  23998859.236    23998877.4164
  20204678.358   -27136841.933 9 -20583086.80748  20204677.833    20204684.4024
  24394665.537    -6999531.453 8  -5442325.18345  24394664.905    24394676.8214
  23097551.078   -12635424.058 8  -9603507.82846  23097550.248    23097562.8304
  23152695.042   -12366691.947 8  -9619132.14046  23152694.553    23152703.0734
  24333581.900    -4639359.232 7  -3601229.98744  24333581.701    24333591.5814
  22495974.207   -11729669.283 8  -9101422.45846  22495973.572    22495983.8754
 01  5 27  0  6 30.0000000  0 11 03 21 23 29 25 14 11 15 18 09 31
  22725793.667   -12736255.107 8  -9898997.79346  22725793.290    22725805.6494
  21106406.115   -22646751.269 9 -17623832.35247  21106405.539    21106413.6334
  24058183.626    -6285212.832 8  -4882309.14145  24058182.986    24058193.8024
  20327464.500   -24818891.531 9 -18533618.39948  20327464.279    20327471.9314
  23980290.365    -8792496.288 8  -6390615.40645  23980289.960    23980307.8144
  20203937.131   -27140736.867 9 -20586121.77348  20203936.616    20203943.2054
  24375520.549    -7100138.666 8  -5520720.24245  24375519.980    24375531.8114
  23115760.547   -12539733.237 8  -9528943.72646  23115759.702    23115772.4124
  23165903.667   -12297280.820 8  -9565045.61046  23165903.189    23165911.4854
  24345752.812    -4575400.700 7  -3551392.17344  24345752.556    24345762.4684
  22501169.457   -11702368.586 8  -9080149.21546  22501168.775    22501179.1274
 01  5 27  0  7  0.0000000  0 11 03 21 23 29 25 14 11 15 18 09 31
  22740318.342   -12659927.686 8  -9839522.03246  22740317.985    22740330.4814
  21108874.096   -22633781.880 9 -17613726.32947  21108873.501    21108881.5714
  24070201.084    -6222061.587 8  -4833100.43545  24070200.356    24070211.1004
  20323735.844   -24838485.327 9 -18548886.23148  20323735.621    20323743.2724
  23961724.915    -8890057.391 8  -6466636.58945  23961724.435    23961741.9844
  20203292.574   -27144123.648 9 -20588760.76948  20203292.072    20203298.6694
  24356389.138    -7200674.093 8  -5599059.38145  24356388.563    24356400.2934
  23134016.984   -12443794.801 8  -9454186.68046  23134016.203    23134029.0924
  23179126.463   -12227794.583 8  -9510900.55446  23179125.965    23179134.3034
  24358014.778    -4510963.763 7  -3501181.55944  24358014.489    24358024.0924
  22506463.309   -11674549.349 8  -9058471.91446  22506462.610    22506473.0714
 01  5 27  0  7 30.0000000  0 11 03 21 23 29 25 14 11 15 18 09 31
  22754894.948   -12583327.452 8  -9779833.68946  22754894.634    22754907.2584
  21111372.045   -22620655.106 9 -17603497.67047  21111371.472    21111379.5334
  24082225.681    -6158870.979 7  -4783861.04745  24082224.953    24082235.8264
  20320095.028   -24857617.562 9 -18563794.40648  20320094.831    20320102.4544
  23943163.680    -8987595.543 8  -6542639.90045  23943163.154    23943180.5204
  20202744.807   -27147002.206 9 -20591003.75648  20202744.281    20202750.8224
  24337272.037    -7301134.821 8  -5677340.30045  24337271.328    24337283.0984
  23152320.555   -12347609.104 8  -9379236.97446  23152319.812    23152332.8184
  23192363.588   -12158232.366 8  -9456696.28246  23192363.191    23192371.6224
  24370367.523    -4446049.527 7  -3450599.01544  24370367.355    24370376.6244
  22511855.675   -11646212.356 8  -9036391.17046  22511854.997    22511865.5334
 01  5 27  0  8  0.0000000  0 11 03 21 23 29 25 14 11 15 18 09 31
  22769522.925   -12506457.467 8  -9719935.15646  22769522.587    22769535.3734
  21113899.846   -22607371.368 9 -17593146.70247  21113899.262    21113907.3374
  24094257.685    -6095640.922 7  -4734590.92745  24094257.043    24094268.0934
  20316541.960   -24876288.802 9 -18578343.36348  20316541.781    20316549.3724
  23924607.192    -9085108.492 8  -6618623.57945  23924606.661    23924623.8884
  20202293.546   -27149373.534 9 -20592851.49948  20202293.024    20202299.5404
  24318169.426    -7401518.950 8  -5755561.54345  24318168.763    24318180.4334
  23170670.927   -12251177.759 8  -9304095.84446  23170670.238    23170683.2894
  23205615.266   -12088594.430 8  -9402433.00546  23205614.877    23205623.4174
  24382810.624    -4380659.866 7  -3399645.96744  24382810.622    24382819.5314
  22517346.182   -11617359.521 8  -9013908.47346  22517345.506    22517356.0714
 01  5 27  0  8 30.0000000  0 11 03 21 23 29 25 14 11 15 18 09 31
  22784201.544   -12429321.715 8  -9659829.52646  22784201.185    22784214.0324
  21116457.380   -22593931.179 9 -17582673.82647  21116456.801    21116464.9634
  24106297.442    -6032372.135 8  -4685290.63345  24106296.707    24106307.8604
  20313076.373   -24894500.482 9 -18592534.22548  20313076.180    20313083.7464
  23906055.819    -9182594.143 8  -6694585.97645  23906055.313    23906072.4994
  20201938.460   -27151239.332 9 -20594305.32748  20201937.939    20201944.4534
  24299081.677    -7501825.031 8  -5833721.98445  24299081.116    24299092.5574
  23189067.651   -12154503.134 8  -9228765.13346  23189066.902    23189080.0484
  23218881.237   -12018881.835 8  -9348111.56446  23218880.793    23218889.5654
  24395343.653    -4314797.713 7  -3348324.81144  24395343.756    24395352.9144
  22522934.462   -11587993.275 8  -8991025.70846  22522933.807    22522944.3174
 01  5 27  0  9  0.0000000  0 11 03 21 23 29 25 14 11 15 18 09 31
  22798930.161   -12351922.754 8  -9599518.80446  22798929.809    22798942.7364
  21119044.814   -22580333.805 9 -17572078.46847  21119044.260    21119052.4514
  24118344.737    -5969064.082 8  -4635959.72645  24118343.968    24118355.1394
  20309698.177   -24912252.894 9 -18606367.21348  20309697.989    20309705.5104
  23887510.165    -9280049.962 8  -6770525.11145  23887509.693    23887526.9174
  20201679.447   -27152600.317 9 -20595365.79148  20201678.929    20201685.4434
  24280009.155    -7602050.983 8  -5911819.98645  24280008.601    24280020.0284
  23207510.422   -12057586.682 8  -9153246.00446  23207509.665    23207522.8114
  23232161.602   -11949094.312 8  -9293731.73046  23232161.070    23232169.7824
  24407966.525    -4248464.772 7  -3296636.81644  24407966.156    24407975.6254
  22528620.094   -11558115.246 8  -8967744.16646  22528619.451    22528629.9244
 01  5 27  0  9 30.0000000  0 11 03 21 23 29 25 14 11 15 18 09 31
  22813708.416   -12274263.016 8  -9539004.88546  22813708.049    22813721.0814
  21121662.244   -22566578.984 9 -17561360.42747  21121661.708    21121669.8724
  24130399.530    -5905715.962 8  -4586597.60745  24130398.822    24130409.9424
  20306407.424   -24929545.918 9 -18619842.24048  20306407.237    20306414.6804
  23868970.877    -9377472.469 8  -6846438.31745  23868970.536    23868987.4754
  20201516.381   -27153456.874 9 -20596033.19448  20201515.892    20201522.3834
  24260952.343    -7702194.377 8  -5989853.63545  24260951.743    24260963.2684
  23225999.141   -11960429.192 8  -9077539.04646  23225998.405    23226011.4794
  23245456.155   -11879231.657 8  -9239293.36746  23245455.606    23245464.1884
  24420678.215    -4181662.611 7  -3244583.17344  24420678.147    24420687.5544
  22534402.882   -11527726.709 8  -8944064.81946  22534402.208    22534412.7214
 01  5 27  0 10  0.0000000  0 11 03 21 23 29 25 14 11 15 18 09 31
  22828535.566   -12196346.003 8  -9478290.49246  22828535.234    22828548.3734
  21124309.683   -22552666.521 9 -17550519.55147  21124309.145    21124317.2854
  24142461.953    -5842328.071 8  -4537204.49745  24142461.172    24142472.2934
  20303203.858   -24946380.593 9 -18632960.12448  20303203.645    20303211.0724
  23850438.311    -9474859.468 8  -6922323.83345  23850438.086    23850454.9184
  20201449.060   -27153810.639 9 -20596308.82348  20201448.558    20201455.0634
  24241911.684    -7802253.592 8  -6067821.70245  24241910.995    24241922.4184
  23244533.241   -11863032.538 8  -9001645.74446  23244532.534    23244545.6674
  23258764.761   -11809294.508 8  -9184796.94445  23258764.193    23258772.6804
  24433478.951    -4114393.942 7  -3192166.01244  24433478.854    24433488.4954
  22540282.358   -11496829.719 8  -8919989.27846  22540281.718    22540292.2184
 01  5 27  0 10 30.0000000  0 11 03 21 23 29 25 14 11 15 18 09 31
  22843411.328   -12118173.933 8  -9417377.34946  22843411.036    22843424.2284
  21126987.313   -22538595.526 9 -17539555.14247  21126986.752    21126994.9274
  24154532.011    -5778899.491 8  -4487779.68245  24154531.316    24154542.4824
  20300087.466   -24962756.679 9 -18645720.65948  20300087.262    20300094.7134
  23831913.083    -9572207.703 8  -6998179.14945  23831912.961    23831929.5414
  20201477.428   -27153661.521 9 -20596192.58948  20201476.919    20201483.4114
  24222887.482    -7902225.586 7  -6145721.81545  24222886.725    24222898.1504
  23263112.697   -11765397.493 8  -8925566.66046  23263112.003    23263125.1944
  23272087.609   -11739282.155 8  -9130241.91245  23272087.059    23272095.4834
  24446368.394    -4046660.067 7  -3139386.37645  24446368.421    24446377.8614
  22546258.449   -11465425.532 8  -8895518.52146  22546257.771    22546268.2164
 01  5 27  0 11  0.0000000  0 10 03 21 23 29 25 14 11 15 18 31
  22858334.831   -12039751.177 8  -9356268.86646  22858334.454    22858347.7274
  21129695.025   -22524366.666 9 -17528467.72547  21129694.467    21129702.6154
  24166609.645    -5715431.181 8  -4438323.92345  24166608.935    24166620.2454
  20297058.044   -24978676.012 9 -18658125.28848  20297057.849    20297065.3264
  23813395.695    -9669515.655 8  -7074003.09245  23813395.510    23813411.9034
  20201600.996   -27153011.839 9 -20595686.30848  20201600.483    20201606.9844
  24203879.956    -8002109.829 8  -6223553.54445  24203879.254    24203890.7264
  23281737.096   -11667526.752 8  -8849303.93246  23281736.348    23281749.5594
  23285424.409   -11669196.121 8  -9075629.48645  23285423.966    23285432.4054
  22552330.491   -11433516.877 8  -8870654.68846  22552329.827    22552340.2644
 01  5 27  0 11 30.0000000  0 10 03 21 23 29 25 14 11 15 18 31
  22873305.495   -11961080.227 8  -9294966.97946  22873305.081    22873318.3744
  21132432.841   -22509979.669 9 -17517257.08047  21132432.252    21132440.3354
  24178695.114    -5651922.418 8  -4388836.64545  24178694.277    24178705.6804
  20294115.559   -24994138.824 9 -18670174.19048  20294115.356    20294122.7984
  23794886.575    -9766780.004 8  -7149793.03245  23794886.374    23794902.7424
  20201819.667   -27151862.413 9 -20594790.61548  20201819.162    20201825.6544
  24184889.670    -8101903.688 7  -6301314.81745  24184888.990    24184900.6084
  23300406.083   -11569421.539 8  -8772858.50646  23300405.305    23300418.4334
  23298775.412   -11599035.794 8  -9020959.16845  23298775.053    23298783.5404
  22558498.222   -11401105.307 8  -8845398.95546  22558497.597    22558508.0084
 01  5 27  0 12  0.0000000  0 10 03 21 23 29 25 14 11 15 18 31
  22888322.949   -11882163.247 8  -9233473.39546  22888322.544    22888335.8624
  21135200.865   -22495433.323 9 -17505922.27147  21135200.295    21135208.3254
  24190788.380    -5588372.264 7  -4339317.10345  24190787.537    24190798.8754
  20291260.009   -25009144.887 9 -18681867.18148  20291259.813    20291267.2164
  23776386.399    -9863997.469 8  -7225546.48145  23776386.141    23776402.4714
  20202133.446   -27150213.426 9 -20593505.65748  20202132.944    20202139.4344
  24165917.115    -8201604.173 8  -6379003.34245  24165916.435    24165928.1114
  23319119.557   -11471082.578 8  -8696230.94746  23319118.799    23319131.8114
  23312140.701   -11528800.774 8  -8966230.65845  23312140.370    23312148.8494
  22564761.462   -11368191.882 8  -8819752.17246  22564760.811    22564771.2354
 01  5 27  0 12 30.0000000  0 10 03 21 23 29 25 14 11 15 18 31
  22903386.607   -11803003.454 8  -9171790.59946  22903386.196    22903399.5684
  21137999.382   -22480727.035 9 -17494462.83447  21137998.828    21138006.8254
  24202889.409    -5524780.613 8  -4289765.20745  24202888.558    24202899.9974
  20288491.233   -25023694.784 9 -18693204.71448  20288491.050    20288498.3914
  23757895.569    -9961165.708 8  -7301261.54245  23757895.351    23757911.6624
  20202542.045   -27148065.863 9 -20591832.19548  20202541.552    20202548.0574
  24146962.743    -8301209.465 8  -6456617.68845  24146962.117    24146973.6594
  23337877.180   -11372511.547 8  -8619422.53945  23337876.394    23337889.3834
  23325520.297   -11458491.480 8  -8911444.26445  23325519.878    23325528.3804
  22571119.665   -11334778.724 8  -8793715.96946  22571119.079    22571129.5394
 01  5 27  0 13  0.0000000  0 10 03 21 23 29 25 14 11 15 18 31
  22918495.567   -11723605.652 8  -9109922.35246  22918495.196    22918508.6044
  21140827.965   -22465862.870 9 -17482880.36947  21140827.410    21140835.4254
  24214998.211    -5461148.980 8  -4240182.17445  24214997.485    24215008.7464
  20285808.787   -25037791.146 9 -18704188.83948  20285808.587    20285815.8904
  23739414.369   -10058283.545 8  -7376937.33645  23739414.116    23739430.3724
  20203044.983   -27145422.563 9 -20589772.44048  20203044.513    20203051.0364
  24128026.502    -8400719.337 8  -6534157.65845  24128025.846    24128037.5264
  23356678.313   -11273711.657 8  -8542435.80745  23356677.529    23356690.5864
  23338913.743   -11388109.516 8  -8856601.25445  23338913.296    23338921.7534
  22577572.469   -11300869.415 8  -8767293.17946  22577571.902    22577582.2934
 01  5 27  0 13 30.0000000  0 10 03 21 23 29 25 14 11 15 18 31
  22933649.800   -11643970.491 8  -9047869.15846  22933649.425    22933662.8274
  21143687.203   -22450837.710 9 -17471172.45447  21143686.640    21143694.6894
  24227115.116    -5397474.745 8  -4190565.95745  24227114.387    24227125.6444
  20283212.964   -25051431.986 9 -18714818.02348  20283212.754    20283220.0534
  23720943.644   -10155346.212 8  -7452570.12445  23720943.333    23720959.5524
  20203642.581   -27142282.155 9 -20587325.33448  20203642.120    20203648.5874
  24109109.226    -8500129.027 8  -6611619.58845  24109108.691    24109120.2924
  23375523.133   -11174682.008 8  -8465270.04245  23375522.322    23375535.4724
  23352321.410   -11317652.672 8  -8801699.90845  23352320.874    23352329.3314
  22584119.841   -11266463.668 8  -8740483.54146  22584119.160    22584129.5504
 01  5 27  0 14  0.0000000  0 10 03 21 23 29 25 14 11 15 18 31
  22948848.586   -11564101.908 8  -8985634.06546  22948848.152    22948861.4634
  21146576.893   -22435652.205 9 -17459339.58747  21146576.350    21146584.3664
  24239239.912    -5333758.757 8  -4140917.21545  24239239.253    24239250.4074
  20280703.479   -25064619.186 9 -18725093.71648  20280703.281    20280710.6174
  23702483.824   -10252351.579 8  -7528158.28945  23702483.463    23702499.5564
  20204334.335   -27138647.166 9 -20584492.84048  20204333.831    20204340.2464
  24090211.374    -8599437.828 8  -6689002.87745  24090210.774    24090222.2204
  23394411.098   -11075425.339 8  -8387927.38345  23394410.326    23394423.6724
  23365743.004   -11247122.295 8  -8746741.24445  23365742.433    23365750.9964
  22590760.964   -11231564.575 8  -8713289.48946  22590760.252    22590770.7264
 01  5 27  0 14 30.0000000  0 10 03 21 23 29 25 14 11 15 18 31
  22964091.159   -11484002.443 8  -8923219.07946  22964090.701    22964104.0704
  21149497.084   -22420306.407 9 -17447381.82147  21149496.548    21149504.5604
  24251372.865    -5270000.524 8  -4091235.57045  24251372.273    24251383.2434
  20278280.219   -25077353.277 9 -18735016.34148  20278280.019    20278287.3504
  23684035.345   -10349296.826 8  -7603699.62345  23684034.984    23684050.9684
  20205120.022   -27134518.253 9 -20581275.47248  20205119.507    20205125.9244
  24071333.155    -8698643.359 8  -6766305.71145  24071332.513    24071343.9124
  23413342.104   -10975942.924 8  -8310408.82845  23413341.331    23413354.8474
  23379178.517   -11176518.162 8  -8691725.11745  23379177.972    23379186.6484
  22597495.570   -11196173.617 8  -8685712.16846  22597494.919    22597505.4884
 01  5 27  0 15  0.0000000  0 10 03 21 23 29 25 14 11 15 18 31
  22979376.963   -11403675.606 8  -8860626.90846  22979376.529    22979389.9354
  21152447.860   -22404800.089 9 -17435298.97747  21152447.325    21152455.3504
  24263513.890    -5206199.863 8  -4041520.82845  24263513.329    24263524.2464
  20275943.050   -25089634.975 9 -18744586.45048  20275942.847    20275950.1864
  23665598.758   -10446179.762 8  -7679192.39345  23665598.429    23665614.1894
  20205999.378   -27129896.747 9 -20577674.27148  20205998.868    20206005.3234
  24052474.966    -8797743.449 8  -6843526.39545  24052474.319    24052485.6084
  23432315.695   -10876236.344 8  -8232715.59645  23432314.886    23432328.5804
  23392628.009   -11105840.619 8  -8636651.79145  23392627.521    23392636.2684
  22604323.440   -11160293.109 8  -8657753.37346  22604322.773    22604333.3644
 01  5 27  0 15 30.0000000  0 10 03 21 23 29 25 14 11 15 18 31
  22994705.475   -11323124.480 8  -8797859.97646  22994705.096    22994718.4774
  21155429.316   -22389132.478 9 -17423090.44447  21155428.761    21155436.8154
  24275663.006    -5142356.690 8  -3991772.98545  24275662.368    24275673.2414
  20273691.843   -25101464.962 9 -18753804.57448  20273691.645    20273698.9704
  23647174.575   -10542997.367 8  -7754634.28045  23647174.312    23647189.9364
  20206972.270   -27124784.023 9 -20573690.30048  20206971.784    20206978.2354
  24033637.251    -8896736.306 8  -6920663.50745  24033636.560    24033647.6934
  23451331.529   -10776307.694 8  -8154849.31545  23451330.732    23451344.5474
  23406091.472   -11035089.777 8  -8581521.34845  23406090.990    23406099.8774
  22611244.043   -11123925.133 8  -8629414.74146  22611243.412    22611254.0384
 01  5 27  0 16  0.0000000  0 10 03 21 23 29 25 14 11 15 18 31
  23010076.207   -11242351.554 8  -8734920.20646  23010075.806    23010089.1844
  21158441.536   -22373302.944 9 -17410755.73347  21158440.976    21158449.1094
  24287820.403    -5078470.085 8  -3941991.29145  24287819.672    24287830.4204
  20271526.562   -25112843.547 9 -18762670.95548  20271526.344    20271533.6194
  23628763.354   -10639746.897 8  -7830023.11745  23628763.178    23628778.7124
  20208038.570   -27119180.538 9 -20569323.91848  20208038.096    20208044.5324
  24014820.465    -8995618.856 8  -6997714.66845  24014819.777    24014830.8174
  23470389.462   -10676157.598 8  -8076810.48845  23470388.767    23470402.6924
  23419568.956   -10964265.174 8  -8526333.42945  23419568.499    23419577.4994
  22618257.172   -11087071.078 8  -8600697.33646  22618256.556    22618267.1334
 01  5 27  0 16 30.0000000  0 10 03 21 23 29 25 14 11 15 18 31
  23025488.433   -11161360.295 8  -8671810.33046  23025488.035    23025501.3634
  21161484.591   -22357311.455 9 -17398294.82647  21161484.049    21161492.2034
  24299985.879    -5014540.323 8  -3892175.98745  24299985.041    24299995.8154
  20269446.941   -25123771.736 9 -18771186.38348  20269446.724    20269453.9954
  23610365.589   -10736426.064 8  -7905357.15245  23610365.415    23610380.9494
  20209197.957   -27113087.823 9 -20564576.32248  20209197.464    20209203.8854
  23996024.809    -9094389.843 8  -7074678.90845  23996024.139    23996035.0894
  23489489.292   -10575788.080 8  -7998600.68445  23489488.605    23489502.5824
  23433060.396   -10893367.377 8  -8471088.47645  23433059.940    23433068.9454
  22625362.411   -11049733.139 8  -8571602.89446  22625361.818    22625372.3664
 01  5 27  0 17  0.0000000  0 10 03 21 23 29 25 14 11 15 18 31
  23040941.759   -11080153.314 8  -8608532.35746  23040941.398    23040954.7064
  21164558.510   -22341157.944 9 -17385707.67447  21164557.951    21164566.0924
  24312159.635    -4950566.737 8  -3842326.56645  24312158.772    24312169.6444
  20267452.893   -25134250.202 9 -18779351.37648  20267452.694    20267459.9474
  23591981.842   -10833031.504 8  -7980633.74345  23591981.651    23591997.2514
  20210450.242   -27106506.919 9 -20559448.31948  20210449.747    20210456.1504
  23977250.777    -9193046.735 8  -7151554.24845  23977250.255    23977261.0884
  23508630.631   -10475200.542 8  -7920220.98645  23508629.924    23508643.8484
  23446565.823   -10822396.322 8  -8415786.43845  23446565.312    23446574.3384
  22632559.283   -11011913.268 8  -8542132.92846  22632558.696    22632569.2714
 01  5 27  0 17 30.0000000  0 10 03 21 23 29 25 14 11 15 18 31
  23056435.706   -10998733.072 8  -8545088.21546  23056435.332    23056448.6374
  21167663.487   -22324841.102 9 -17372993.24247  21167662.922    21167671.0924
  24324341.861    -4886548.706 8  -3792442.44745  24324341.089    24324351.8524
  20265544.456   -25144279.275 9 -18787166.19248  20265544.236    20265551.4564
  23573612.675   -10929560.248 8  -8055850.57745  23573612.498    23573628.0594
  20211795.276   -27099438.618 9 -20553940.52348  20211794.786    20211801.1454
  23958499.042    -9291586.944 8  -7228338.65445  23958498.557    23958509.3564
  23527813.192   -10374396.267 8  -7841672.40745  23527812.444    23527826.4874
  23460085.242   -10751351.786 8  -8360427.12945  23460084.741    23460093.6504
  22639847.594   -10973613.269 8  -8512288.82746  22639847.010    22639857.5684
 01  5 27  0 18  0.0000000  0 10 03 21 23 29 25 14 11 15 18 31
  23071969.367   -10917104.493 8  -8481481.72846  23071968.978    23071982.2384
  21170799.319   -22308362.120 9 -17360152.46547  21170798.761    21170806.9954
  24336532.371    -4822487.539 8  -3742524.70945  24336531.560    24336542.5084
  20263721.101   -25153861.124 9 -18794632.52248  20263720.878    20263728.0794
  23555258.388   -11026010.975 8  -8131006.62745  23555258.165    23555273.7964
  20213232.563   -27091885.637 9 -20548055.05648  20213232.051    20213238.3984
  23939769.714    -9390009.731 8  -7305031.57945  23939769.213    23939779.9594
  23547036.337   -10273378.266 8  -7762957.28845  23547035.566    23547049.7444
  23473618.459   -10680235.083 8  -8305011.60045  23473617.922    23473626.6574
  22647226.570   -10934836.711 8  -8482073.38946  22647225.991    22647236.4894
 01  5 27  0 18 30.0000000  0 10 03 21 23 29 25 14 11 15 18 31
  23087542.404   -10835268.805 8  -8417713.86046  23087542.046    23087555.2664
  21173966.393   -22291719.031 9 -17347183.82147  21173965.848    21173974.0704
  24348731.409    -4758381.191 8  -3692571.81845  24348730.584    24348741.5594
  20261982.978   -25162994.841 9 -18801749.65748  20261982.771    20261989.9674
  23536919.866   -11122379.148 8  -8206098.37245  23536919.530    23536935.1174
  20214762.133   -27083847.326 9 -20541791.41148  20214761.632    20214767.9744
  23921063.462    -9488311.112 8  -7381629.89345  23921062.973    23921073.6744
  23566300.410   -10172146.305 8  -7684075.44645  23566299.670    23566313.7384
  23487165.706   -10609044.526 8  -8249538.52045  23487165.124    23487173.8834
  22654696.078   -10895584.155 8  -8451487.04546  22654695.480    22654706.0424
 01  5 27  0 19  0.0000000  0 10 03 21 23 29 25 14 11 15 18 31
  23103154.029   -10753230.423 8  -8353788.07246  23103153.679    23103166.8994
  21177164.493   -22274912.965 9 -17334088.18347  21177163.914    21177172.1024
  24360938.849    -4694230.968 7  -3642584.70245  24360937.953    24360949.0044
  20260329.713   -25171682.696 9 -18808519.37248  20260329.506    20260336.6874
  23518597.247   -11218663.815 8  -8281125.04945  23518596.875    23518612.4644
  20216383.539   -27075326.536 9 -20535151.80848  20216383.049    20216389.3824
  23902380.352    -9586490.398 8  -7458133.07845  23902379.977    23902390.6374
  23585604.657   -10070703.396 8  -7605029.24745  23585603.875    23585617.8244
  23500726.696   -10537781.646 8  -8194009.09345  23500726.095    23500734.7434
  22662255.520   -10855859.032 8  -8420532.46946  22662254.907    22662265.5664
 01  5 27  0 19 30.0000000  0 10 03 21 23 29 25 14 11 15 18 31
  23118803.895   -10670990.737 8  -8289705.40746  23118803.545    23118816.8344
  21180394.019   -22257941.819 9 -17320863.90947  21180393.429    21180401.5444
  24373154.870    -4630035.087 7  -3592562.03345  24373154.056    24373165.2754
  20258761.432   -25179923.844 9 -18814941.00048  20258761.222    20258768.3974
  23500291.292   -11314860.567 8  -8356083.23446  23500291.018    23500306.5594
  20218096.875   -27066322.922 9 -20528135.97548  20218096.373    20218102.7144
  23883721.269    -9684544.160 8  -7534538.44445  23883720.865    23883731.4194
  23604948.826    -9969049.878 8  -7525818.92445  23604948.015    23604962.0754
  23514301.793   -10466445.154 8  -8138422.29645  23514301.108    23514309.5694
  22669904.769   -10815661.939 8  -8389210.13146  22669904.162    22669914.9044
 01  5 27  0 20  0.0000000  0 10 03 21 23 29 25 14 11 15 18 31
  23134491.141   -10588554.648 8  -8225469.72346  23134490.726    23134504.1564
  21183654.600   -22240807.218 9 -17307512.27247  21183654.012    21183662.1624
  24385379.425    -4565794.713 7  -3542504.68645  24385378.633    24385390.0404
  20257277.622   -25187720.832 9 -18821016.53448  20257277.429    20257284.6114
  23482002.269   -11410968.497 8  -8430972.22746  23482001.979    23482017.5254
  20219901.496   -27056839.530 9 -20520746.29548  20219900.994    20219907.3304
  23865086.263    -9782471.460 8  -7610845.27245  23865085.765    23865096.3074
  23624332.540    -9867188.839 8  -7446446.91845  23624331.795    23624345.8994
  23527890.496   -10395036.764 8  -8082779.46945  23527889.751    23527898.2104
  22677643.243   -10774996.624 8  -8357522.92646  22677642.574    22677653.3414
 01  5 27  0 20 30.0000000  0 10 03 21 23 29 25 14 11 15 18 31
  23150215.252   -10505924.631 8  -8161082.89046  23150214.840    23150228.3984
  21186946.548   -22223507.909 9 -17294032.29047  21186945.962    21186954.1544
  24397612.677    -4501509.211 8  -3492412.16745  24397611.915    24397623.3704
  20255878.273   -25195074.271 9 -18826746.44848  20255878.058    20255885.2634
  23463730.916   -11506984.007 8  -8505789.18246  23463730.588    23463746.1304
  20221797.262   -27046877.109 9 -20512983.34348  20221796.761    20221803.0464
  23846475.808    -9880269.772 8  -7687051.58045  23846475.259    23846485.8454
  23643755.522    -9765121.596 8  -7366914.21445  23643754.809    23643768.9264
  23541492.660   -10323556.007 8  -8027080.25245  23541492.095    23541500.6244
  22685470.469   -10733864.769 8  -8325472.21846  22685469.826    22685480.5244
 01  5 27  0 21  0.0000000  0 10 03 21 23 29 25 14 11 15 18 31
  23165975.853   -10423102.565 8  -8096546.43346  23165975.479    23165989.0994
  21190270.093   -22206042.506 9 -17280422.88547  21190269.492    21190277.6794
  24409854.591    -4437177.227 7  -3442283.42245  24409853.930    24409865.3694
  20254563.387   -25201983.652 9 -18832130.34148  20254563.178    20254570.3974
  23445477.841   -11602903.522 8  -8580531.33446  23445477.524    23445492.9464
  20223784.170   -27036435.771 9 -20504847.21648  20223783.676    20223789.9734
  23827890.426    -9977935.960 8  -7763154.93645  23827889.825    23827900.3354
  23663217.670    -9662848.571 8  -7287221.16745  23663216.966    23663231.0004
  23555108.685   -10252001.969 8  -7971323.93745  23555108.238    23555117.0714
  22693386.262   -10692267.573 8  -8293058.89546  22693385.566    22693396.2114
 01  5 27  0 21 30.0000000  0 10 03 21 23 29 25 14 11 15 18 31
  23181772.361   -10340091.956 8  -8031863.05246  23181771.963    23181785.6944
  21193625.210   -22188411.313 9 -17266684.29747  21193624.599    21193632.7694
  24422105.331    -4372798.872 7  -3392118.55545  24422104.659    24422116.2434
  20253332.747   -25208450.281 9 -18837169.22948  20253332.560    20253339.7764
  23427243.439   -11698725.050 8  -8655197.13446  23427243.078    23427258.4504
  20225861.808   -27025517.464 9 -20496339.41648  20225861.298    20225867.6324
  23809330.627   -10075468.074 8  -7839153.81545  23809330.014    23809340.3324
  23682718.613    -9560371.773 8  -7207369.33545  23682717.825    23682731.9194
  23568738.768   -10180375.189 8  -7915510.93145  23568738.361    23568747.4154
  22701390.123   -10650207.593 8  -8260284.96446  22701389.395    22701400.0494
 01  5 27  0 22  0.0000000  0 10 03 21 23 29 25 14 11 15 18 31
  23197604.052   -10256896.314 8  -7967035.50846  23197603.644    23197617.5364
  21197011.787   -22170614.683 9 -17252816.79847  21197011.214    21197019.3314
  24434364.697    -4308374.541 7  -3341917.85645  24434364.122    24434375.9224
  20252186.129   -25214475.801 9 -18841864.40248  20252185.933    20252193.1284
  23409028.056   -11794446.048 8  -8729784.61146  23409027.728    23409043.0414
  20228029.835   -27014124.108 9 -20487461.45348  20228029.347    20228035.6634
  23790796.568   -10172864.678 8  -7915047.10345  23790795.925    23790806.2004
  23702257.704    -9457693.723 8  -7127360.70345  23702256.948    23702271.1744
  23582382.557   -10108676.186 8  -7859641.64045  23582382.147    23582391.4404
  22709481.358   -10607687.658 8  -8227152.63346  22709480.644    22709491.4514
 01  5 27  0 22 30.0000000  0 10 03 21 23 29 25 14 11 15 18 31
  23213470.642   -10173517.386 8  -7902065.13746  23213470.239    23213484.2084
  21200430.288   -22152650.950 9 -17238819.08847  21200429.688    21200437.7424
  24446633.149    -4243902.786 7  -3291680.20945  24446632.698    24446644.6944
  20251123.541   -25220059.819 9 -18846215.54148  20251123.339    20251130.5194
  23390832.628   -11890062.397 8  -8804290.52646  23390832.344    23390847.5824
  20230288.261   -27002255.930 9 -20478213.49248  20230287.763    20230294.0744
  23772288.893   -10270122.356 8  -7990832.13545  23772288.308    23772298.4714
  23721835.020    -9354814.788 8  -7047195.52745  23721834.276    23721848.6714
  23596040.251   -10036904.100 8  -7803715.38845  23596039.881    23596049.2214
  22717659.850   -10564709.087 8  -8193662.92146  22717659.162    22717670.1544
 01  5 27  0 23  0.0000000  0 10 03 21 23 29 25 14 11 15 18 31
  23229371.386   -10089959.054 8  -7836954.96546  23229371.050    23229384.9914
  21203880.539   -22134519.916 9 -17224691.01747  21203879.890    21203887.9824
  24458910.703    -4179383.845 7  -3241405.82245  24458910.269    24458922.1474
  20250144.619   -25225203.872 9 -18850223.85248  20250144.437    20250151.5774
  23372657.405   -11985572.647 8  -8878713.77546  23372657.136    23372672.2864
  20232636.677   -26989914.776 9 -20468596.98248  20232636.197    20232642.5054
  23753807.978   -10367239.426 8  -8066507.61045  23753807.421    23753817.5674
  23741450.219    -9251737.180 8  -6966875.55245  23741449.506    23741463.8704
  23609711.897    -9965059.432 8  -7747732.60545  23609711.557    23609720.7424
  22725925.239   -10521274.629 8  -8159817.97446  22725924.560    22725935.5954
 01  5 27  0 23 30.0000000  0 10 03 21 23 29 25 14 11 15 18 31
  23245305.501   -10006226.187 8  -7771708.80146  23245305.149    23245318.9794
  21207362.238   -22116222.943 9 -17210433.63747  21207361.679    21207369.8134
  24471196.974    -4114819.346 7  -3191095.92145  24471196.493    24471208.1664
  20249248.908   -25229910.764 9 -18853891.52048  20249248.697    20249255.8474
  23354502.689   -12080975.111 8  -8953053.02946  23354502.425    23354517.5904
  20235074.496   -26977103.907 9 -20458614.45948  20235074.020    20235080.3374
  23735354.017   -10464215.468 8  -8142073.20045  23735353.347    23735363.4904
  23761102.515    -9148464.489 8  -6886403.55045  23761101.762    23761116.1724
  23623397.043    -9893144.033 8  -7691694.71545  23623396.702    23623405.7094
  22734276.635   -10477388.106 8  -8125620.76046  22734275.958    22734286.9774
 01  5 27  0 24  0.0000000  0 10 03 21 23 29 25 14 11 15 18 31
  23261272.717    -9922319.129 8  -7706326.89746  23261272.386    23261286.2074
  21210876.109   -22097757.319 9 -17196044.84747  21210875.537    21210883.6684
  24483492.683    -4050206.220 8  -3140748.16345  24483492.051    24483503.6014
  20248436.686   -25234178.731 9 -18857217.17548  20248436.489    20248443.6464
  23336369.378   -12176264.965 8  -9027304.52446  23336369.138    23336384.2844
  20237601.973   -26963821.952 9 -20448264.86448  20237601.480    20237607.7524
  23716927.642   -10561045.580 8  -8217525.07845  23716926.953    23716937.1864
  23780792.144    -9044995.667 8  -6805778.72145  23780791.381    23780805.6384
  23637096.203    -9821155.291 8  -7635599.65845  23637095.829    23637104.7584
  22742714.044   -10433049.524 8  -8091071.30946  22742713.397    22742724.3804
 01  5 27  0 24 30.0000000  0 10 03 21 23 29 25 14 11 15 18 31
  23277272.417    -9838241.104 8  -7640811.78546  23277272.090    23277285.9484
  21214422.159   -22079122.745 9 -17181524.41347  21214421.582    21214429.6754
  24495797.567    -3985544.149 8  -3090362.19945  24495796.783    24495808.5124
  20247707.783   -25238008.802 9 -18860201.61148  20247707.594    20247714.7914
  23318257.929   -12271439.510 8  -9101466.16846  23318257.796    23318272.8234
  20240218.773   -26950070.650 9 -20437549.53948  20240218.249    20240224.5514
  23698529.463   -10657727.663 8  -8292861.61545  23698528.730    23698539.0544
  23800518.798    -8941332.499 8  -6725002.46045  23800518.004    23800532.2284
  23650809.190    -9749093.304 8  -7579447.52245  23650808.805    23650817.8794
  22751237.104   -10388261.264 8  -8056171.46446  22751236.417    22751247.3124
 01  5 27  0 25  0.0000000  0 10 03 21 23 29 25 14 11 15 18 31
  23293303.528    -9753997.264 8  -7575167.47146  23293303.252    23293317.1764
  21218000.122   -22060320.900 9 -17166873.63347  21217999.515    21218007.5754
  24508111.220    -3920835.394 7  -3039939.84545  24508110.508    24508122.2624
  20247061.586   -25241404.216 9 -18862847.35148  20247061.411    20247068.6434
  23300168.618   -12366498.013 8  -9175537.39146  23300168.499    23300183.4424
  20242924.095   -26935853.691 9 -20426471.36148  20242923.586    20242929.9444
  23680159.410   -10754261.784 8  -8368082.86645  23680158.707    23680169.0264
  23820281.607    -8837478.992 8  -6644077.88845  23820280.833    23820295.1804
  23664535.662    -9676960.570 8  -7523240.29645  23664535.333    23664544.4754
  22759844.684   -10343027.964 8  -8020924.82746  22759844.028    22759855.0294
 01  5 27  0 25 30.0000000  0 10 03 21 23 29 25 14 11 15 18 31
  23309366.304    -9669587.497 8  -7509393.84645  23309366.002    23309379.9074
  21221610.458   -22041348.295 9 -17152089.79547  21221609.865    21221617.9704
  24520434.367    -3856076.578 8  -2989478.50245  24520433.837    24520445.5594
  20246498.551   -25244362.848 9 -18865152.74648  20246498.371    20246505.5754
  23282102.546   -12461434.829 8  -9249513.79346  23282102.367    23282117.1514
  20245718.433   -26921169.066 9 -20415028.77548  20245717.931    20245724.3244
  23661818.620   -10850642.418 8  -8443184.51145  23661817.934    23661828.2064
  23840080.892    -8733433.590 8  -6563003.78945  23840080.126    23840094.6274
  23678276.152    -9604754.034 8  -7466975.53945  23678275.800    23678284.9944
  22768537.199   -10297348.584 8  -7985330.59846  22768536.580    22768547.7094
 01  5 27  0 26  0.0000000  0 10 03 21 23 29 25 14 11 15 18 31
  23325459.481    -9585018.248 8  -7443495.95345  23325459.120    23325473.0524
  21225252.699   -22022207.764 9 -17137175.10447  21225252.144    21225260.2744
  24532766.703    -3791270.496 7  -2938980.32845  24532766.119    24532777.7074
  20246017.841   -25246888.926 9 -18867121.07648  20246017.654    20246024.8194
  23264059.525   -12556250.367 8  -9323395.69146  23264059.307    23264073.9254
  20248600.855   -26906021.648 9 -20403225.57048  20248600.376    20248606.7484
  23643506.876   -10946870.440 8  -8518167.25145  23643506.281    23643516.4534
  23859915.705    -8629201.075 8  -6481783.87245  23859915.074    23859929.6364
  23692030.152    -9532476.800 8  -7410655.69645  23692029.779    23692038.9494
  22777313.604   -10251228.559 8  -7949393.00946  22777312.975    22777324.2414
 01  5 27  0 26 30.0000000  0 10 03 21 23 29 25 14 11 15 18 31
  23341582.748    -9500290.474 8  -7377474.54545  23341582.399    23341596.4934
  21228927.452   -22002897.003 9 -17122127.78047  21228926.880    21228934.9894
  24545108.617    -3726414.998 8  -2888443.67745  24545107.945    24545119.3914
  20245619.596   -25248981.515 9 -18868751.62648  20245619.409    20245626.5514
  23246040.492   -12650939.724 8  -9397179.26346  23246040.231    23246054.7044
  20251571.482   -26890410.970 9 -20391061.38548  20251570.999    20251577.3404
  23625224.869   -11042941.914 8  -8593028.01345  23625224.408    23625234.4794
  23879786.158    -8524781.537 8  -6400418.26145  23879785.547    23879800.3394
  23705797.888    -9460127.187 8  -7354279.44945  23705797.548    23705806.5104
  22786173.665   -10204668.636 8  -7913112.64846  22786173.050    22786184.3894
 01  5 27  0 27  0.0000000  0 10 03 21 23 29 25 14 11 15 18 31
  23357735.611    -9415406.927 8  -7311331.75945  23357735.356    23357749.5714
  21232634.700   -21983415.119 9 -17106947.10847  21232634.113    21232642.2704
  24557459.894    -3661509.709 7  -2837868.20945  24557459.095    24557470.4754
  20245303.678   -25250641.569 9 -18870045.14248  20245303.498    20245310.6374
  23228045.957   -12745500.408 8  -9470862.56246  23228045.679    23228059.9734
  20254630.013   -26874338.275 9 -20378537.18848  20254629.512    20254635.8574
  23606973.248   -11138854.313 8  -8667764.82245  23606972.793    23606982.8614
  23899692.032    -8420176.517 8  -6318908.08945  23899691.397    23899706.2054
  23719579.376    -9387705.184 8  -7297846.79545  23719579.017    23719588.0254
  22795117.010   -10157671.147 8  -7876491.31746  22795116.439    22795127.8194
 01  5 27  0 27 30.0000000  0 10 03 21 23 29 25 14 11 15 18 31
  23373917.446    -9330372.235 8  -7245071.20545  23373917.094    23373931.4664
  21236374.262   -21963763.330 9 -17091634.03847  21236373.705    21236381.9284
  24569820.319    -3596555.521 7  -2787254.63545  24569819.548    24569830.9964
  20245069.611   -25251871.343 9 -18871003.37648  20245069.430    20245076.5924
  23210076.116   -12839930.861 8  -9544444.39146  23210075.909    23210090.0624
  20257775.833   -26857806.542 9 -20365655.29148  20257775.354    20257781.7154
  23588751.983   -11234606.659 8  -8742376.90345  23588751.607    23588761.5694
  23919632.796    -8315388.696 8  -6237255.48445  23919632.112    23919646.8944
  23733374.378    -9315211.968 8  -7241358.64745  23733373.997    23733383.1064
  22804143.062   -10110239.679 8  -7839531.84346  22804142.470    22804153.8144
 01  5 27  0 28  0.0000000  0 10 03 21 23 29 25 14 11 15 18 31
  23390127.524    -9245188.219 8  -7178694.28345  23390127.242    23390141.7114
  21240146.518   -21943939.764 9 -17076187.12447  21240145.993    21240154.2094
  24582190.439    -3531550.944 8  -2736601.81945  24582189.714    24582201.2364
  20244917.418   -25252670.784 9 -18871626.28848  20244917.265    20244924.4414
  23192131.883   -12934227.314 8  -9617921.80546  23192131.652    23192145.7104
  20261009.009   -26840815.970 9 -20352415.86248  20261008.546    20261014.8924
  23570561.873   -11330195.432 8  -8816861.53745  23570561.490    23570571.4904
  23939608.196    -8210418.802 8  -6155461.00945  23939607.414    23939622.2174
  23747183.191    -9242646.279 8  -7184814.03845  23747182.767    23747192.0244
  22813251.538   -10062375.365 8  -7802235.07246  22813250.845    22813262.1914
 01  5 27  0 28 30.0000000  0 10 03 21 23 29 25 14 11 15 18 31
  23406365.669    -9159857.606 8  -7112203.17245  23406365.350    23406379.8204
  21243951.601   -21923944.207 9 -17060606.19647  21243951.039    21243959.2204
  24594570.197    -3466495.576 8  -2685909.40745  24594569.454    24594581.1014
  20244846.967   -25253040.690 9 -18871914.49448  20244846.844    20244854.0164
  23174213.638   -13028386.768 8  -9691292.45446  23174213.407    23174227.4244
  20264329.276   -26823367.918 9 -20338819.95948  20264328.797    20264335.1174
  23552403.405   -11425618.504 8  -8891217.06845  23552403.081    23552412.9274
  23959617.794    -8105268.603 8  -6073526.03345  23959617.062    23959631.8574
  23761005.893    -9170008.087 8  -7128212.93345  23761005.458    23761014.8404
  22822441.866   -10014080.537 8  -7764602.84146  22822441.182    22822452.4614
 01  5 27  0 29  0.0000000  0 10 03 21 23 29 25 14 11 15 18 31
  23422631.043    -9074383.473 8  -7045600.18545  23422630.770    23422645.3284
  21247789.507   -21903775.920 9 -17044890.67047  21247788.922    21247797.1394
  24606959.664    -3401388.966 7  -2635177.08345  24606958.827    24606970.4704
  20244858.123   -25252982.056 9 -18871868.77848  20244857.977    20244865.1464
  23156321.905   -13122406.431 8  -9764554.18546  23156321.752    23156335.7764
  20267736.313   -26805463.827 9 -20324868.70348  20267735.828    20267742.1164
  23534277.008   -11520873.271 8  -8965441.43545  23534276.609    23534286.4274
  23979661.477    -7999939.615 8  -5991451.74845  23979660.736    23979675.6114
  23774842.187    -9097297.404 8  -7071555.33745  23774841.749    23774851.2654
  22831713.582    -9965357.747 8  -7726637.12446  22831712.884    22831724.1424
 01  5 27  0 29 30.0000000  0 10 03 21 23 29 25 14 11 15 18 31
  23438922.801    -8988770.818 8  -6978889.29145  23438922.561    23438937.0994
  21251659.903   -21883436.560 9 -17029041.83547  21251659.372    21251667.6414
  24619358.449    -3336233.013 7  -2584406.29145  24619357.743    24619369.3474
  20244950.226   -25252497.961 9 -18871491.53748  20244950.073    20244957.2404
  23138457.040   -13216285.709 8  -9837706.51246  23138456.790    23138470.8884
  20271229.429   -26787107.359 9 -20310564.94448  20271228.930    20271235.2484
  23516182.646   -11615959.539 8  -9039534.51445  23516182.246    23516191.9574
  23999738.384    -7894435.669 8  -5909241.13445  23999737.626    23999752.4844
  23788691.926    -9024516.503 8  -7014843.02645  23788691.571    23788701.0834
  22841065.793    -9916211.592 8  -7688341.52646  22841065.140    22841076.3714
 01  5 27  0 30  0.0000000  0 10 03 21 23 29 25 14 11 15 18 31
  23455240.691    -8903020.739 8  -6912071.31546  23455240.485    23455255.1044
  21255563.443   -21862923.497 9 -17013057.65047  21255562.920    21255571.1694
  24631766.972    -3271025.200 7  -2533595.09045  24631766.383    24631778.2174
  20245123.466   -25251587.554 9 -18870782.10648  20245123.303    20245130.4844
  23120619.764   -13310019.615 8  -9910745.58246  23120619.529    23120633.6014
  20274808.714   -26768297.833 9 -20295908.15148  20274808.252    20274814.5894
  23498121.159   -11710872.724 8  -9113492.72245  23498120.770    23498130.4794
  24019848.619    -7788756.401 8  -5826893.90545  24019847.975    24019862.7924
  23802555.567    -8951663.047 8  -6958074.19245  23802555.194    23802564.6114
  22850498.475    -9866642.235 8  -7649716.15646  22850497.879    22850509.1534
 01  5 27  0 30 30.0000000  0 10 03 21 23 29 25 14 11 15 18 31
  23471584.367    -8817135.329 8  -6845147.89345  23471584.110    23471598.8534
  21259500.363   -21842235.284 9 -16996936.98647  21259499.795    21259508.0164
  24644185.765    -3205764.346 7  -2482742.56145  24644185.225    24644197.1144
  20245377.767   -25250250.837 9 -18869740.48648  20245377.607    20245384.8474
  23102810.911   -13403604.228 8  -9983668.32546  23102810.707    23102824.7564
  20278474.062   -26749036.100 9 -20280898.98948  20278473.595    20278479.9754
  23480093.207   -11805609.688 8  -9187313.62445  23480092.750    23480102.4044
  24039992.059    -7682902.679 7  -5744410.74245  24039991.430    24040006.2284
  23816433.317    -8878736.139 8  -6901248.11245  23816432.876    23816442.3424
  22860011.516    -9816651.160 8  -7610762.17646  22860010.913    22860022.2074
 01  5 27  0 31  0.0000000  0 10 03 21 23 29 25 14 11 15 18 31
  23487952.791    -8731120.118 8  -6778123.32445  23487952.479    23487967.2134
  21263470.099   -21821374.179 9 -16980681.59347  21263469.537    21263477.7704
  24656614.401    -3140452.756 7  -2431850.48245  24656613.890    24656625.7184
  20245712.457   -25248491.753 9 -18868369.74448  20245712.325    20245719.5584
  23085030.552   -13497039.626 8 -10056474.80346  23085030.326    23085044.2884
  20282224.750   -26729326.154 9 -20265540.56748  20282224.278    20282230.6504
  23462098.792   -11900170.856 8  -9260997.53246  23462098.257    23462107.8714
  24060167.907    -7576879.098 7  -5661795.21345  24060167.193    24060182.1374
  23830324.457    -8805738.668 8  -6844367.03845  23830323.970    23830333.4914
  22869603.833    -9766243.598 8  -7571483.65846  22869603.233    22869614.6034
 01  5 27  0 31 30.0000000  0 10 03 21 23 29 25 14 11 15 18 31
  23504345.568    -8644976.989 8  -6710999.09845  23504345.190    23504359.9134
  21267472.960   -21800338.782 9 -16964290.38947  21267472.435    21267480.6684
  24669052.848    -3075089.024 7  -2380917.78345  24669052.310    24669064.1334
  20246127.638   -25246310.161 9 -18866669.78148  20246127.498    20246134.6714
  23067279.254   -13590322.320 8 -10129162.30046  23067279.055    23067292.8884
  20286060.591   -26709168.640 9 -20249833.39448  20286060.133    20286066.4504
  23444138.396   -11994552.815 8  -9334541.78946  23444137.861    23444147.4804
  24080375.945    -7470685.993 7  -5579047.58945  24080375.223    24080390.2844
  23844228.995    -8732669.515 7  -6787430.11045  23844228.514    23844238.2254
  22879275.086    -9715420.866 8  -7531881.63146  22879274.518    22879285.9534
 01  5 27  0 32  0.0000000  0 10 03 21 23 29 25 14 11 15 18 31
  23520762.192    -8558708.505 8  -6643777.17445  23520761.805    23520776.4724
  21271509.320   -21779128.075 9 -16947762.57647  21271508.771    21271516.9674
  24681501.237    -3009672.706 8  -2329944.09245  24681500.613    24681512.4274
  20246623.007   -25243707.121 9 -18864641.41848  20246622.855    20246629.9684
  23049557.644   -13683448.969 8 -10201728.20046  23049557.454    23049571.1824
  20289981.410   -26688564.781 9 -20233778.41948  20289980.939    20289987.2284
  23426212.639   -12088752.980 8  -9407944.39546  23426212.021    23426221.7194
  24100615.917    -7364324.867 7  -5496169.04945  24100615.291    24100630.3604
  23858147.237    -8659528.316 8  -6730437.05945  23858146.859    23858156.5394
  22889024.915    -9664185.432 8  -7491957.99746  22889024.358    22889035.9104
 01  5 27  0 32 30.0000000  0 10 03 21 23 29 25 14 11 15 18 31
  23537201.996    -8472318.246 8  -6576460.35745  23537201.614    23537216.2704
  21275579.006   -21757741.860 9 -16931098.00147  21275578.454    21275586.6814
  24693959.628    -2944203.678 7  -2278929.36145  24693959.067    24693970.9494
  20247198.357   -25240683.688 9 -18862285.47548  20247198.186    20247205.2504
  23031866.216   -13776417.012 8 -10274170.53246  23031866.052    23031879.7004
  20293986.760   -26667516.245 9 -20217376.93548  20293986.286    20293992.5914
  23408321.786   -12182769.004 8  -9481203.50646  23408321.277    23408331.0524
  24120887.563    -7257797.780 8  -5413161.16845  24120886.857    24120902.0304
  23872079.406    -8586315.175 8  -6673387.96345  23872079.033    23872088.4504
  22898852.733    -9612539.795 8  -7451714.74346  22898852.195    22898863.8904
 01  5 27  0 33  0.0000000  0 10 03 21 23 29 25 14 11 15 18 31
  23553664.611    -8385807.963 8  -6509050.03345  23553664.237    23553678.8454
  21279682.314   -21736178.438 9 -16914295.35247  21279681.793    21279690.0984
  24706428.389    -2878680.542 7  -2227872.44045  24706427.826    24706439.6454
  20247853.642   -25237240.104 9 -18859602.15048  20247853.473    20247860.5284
  23014205.668   -13869222.670 8 -10346486.33746  23014205.517    23014219.0984
  20298076.633   -26646023.775 9 -20200629.53748  20298076.184    20298082.4604
  23390466.621   -12276597.590 8  -9554316.57846  23390466.137    23390475.9654
  24141190.720    -7151105.425 8  -5330024.52645  24141189.911    24141205.2964
  23886025.643    -8513029.300 8  -6616282.19445  23886025.128    23886034.2414
  22908758.293    -9560485.636 8  -7411153.16046  22908757.827    22908769.5664
 01  5 27  0 33 30.0000000  0 10 03 21 23 29 25 14 11 15 18 31
  23570148.958    -8299183.081 8  -6441550.42145  23570148.535    23570163.3204
  21283818.989   -21714440.168 9 -16897356.45047  21283818.479    21283826.7804
  24718907.102    -2813105.591 7  -2176775.15745  24718906.397    24718918.1374
  20248588.149   -25233380.040 9 -18856594.28548  20248587.984    20248595.0374
  22996576.127   -13961865.673 8 -10418675.40646  22996575.932    22996589.4404
  20302250.222   -26624091.273 9 -20183539.25148  20302249.755    20302256.0454
  23372647.193   -12370238.970 8  -9627283.77246  23372646.664    23372656.5164
  24161524.538    -7044251.796 8  -5246762.21045  24161523.745    24161539.2444
  23899985.208    -8439673.056 8  -6559121.61045  23899984.615    23899993.5734
  22918740.839    -9508028.088 8  -7370277.22446  22918740.296    22918751.9814
 01  5 27  0 34  0.0000000  0 10 03 21 23 29 25 14 11 15 18 31
  23586655.214    -8212442.856 8  -6373960.92545  23586654.808    23586669.6164
  21287989.918   -21692522.260 9 -16880277.57347  21287989.372    21287997.6434
  24731396.276    -2747474.566 7  -2125634.17145  24731395.700    24731407.4674
  20249402.418   -25229100.852 9 -18853259.82848  20249402.241    20249409.3084
  22978978.774   -14054339.502 8 -10490732.65346  22978978.545    22978991.9394
  20306507.903   -26601716.921 9 -20166104.67048  20306507.438    20306513.7294
  23354864.507   -12463687.010 8  -9700100.31146  23354864.004    23354873.8484
  24181889.237    -6937235.230 8  -5163372.94045  24181888.506    24181904.2094
  23913958.596    -8366242.787 8  -6501903.32145  23913958.031    23913967.1004
  22928800.360    -9455165.868 8  -7329085.97146  22928799.722    22928811.3634
 01  5 27  0 34 30.0000000  0  9 03 21 29 25 14 11 15 18 31
  23603182.131    -8125594.145 8  -6306286.88945  23603181.777    23603196.5724
  21292194.210   -21670428.349 9 -16863061.55147  21292193.681    21292201.9804
  20250295.522   -25224407.374 9 -18849602.55148  20250295.352    20250302.4204
  22961413.442   -14146645.160 8 -10562658.87346  22961413.135    22961426.4064
  20310848.714   -26578905.659 9 -20148329.64648  20310848.252    20310854.5614
  23337118.392   -12556943.096 8  -9772767.30546  23337117.840    23337127.6504
  24202283.850    -6830060.909 7  -5079860.73745  24202283.208    24202299.2644
  23927945.297    -8292742.118 8  -6444630.18045  23927944.829    23927953.9834
  22938935.599    -9401905.125 8  -7287584.18546  22938934.956    22938946.6354
 01  5 27  0 35  0.0000000  0  9 03 21 29 25 14 11 15 18 31
  23619729.259    -8038639.493 8  -6238530.29145  23619728.932    23619743.4904
  21296432.268   -21648157.352 9 -16845707.53247  21296431.757    21296440.0654
  20251267.318   -25219300.534 9 -18845623.16648  20251267.140    20251274.2044
  22943880.635   -14238779.679 8 -10634451.72746  22943880.343    22943893.5204
  20315272.371   -26555659.085 9 -20130215.41648  20315271.920    20315278.2064
  23319409.423   -12650004.340 8  -9845282.46446  23319408.780    23319418.5254
  24222708.172    -6722730.430 7  -4996226.85545  24222707.598    24222723.7784
  23941945.454    -8219170.661 8  -6387301.88345  23941944.946    23941954.2514
  22949146.238    -9348247.879 8  -7245773.43246  22949145.677    22949157.3294
 01  5 27  0 35 30.0000000  0  9 03 21 29 25 14 11 15 18 31
  23636296.636    -7951578.134 8  -6170690.54145  23636296.323    23636310.9094
  21300704.818   -21625705.165 9 -16828212.33447  21300704.249    21300712.5754
  20252318.272   -25213777.649 9 -18841319.59848  20252318.092    20252325.1294
  22926381.633   -14330736.267 8 -10706105.97346  22926381.327    22926394.3864
  20319779.270   -26531975.028 9 -20111760.29648  20319778.820    20319785.0944
  23301738.682   -12742864.534 8  -9917640.94846  23301737.963    23301747.6684
  24243162.752    -6615241.906 7  -4912469.82645  24243162.178    24243178.4674
  23955959.711    -8145524.724 8  -6329915.55045  23955959.284    23955968.7084
  22959432.620    -9294193.201 8  -7203653.00346  22959432.036    22959443.6304
 01  5 27  0 36  0.0000000  0  9 03 21 29 25 14 11 15 18 31
  23652883.017    -7864416.124 8  -6102772.39145  23652882.809    23652897.4654
  21305011.397   -21603073.602 9 -16810577.35347  21305010.858    21305019.2074
  20253447.561   -25207843.108 9 -18836695.25148  20253447.380    20253454.4044
  22908916.353   -14422515.454 8 -10777621.96746  22908916.078    22908929.0704
  20324368.586   -26507858.094 9 -20092967.86948  20324368.113    20324374.3974
  23284105.858   -12835524.603 8  -9989843.50646  23284105.230    23284114.9004
  24263646.452    -6507600.240 7  -4828593.46945  24263645.798    24263662.1344
  23969987.672    -8071807.147 8  -6272473.38245  23969987.253    23969996.8494
  22969793.480    -9239746.903 8  -7161227.40746  22969792.903    22969804.5004
 01  5 27  0 36 30.0000000  0  9 03 21 29 25 14 11 15 18 31
  23669487.995    -7777157.090 8  -6034778.62445  23669487.675    23669502.5534
  21309351.987   -21580263.431 9 -16792803.19447  21309351.463    21309359.8364
  20254654.819   -25201498.659 9 -18831751.50148  20254654.664    20254661.7044
  22891485.268   -14514115.050 8 -10848998.03146  22891485.035    22891497.9214
  20329039.727   -26483310.619 9 -20073839.95848  20329039.279    20329045.5974
  23266511.498   -12927982.574 8 -10061888.58346  23266510.920    23266520.6594
  24284159.001    -6399807.729 7  -4744599.56145  24284158.266    24284174.5674
  23984029.277    -7998018.569 8  -6214975.88745  23984028.842    23984038.6004
  22980228.368    -9184912.177 8  -7118499.15246  22980227.709    22980239.2704
 01  5 27  0 37  0.0000000  0  9 03 21 29 25 14 11 15 18 31
  23686111.165    -7689802.680 8  -5966710.54045  23686110.927    23686125.9984
  21313726.945   -21557272.819 9 -16774888.44347  21313726.434    21313734.8164
  20255940.107   -25194744.381 9 -18826488.40648  20255939.945    20255946.9764
  22874089.134   -14605530.818 8 -10920230.85646  22874088.908    22874101.7324
  20333792.754   -26458333.036 9 -20054376.90248  20333792.319    20333798.6834
  23248956.245   -13020234.980 8 -10133773.47246  23248955.703    23248965.5134
  24304700.086    -6291865.075 7  -4660488.67345  24304699.277    24304715.7864
  23998084.529    -7924158.219 8  -6157422.49045  23998084.112    23998093.9594
  22990736.856    -9129690.448 8  -7075469.31646  22990736.155    22990747.6944
 01  5 27  0 37 30.0000000  0  9 03 21 29 25 14 11 15 18 31
  23702752.167    -7602354.804 8  -5898569.61945  23702751.936    23702767.0684
  21318136.474   -21534100.758 9 -16756832.30047  21318135.941    21318144.2614
  20257303.317   -25187580.566 9 -18820906.19048  20257303.161    20257310.1794
  22856728.698   -14696758.978 8 -10991317.48746  22856728.487    22856741.2844
  20338627.529   -26432926.187 9 -20034579.35048  20338627.081    20338633.4494
  23231440.748   -13112278.568 8 -10205495.65846  23231440.299    23231450.0934
  24325269.452    -6183772.868 7  -4576261.27645  24325268.657    24325285.2774
  24012153.776    -7850224.861 8  -6099812.21245  24012153.332    24012163.1244
  23001318.605    -9074083.471 8  -7032139.30846  23001317.939    23001329.4134
 01  5 27  0 38  0.0000000  0  9 03 21 29 25 14 11 15 18 31
  23719409.742    -7514819.357 8  -5830360.48145  23719409.554    23719424.8234
  21322580.168   -21510749.093 9 -16738636.21647  21322579.615    21322587.9834
  20258743.690   -25180011.141 9 -18815007.91648  20258743.524    20258750.5724
  22839403.859   -14787800.088 8 -11062258.37846  22839403.671    22839416.4494
  20343543.185   -26407094.420 9 -20014450.69848  20343542.718    20343549.0804
  23213965.048   -13204113.452 8 -10277055.21446  23213964.607    23213974.4024
  24345866.545    -6075535.721 7  -4491920.91645  24345865.758    24345882.4424
  24026236.168    -7776221.198 8  -6042147.12045  24026235.823    24026245.7854
  23011972.612    -9018096.586 8  -6988513.26046  23011971.973    23011983.4464
 01  5 27  0 38 30.0000000  0  9 03 21 29 25 14 11 15 18 31
  23736084.160    -7427195.814 8  -5762082.69345  23736083.922    23736099.4184
  21327058.773   -21487213.698 9 -16720296.95547  21327058.255    21327066.6634
  20260261.709   -25172033.850 9 -18808791.82748  20260261.563    20260268.6134
  22822115.849   -14878647.862 8 -11133048.62246  22822115.668    22822128.3684
  20348539.943   -26380836.198 9 -19993989.74448  20348539.469    20348545.8364
  23196530.129   -13295734.088 8 -10348447.81846  23196529.687    23196539.5644
  24366491.518    -5967151.892 8  -4407466.27145  24366490.709    24366507.3634
  24040332.589    -7702143.885 8  -5984424.64645  24040332.215    24040342.2644
  23022699.043    -8961729.045 8  -6944590.61146  23022698.447    23022709.9684
 01  5 27  0 39  0.0000000  0  9 03 21 29 25 14 11 15 18 31
  23752774.293    -7339489.681 8  -5693740.54245  23752774.035    23752789.6554
  21331571.984   -21463496.569 9 -16701816.08247  21331571.480    21331579.9134
  20261856.575   -25163652.606 9 -18802260.96048  20261856.419    20261863.4694
  22804864.765   -14969301.875 8 -11203687.87546  22804864.601    22804877.2094
  20353617.114   -26354155.322 9 -19973199.44648  20353616.644    20353623.0474
  23179136.091   -13387140.184 8 -10419673.24846  23179135.658    23179145.4604
  24387143.696    -5858625.670 7  -4322900.66745  24387142.932    24387159.3644
  24054442.532    -7627995.135 8  -5926646.50945  24054442.227    24054452.3724
  23033496.928    -8904985.974 8  -6900375.32846  23033496.332    23033507.9054
 01  5 27  0 39 30.0000000  0  9 03 21 29 25 14 11 15 18 31
  23769479.594    -7251704.002 8  -5625336.44345  23769479.222    23769495.0134
  21336119.917   -21439597.484 9 -16683193.43547  21336119.402    21336127.7664
  20263528.062   -25154868.885 9 -18795416.47948  20263527.902    20263534.9374
  22787651.045   -15059759.641 8 -11274174.20546  22787650.858    22787663.3674
  20358774.373   -26327053.953 9 -19952081.49248  20358773.904    20358780.2964
  23161783.251   -13478329.864 8 -10490730.03946  23161782.792    23161792.6554
  24407822.643    -5749959.456 7  -4238225.97845  24407821.936    24407838.1244
  24068566.138    -7553775.289 8  -5868812.98045  24068565.839    24068576.0514
  23044365.748    -8847870.212 8  -6855869.65046  23044365.178    23044376.7884
 01  5 27  0 40  0.0000000  0  9 03 21 29 25 14 11 15 18 31
  23786199.430    -7163841.773 8  -5556872.64545  23786199.027    23786214.9884
  21340702.646   -21415515.361 9 -16664428.15647  21340702.089    21340710.3934
  20265275.941   -25145683.589 9 -18788259.08448  20265275.781    20265282.8034
  22770475.234   -15150017.866 8 -11344505.06546  22770475.078    22770487.4414
  20364011.326   -26299533.520 9 -19930636.99748  20364010.849    20364017.2244
  23144472.133   -13569300.089 8 -10561615.82746  23144471.696    23144481.5464
  24428527.891    -5641154.582 7  -4153443.27145  24428527.142    24428543.2454
  24082703.462    -7479484.054 8  -5810923.80645  24082703.101    24082713.2224
  23055305.043    -8790384.101 8  -6811075.37846  23055304.494    23055316.1344
 01  5 27  0 40 30.0000000  0  9 03 21 29 25 14 11 15 18 31
  23802933.484    -7075903.781 8  -5488349.86145  23802933.172    23802949.5384
  21345320.615   -21391247.802 9 -16645518.38447  21345320.052    21345328.3694
  20267100.440   -25136095.946 9 -18780788.17048  20267100.278    20267107.2314
  22753338.315   -15240072.031 8 -11414676.91846  22753338.142    22753350.4354
  20369328.079   -26271593.760 9 -19908865.75848  20369327.598    20369334.0094
  23127203.648   -13660046.695 8 -10632327.35246  23127203.211    23127213.0184
  24449259.570    -5532210.697 7  -4068552.25445  24449258.919    24449274.8424
  24096854.624    -7405119.397 8  -5752977.44245  24096854.364    24096864.3444
  23066314.625    -8732528.592 8  -6765993.28446  23066314.103    23066325.6744
 01  5 27  0 41  0.0000000  0  9 03 21 29 25 14 11 15 18 31
  23819681.146    -6987895.321 8  -5419772.14645  23819680.759    23819697.3444
  21349973.451   -21366796.722 9 -16626465.61247  21349972.941    21349981.3264
  20269000.746   -25126109.720 9 -18773006.67048  20269000.573    20269007.5244
  22736240.347   -15329921.519 8 -11484689.27946  22736240.159    22736252.4054
  20374723.862   -26243238.801 9 -19886770.98448  20374723.373    20374729.7844
  23109977.784   -13750569.845 8 -10702864.77446  23109977.206    23109986.9674
  24470016.895    -5423132.157 7  -3983556.27045  24470016.180    24470032.1244
  24111019.436    -7330683.843 8  -5694975.82645  24111019.168    24111029.0574
  23077393.631    -8674308.639 8  -6720627.19346  23077393.143    23077404.6184
 01  5 27  0 41 30.0000000  0  9 03 21 29 25 14 11 15 18 31
  23836442.131    -6899816.582 8  -5351139.67945  23836441.854    23836458.5144
  21354661.959   -21342158.850 9 -16607267.28547  21354661.416    21354669.8374
  20270977.168   -25115723.490 9 -18764913.48448  20270976.995    20270983.9594
  22719182.349   -15419561.139 8 -11554538.11146  22719182.158    22719194.3314
  20380198.801   -26214467.749 9 -19864351.98448  20380198.332    20380204.7444
  23092795.319   -13840864.080 8 -10773223.80646  23092794.821    23092804.4674
  24490799.967    -5313917.890 7  -3898454.56645  24490799.192    24490815.2434
  24125198.408    -7256174.361 8  -5636916.61145  24125198.052    24125207.9464
  23088541.941    -8615724.070 8  -6674977.00546  23088541.495    23088553.0524
 01  5 27  0 42  0.0000000  0  9 03 21 29 25 14 11 15 18 31
  23853214.860    -6811676.026 8  -5282459.04745  23853214.573    23853231.3284
  21359385.010   -21317339.036 9 -16587927.18247  21359384.446    21359392.8544
  20273028.351   -25104944.017 9 -18756513.87248  20273028.185    20273035.1934
  22702163.816   -15508993.597 8 -11624225.51146  22702163.610    22702175.7894
  20385751.542   -26185287.744 9 -19841614.31748  20385751.088    20385757.4694
  23075655.842   -13930932.402 8 -10843406.79946  23075655.366    23075664.9804
  24511607.380    -5204575.133 7  -3813252.72345  24511606.688    24511622.8674
  24139390.318    -7181596.575 8  -5578804.14645  24139389.888    24139399.8274
  23099758.143    -8556783.130 8  -6629049.10746  23099757.700    23099769.3074
 01  5 27  0 42 30.0000000  0  9 03 21 29 25 14 11 15 18 31
  23870000.193    -6723469.288 8  -5213726.88145  23870000.011    23870016.8304
  21364144.135   -21292329.470 9 -16568439.22647  21364143.621    21364152.0254
  20275155.553   -25093765.335 9 -18747803.19348  20275155.392    20275162.3874
  22685186.537   -15598209.061 8 -11693743.83346  22685186.283    22685198.5274
  20391383.245   -26155693.130 9 -19818553.58048  20391382.789    20391389.1294
  23058561.180   -14020765.264 8 -10913406.31446  23058560.701    23058570.2394
  24532440.270    -5095098.428 7  -3727946.54445  24532439.485    24532456.1184
  24153596.489    -7106943.216 8  -5520632.81545  24153595.973    24153606.0284
  23111043.026    -8497481.443 8  -6582840.10946  23111042.588    23111054.2094
 01  5 27  0 43  0.0000000  0  9 03 21 29 25 14 11 15 18 31
  23886796.559    -6635205.755 8  -5144950.46545  23886796.305    23886813.1254
  21368938.378   -21267135.815 9 -16548807.82747  21368937.832    21368946.2224
  20277357.174   -25082195.591 9 -18738787.78648  20277357.018    20277364.0134
  22668249.773   -15687211.305 8 -11763096.00746  22668249.578    22668261.8654
  20397092.139   -26125692.538 9 -19795176.48848  20397091.667    20397098.0144
  23041510.598   -14110366.943 8 -10983225.69446  23041510.045    23041519.4934
  24553297.073    -4985496.491 7  -3642542.76545  24553296.236    24553313.0974
  24167815.859    -7032220.746 8  -5462407.62045  24167815.339    24167825.4204
  23122394.773    -8437828.521 8  -6536357.41346  23122394.259    23122405.9104
 01  5 27  0 43 30.0000000  0  9 03 21 29 25 14 11 15 18 31
  23903603.808    -6546884.572 8  -5076129.11845  23903603.518    23903620.3254
  21373768.455   -21241753.755 9 -16529029.61847  21373767.908    21373776.3044
  20279633.732   -25070232.078 9 -18729465.55148  20279633.582    20279640.5624
  22651354.868   -15775993.541 8 -11832276.74846  22651354.684    22651367.0254
  20402878.662   -26095283.814 9 -19771481.37548  20402878.221    20402884.6184
  23024505.061   -14199731.080 8 -11052859.97646  23024504.498    23024513.8944
  24574177.915    -4875767.270 7  -3557039.80445  24574177.131    24574194.2114
  24182049.107    -6957425.327 8  -5404125.57545  24182048.526    24182058.5824
  23133813.514    -8377823.033 8  -6489600.00046  23133812.934    23133824.6424
 01  5 27  0 44  0.0000000  0  9 03 21 29 25 14 11 15 18 31
  23920421.842    -6458507.198 8  -5007263.99445  23920421.556    23920438.3134
  21378634.695   -21216181.357 9 -16509103.09147  21378634.189    21378642.6164
  20281985.199   -25057874.888 9 -18719836.55448  20281985.054    20281992.0424
  22634502.611   -15864551.864 8 -11901283.01746  22634502.400    22634514.7794
  20408742.832   -26064467.332 9 -19747468.52448  20408742.412    20408748.7804
  23007545.501   -14288853.727 8 -11122306.08746  23007544.978    23007554.3224
  24595082.751    -4765911.223 7  -3471438.04545  24595081.980    24595099.4214
  24196296.347    -6882555.624 8  -5345785.65045  24196295.814    24196305.8294
  23145299.096    -8317466.505 8  -6442569.04646  23145298.473    23145310.1874
 01  5 27  0 44 30.0000000  0  9 03 21 29 25 14 11 15 18 31
  23937249.062    -6370081.678 8  -4938361.32945  23937248.706    23937265.4344
  21383536.237   -21190423.501 9 -16489032.05047  21383535.746    21383544.1934
  20284410.415   -25045130.270 9 -18709905.66548  20284410.265    20284417.2644
  22617692.590   -15952888.380 8 -11970116.44146  22617692.368    22617704.7354
  20414683.356   -26033249.957 9 -19723143.29348  20414682.909    20414689.2254
  22990631.432   -14377737.430 8 -11191566.00746  22990630.897    22990640.1814
  24616010.379    -4655935.082 7  -3385742.68045  24616009.731    24616027.4944
  24210556.880    -6807616.475 8  -5287391.60745  24210556.260    24210566.3624
  23156850.018    -8256766.725 8  -6395270.62446  23156849.397    23156861.0474
 01  5 27  0 45  0.0000000  0  9 03 21 29 25 14 11 15 18 31
  23954085.520    -6281607.434 8  -4869420.66145  23954085.232    23954101.8764
  21388473.935   -21164476.234 9 -16468813.42547  21388473.418    21388481.8314
  20286909.715   -25031996.233 9 -18699671.33148  20286909.575    20286916.6034
  22600925.945   -16040997.308 8 -12038772.52346  22600925.685    22600937.9404
  20420700.441   -26001630.005 9 -19698504.36448  20420699.964    20420706.3044
  22973763.795   -14466376.546 8 -11260635.33646  22973763.325    22973772.5664
  24636961.095    -4545837.431 7  -3299952.65745  24636960.498    24636978.5974
  24224831.317    -6732604.776 8  -5228941.01945  24224830.768    24224840.6194
  23168466.238    -8195723.116 8  -6347704.31046  23168465.634    23168477.3384
 01  5 27  0 45 30.0000000  0  9 03 21 29 25 14 11 15 18 31
  23970931.095    -6193085.755 8  -4800443.07845  23970930.649    23970947.4004
  21393448.108   -21138337.064 9 -16448445.26847  21393447.574    21393455.9534
  20289483.191   -25018472.332 9 -18689133.21448  20289483.043    20289490.0814
  22584203.475   -16128873.710 8 -12107247.42046  22584203.232    22584215.3884
  20426794.055   -25969607.663 9 -19673551.88548  20426793.595    20426799.9664
  22956943.533   -14554766.765 8 -11329510.71846  22956943.119    22956952.2494
  24657935.154    -4435618.519 7  -3214068.14145  24657934.567    24657952.7464
  24239119.751    -6657518.405 8  -5170432.26545  24239119.186    24239129.2544
  23180147.701    -8134336.636 8  -6299870.79846  23180147.098    23180158.9164
 01  5 27  0 46  0.0000000  0  9 03 21 29 25 14 11 15 18 31
  23987784.144    -6104523.663 8  -4731433.96345  23987783.722    23987800.6584
  21398458.149   -21112009.426 9 -16427930.24547  21398457.596    21398465.9524
  20292129.742   -25004564.394 9 -18678295.84548  20292129.591    20292136.6344
  22567524.977   -16216519.221 8 -12175542.39946  22567524.738    22567536.7774
  20432963.131   -25937189.023 9 -19648290.59348  20432962.694    20432969.0224
  22940170.351   -14642910.027 8 -11398193.67346  22940169.941    22940178.9794
  24678931.306    -4325284.351 7  -3128093.83945  24678930.811    24678949.1114
  24253421.308    -6582361.912 8  -5111868.88745  24253421.006    24253431.2114
  23191892.984    -8072614.654 8  -6251775.86046  23191892.377    23191904.3184
 01  5 27  0 46 30.0000000  0  9 03 21 29 25 14 11 15 18 31
  24004644.872    -6015920.817 8  -4662393.16145  24004644.400    24004661.6074
  21403504.657   -21085489.842 9 -16407265.65847  21403504.102    21403512.4554
  20294849.737   -24990270.534 9 -18667157.76248  20294849.598    20294856.5964
  22550891.481   -16303928.261 8 -12243653.11846  22550891.293    22550903.1314
  20439207.912   -25904372.617 9 -19622719.36348  20439207.471    20439213.7494
  22923445.194   -14730800.753 8 -11466679.85546  22923444.779    22923453.7674
  24699949.761    -4214833.354 7  -3042028.49045  24699949.180    24699967.5444
  24267737.050    -6507131.898 8  -5053248.19745  24267736.645    24267747.2734
  23203702.259    -8010556.666 8  -6203419.07646  23203701.691    23203713.6974
 01  5 27  0 47  0.0000000  0  9 03 21 29 25 14 11 15 18 31
  24021512.504    -5927281.884 8  -4593324.20445  24021512.162    24021529.4044
  21408587.424   -21058779.490 9 -16386452.42347  21408586.884    21408595.2744
  20297642.675   -24975593.760 9 -18655721.30148  20297642.534    20297649.5194
  22534303.162   -16391100.050 8 -12311578.97246  22534302.967    22534314.5594
  20445527.653   -25871161.920 9 -19596840.89048  20445527.206    20445533.5314
  22906768.320   -14818438.053 8 -11534968.56246  22906767.865    22906776.8234
  24720989.874    -4104269.143 7  -2955874.90545  24720989.414    24721007.6504
  24282066.626    -6431829.992 8  -4994571.52245  24282066.185    24282077.0534
  23215574.611    -7948167.087 8  -6154803.95446  23215574.112    23215586.1114
 01  5 27  0 47 30.0000000  0  9 03 21 29 25 14 11 15 18 31
  24038386.451    -5838609.990 8  -4524229.54845  24038386.221    24038403.5184
  21413706.704   -21031877.545 9 -16365489.89847  21413706.170    21413714.5824
  20300508.115   -24960535.802 9 -18643987.81448  20300507.961    20300514.9524
  22517760.581   -16478031.563 8 -12379317.60546  22517760.389    22517771.7354
  20451921.999   -25837559.045 9 -19570656.83048  20451921.589    20451927.9084
  22890139.977   -14905819.705 8 -11603058.06846  22890139.577    22890148.6484
  24742050.995    -3993593.757 7  -2869634.70745  24742050.504    24742068.8414
  24296410.128    -6356456.459 8  -4935839.01845  24296409.585    24296420.3114
  23227509.654    -7885448.984 8  -6105932.81646  23227509.089    23227521.0544
 01  5 27  0 48  0.0000000  0  9 03 21 29 25 14 11 15 18 31
  24055265.867    -5749909.770 8  -4455112.85045  24055265.655    24055282.9824
  21418862.235   -21004785.058 9 -16344378.89447  21418861.701    21418870.1394
  20303445.480   -24945099.735 9 -18631959.69848  20303445.307    20303452.3324
  22501263.733   -16564721.981 8 -12446868.37246  22501263.550    22501274.8024
  20458390.442   -25803567.522 9 -19544169.91848  20458390.011    20458396.3054
  22873560.507   -14992944.809 8 -11670947.67346  22873560.094    22873569.1854
  24763132.510    -3882810.794 7  -2783310.69045  24763131.870    24763150.3844
  24310766.849    -6281013.095 8  -4877052.08745  24310766.256    24310776.9244
  23239506.334    -7822406.832 8  -6056809.16846  23239505.725    23239517.7274
 01  5 27  0 48 30.0000000  0  8 03 21 29 25 14 11 18 31
  24072151.545    -5661176.931 8  -4385970.71345  24072151.265    24072168.6834
  21424055.435   -20977494.795 9 -16323113.77947  21424054.895    21424063.3234
  20306455.845   -24929279.869 9 -18619632.51648  20306455.693    20306462.7504
  22484814.612   -16651161.563 8 -12514223.66946  22484814.447    22484825.7024
  20464933.797   -25769182.217 9 -19517376.16648  20464933.351    20464939.5974
  22857031.632   -15079804.007 8 -11738630.08346  22857031.277    22857040.3654
  24325138.016    -6205492.586 7  -4818205.07545  24325137.368    24325147.8994
  23251565.391    -7759036.219 8  -6007429.58846  23251564.807    23251576.8414
 01  5 27  0 49  0.0000000  0  8 03 21 29 25 14 11 18 31
  24089041.820    -5572420.485 8  -4316810.16845  24089041.513    24089058.8904
  21429285.185   -20950012.194 9 -16301698.79647  21429284.645    21429293.0874
  20309537.807   -24913083.961 9 -18607012.31548  20309537.670    20309544.7364
  22468412.510   -16737353.866 8 -12581386.30046  22468412.362    22468423.6404
  20471550.478   -25734411.238 9 -19490281.88348  20471550.021    20471556.3024
  22840552.743   -15166401.023 8 -11806108.20546  22840552.335    22840561.4294
  24339522.592    -6129901.137 7  -4759302.76745  24339522.019    24339532.5724
  23263685.186    -7695346.513 8  -5957801.37446  23263684.676    23263696.6534
 01  5 27  0 49 30.0000000  0  8 03 21 29 25 14 11 18 31
  24105935.980    -5483642.642 8  -4247632.98445  24105935.648    24105952.9634
  21434551.743   -20922336.189 9 -16280133.10847  21434551.229    21434559.6964
  20312691.276   -24896512.567 9 -18594099.52548  20312691.136    20312698.1454
  22452058.253   -16823295.086 8 -12648353.28146  22452058.124    22452069.3964
  20478240.332   -25699255.405 9 -19462887.71848  20478239.890    20478246.1964
  22824124.306   -15252732.689 8 -11873379.56746  22824123.858    22824132.9734
  24353920.753    -6054237.716 8  -4700344.37745  24353920.242    24353931.0434
  23275865.373    -7631339.735 8  -5907926.09646  23275864.854    23275876.8184
 01  5 27  0 50  0.0000000  0  8 03 21 29 25 14 11 18 31
  24122833.556    -5394846.212 8  -4178441.31445  24122833.050    24122850.6244
  21439855.275   -20894465.951 9 -16258416.05047  21439854.758    21439863.2724
  20315915.879   -24879567.088 9 -18580895.23848  20315915.744    20315922.7004
  22435752.292   -16908982.810 8 -12715122.73646  22435752.123    22435763.3824
  20485003.166   -25663716.538 9 -19435195.08148  20485002.708    20485009.0044
  22807746.870   -15338796.463 8 -11940442.17246  22807746.416    22807755.5404
  24368332.579    -5978502.630 7  -4641330.12645  24368332.345    24368343.1674
  23288105.266    -7567018.908 8  -5857806.07546  23288104.661    23288116.6884
 01  5 27  0 50 30.0000000  0  8 03 21 29 25 14 11 18 31
  24139734.183    -5306032.601 8  -4109236.24345  24139733.879    24139751.5844
  21445196.232   -20866399.209 9 -16236545.89147  21445195.700    21445204.2454
  20319211.704   -24862247.499 9 -18567399.44448  20319211.572    20319218.5344
  22419495.374   -16994412.837 8 -12781691.39246  22419495.157    22419506.3464
  20491838.758   -25627795.370 9 -19407204.55648  20491838.266    20491844.5604
  22791421.172   -15424588.246 8 -12007292.86746  22791420.738    22791429.8774
  24382758.498    -5902694.344 8  -4582258.84245  24382758.217    24382769.2834
  23300404.600    -7502385.321 8  -5807442.37046  23300404.045    23300416.0404
 01  5 27  0 51  0.0000000  0  8 03 21 29 25 14 11 18 31
  24156637.421    -5217205.977 8  -4040021.02645  24156637.157    24156654.9064
  21450574.473   -20838136.350 9 -16214522.89947  21450573.947    21450582.4694
  20322578.201   -24844556.523 9 -18553614.25148  20322578.072    20322585.0064
  22403287.753   -17079583.794 8 -12848058.17446  22403287.537    22403298.6224
  20498746.463   -25591494.868 9 -19378918.44148  20498745.994    20498752.3084
  22775147.494   -15510106.897 8 -12073930.72346  22775147.034    22775156.1774
  24397198.132    -5826814.001 7  -4523131.43845  24397197.742    24397208.8294
  23312762.750    -7437442.704 8  -5756837.88446  23312762.231    23312774.3504
 01  5 27  0 51 30.0000000  0  8 03 21 29 25 14 11 18 31
  24173542.879    -5128368.669 7  -3970797.46445  24173542.466    24173560.5104
  21455990.125   -20809676.869 9 -16192346.70547  21455989.608    21455998.0984
  20326015.089   -24826495.475 9 -18539540.68748  20326014.953    20326021.8614
  22387129.951   -17164492.889 8 -12914220.91746  22387129.753    22387140.7524
  20505726.038   -25554816.665 9 -19350338.01348  20505725.582    20505731.9074
  22758926.226   -15595349.888 8 -12140353.77046  22758925.803    22758934.8764
  24411651.582    -5750861.349 7  -4463947.68945  24411651.126    24411662.1004
  23325179.279    -7372194.123 8  -5705994.96746  23325178.814    23325190.9394
 01  5 27  0 52  0.0000000  0  8 03 21 29 25 14 11 18 31
  24190449.685    -5039524.248 8  -3901568.37145  24190449.240    24190467.3794
  21461443.103   -20781021.142 9 -16170017.58947  21461442.593    21461451.0974
  20329522.058   -24808066.332 9 -18525180.30148  20329521.915    20329528.8044
  22371022.402   -17249137.725 8 -12980177.73946  22371022.184    22371033.1354
  20512777.051   -25517763.119 9 -19321465.11848  20512776.600    20512782.9534
  22742757.791   -15680315.251 8 -12206560.49246  22742757.397    22742766.4914
  24426118.731    -5674836.879 7  -4404707.95145  24426118.300    24426129.1764
  23337653.481    -7306643.269 8  -5654916.51446  23337652.929    23337665.0924
 01  5 27  0 52 30.0000000  0  8 03 21 29 25 14 11 18 31
  24207357.426    -4950674.917 8  -3832335.45645  24207357.095    24207375.2854
  21466933.803   -20752167.534 9 -16147534.27647  21466933.301    21466941.7894
  20333098.868   -24789269.939 9 -18510533.74048  20333098.709    20333105.6264
  22354965.734   -17333515.243 8 -13045926.26846  22354965.540    22354976.4784
  20519899.239   -25480335.641 9 -19292300.84148  20519898.810    20519905.1654
  22726642.847   -15764999.886 8 -12272548.46546  22726642.423    22726651.5374
  24440599.688    -5598739.978 7  -4345411.76645  24440599.125    24440610.1324
  23350184.690    -7240792.005 8  -5603603.99046  23350184.143    23350196.3764
 01  5 27  0 53  0.0000000  0  8 03 21 29 25 14 11 18 31
  24224265.768    -4861822.158 8  -3763099.89445  24224265.460    24224283.8654
  21472462.558   -20723114.100 9 -16124895.25947  21472462.034    21472470.4984
  20336745.529   -24770106.399 9 -18495601.09248  20336745.384    20336752.3044
  22338960.612   -17417621.713 8 -13111463.58947  22338960.450    22338971.3594
  20527092.444   -25442534.962 9 -19262845.76248  20527092.000    20527098.3774
  22710582.019   -15849400.133 8 -12338314.83446  22710581.611    22710590.6624
  24455094.495    -5522569.437 7  -4286058.18945  24455094.001    24455104.8664
  23362772.715    -7174642.101 8  -5552058.75546  23362772.209    23362784.4724
 01  5 27  0 53 30.0000000  0  8 03 21 29 25 14 11 18 31
  24241173.565    -4772972.831 7  -3693866.99845  24241173.144    24241191.7204
  21478028.653   -20693864.340 9 -16102103.26047  21478028.091    21478036.5884
  20340461.030   -24750581.322 9 -18480386.72948  20340460.882    20340467.8404
  22323006.926   -17501458.067 8 -13176790.43347  22323006.745    22323017.6464
  20534355.637   -25404366.714 9 -19233104.27048  20534355.172    20534361.5464
  22694575.030   -15933517.393 8 -12403860.69746  22694574.613    22694583.6164
  24469602.565    -5446328.907 7  -4226650.10045  24469602.107    24469612.8144
  23375416.341    -7108200.444 8  -5500286.18446  23375415.756    23375428.1294
 01  5 27  0 54  0.0000000  0  8 03 21 29 25 14 11 18 31
  24258080.902    -4684125.398 7  -3624635.57045  24258080.529    24258099.1274
  21483632.876   -20664413.638 9 -16079154.67247  21483632.321    21483640.8734
  20344245.850   -24730691.845 9 -18464888.41848  20344245.712    20344252.6844
  22307105.878   -17585017.849 8 -13241901.76247  22307105.682    22307116.5844
  20541689.182   -25365828.657 9 -19203074.61648  20541688.735    20541695.0844
  22678623.110   -16017345.060 8 -12469180.89646  22678622.707    22678631.6804
  24484124.656    -5370014.389 7  -4167184.34345  24484124.173    24484134.8174
  23388115.612    -7041465.678 8  -5448285.21946  23388115.015    23388127.4934
 01  5 27  0 54 30.0000000  0  8 03 21 29 25 14 11 18 31
  24274987.222    -4595283.595 7  -3555408.53045  24274986.906    24275005.3154
  21489275.385   -20634761.641 9 -16056049.24047  21489274.904    21489283.4734
  20348099.546   -24710440.394 9 -18449108.05348  20348099.404    20348106.3884
  22291257.911   -17668298.643 8 -13306795.70847  22291257.774    22291268.6514
  20549092.584   -25326923.470 9 -19172758.88748  20549092.140    20549098.4804
  22662726.594   -16100881.475 8 -12534274.13746  22662726.191    22662735.1404
  24498660.858    -5293626.560 7  -4107661.44545  24498660.430    24498671.0734
  23400869.855    -6974441.497 8  -5396058.73146  23400869.315    23400881.8884
 01  5 27  0 55  0.0000000  0  8 03 21 29 25 14 11 18 31
  24291891.504    -4506451.865 7  -3486189.32645  24291891.164    24291909.9084
  21494956.103   -20604909.645 9 -16032787.96647  21494955.611    21494964.1064
  20352021.564   -24689829.995 9 -18433047.98448  20352021.439    20352028.3894
  22275463.240   -17751299.500 8 -13371471.51647  22275463.088    22275473.9204
  20556565.204   -25287654.658 9 -19142159.81648  20556564.766    20556571.1034
  22646885.659   -16184125.758 8 -12599139.74646  22646885.217    22646894.1894
  24513210.704    -5217166.917 7  -4048082.59945  24513210.248    24513221.2364
  23413678.362    -6907132.501 8  -5343610.31046  23413677.848    23413690.4424
 01  5 27  0 55 30.0000000  0  8 03 21 29 25 14 11 18 31
  24308793.910    -4417630.448 8  -3416978.18945  24308793.552    24308812.4204
  21500675.562   -20574854.208 9 -16009368.16847  21500675.072    21500683.4664
  20356012.135   -24668859.494 9 -18416707.31748  20356012.006    20356018.9474
  22259722.749   -17834015.514 8 -13435925.37247  22259722.625    22259733.4464
  20564107.106   -25248021.523 9 -19111276.85848  20564106.655    20564113.0394
  22631101.305   -16267072.607 8 -12663773.58246  22631100.885    22631109.8534
  24527774.658    -5140632.935 7  -3988445.82245  24527774.275    24527785.4074
  23426541.157    -6839539.025 8  -5290940.21146  23426540.553    23426553.1974
 01  5 27  0 56  0.0000000  0  8 03 21 29 25 14 11 18 31
  24325692.879    -4328827.227 8  -3347781.20545  24325692.533    24325711.3334
  21506432.752   -20544600.376 9 -15985793.77647  21506432.227    21506440.6164
  20360069.851   -24647535.898 9 -18400091.51648  20360069.687    20360076.6674
  22244035.996   -17916449.302 8 -13500159.31547  22244035.865    22244046.6854
  20571716.930   -25208031.347 9 -19080115.68548  20571716.497    20571722.8914
  22615372.958   -16349725.127 8 -12728178.05946  22615372.514    22615381.4764
  24542351.799    -5064030.185 7  -3928755.45745  24542351.504    24542362.5534
  23439456.448    -6771669.313 8  -5238054.88846  23439455.822    23439468.5514
 01  5 27  0 56 30.0000000  0  8 03 21 29 25 14 11 18 31
  24342588.868    -4240038.827 7  -3278595.75145  24342588.577    24342607.4934
  21512228.883   -20514141.482 9 -15962059.59647  21512228.374    21512236.7934
  20364195.600   -24625854.616 9 -18383196.99748  20364195.461    20364202.4444
  22228404.541   -17998592.264 8 -13564166.64047  22228404.386    22228415.2034
  20579395.485   -25167680.067 9 -19048673.13148  20579395.071    20579401.4584
  22599702.274   -16432074.850 8 -12792346.59546  22599701.842    22599710.7674
  24556943.060    -4987352.265 7  -3869006.52145  24556942.843    24556953.8644
  23452424.797    -6703520.476 8  -5184952.05046  23452424.254    23452436.9354
 01  5 27  0 57  0.0000000  0  8 03 21 29 25 14 11 18 31
  24359480.800    -4151271.916 7  -3209427.08045  24359480.542    24359499.6504
  21518063.499   -20483480.350 9 -15938167.83647  21518063.005    21518071.4404
  20368388.478   -24603820.791 9 -18366027.77448  20368388.328    20368395.2844
  22212828.214   -18080445.383 8 -13627948.12447  22212828.089    22212838.9224
  20587141.758   -25126973.152 9 -19016953.46448  20587141.329    20587147.7244
  22584088.951   -16514122.671 8 -12856279.86446  22584088.591    22584097.4824
  24571547.945    -4910602.793 7  -3809201.82545  24571547.662    24571558.8484
  23465445.083    -6635098.981 8  -5131636.73046  23465444.540    23465457.1304
 01  5 27  0 57 30.0000000  0  8 03 21 29 25 14 11 18 31
  24376368.898    -4062525.544 7  -3140274.37945  24376368.631    24376387.6994
  21523937.442   -20452612.633 9 -15914115.10047  21523936.948    21523945.3964
  20372648.873   -24581432.359 9 -18348582.23448  20372648.719    20372655.6484
  22197308.210   -18162002.481 8 -13691498.93447  22197308.084    22197318.9354
  20594956.002   -25085908.957 9 -18984955.39648  20594955.569    20594962.0034
  22568534.168   -16595862.783 8 -12919973.36746  22568533.839    22568542.7724
  24586167.245    -4833777.996 7  -3749338.40245  24586166.982    24586178.2074
  23478517.431    -6566404.277 8  -5078108.52746  23478516.861    23478529.4504
 01  5 27  0 58  0.0000000  0  8 03 21 29 25 14 11 18 31
  24393251.405    -3973808.133 7  -3071144.25845  24393251.153    24393270.4164
  21529849.655   -20421543.850 9 -15889905.68547  21529849.156    21529857.6514
  20376975.315   -24558696.611 9 -18330866.05948  20376975.154    20376982.1244
  22181843.958   -18243266.685 8 -13754821.52047  22181843.829    22181854.6964
  20602836.745   -25044495.316 9 -18952685.02748  20602836.343    20602842.8074
  22553037.317   -16677298.379 8 -12983429.57346  22553036.958    22553046.0234
  24600799.440    -4756883.901 7  -3689421.02745  24600799.331    24600810.7054
  23491639.958    -6497444.945 8  -5024374.11046  23491639.426    23491652.2164
 01  5 27  0 58 30.0000000  0  8 03 21 29 25 14 11 18 31
  24410128.822    -3885117.172 7  -3002034.72645  24410128.708    24410147.9874
  21535801.295   -20390267.792 9 -15865534.75747  21535800.805    21535809.3454
  20381368.610   -24535609.501 9 -18312876.10048  20381368.462    20381375.4744
  22166437.023   -18324229.931 8 -13817909.59547  22166436.896    22166447.7284
  20610784.717   -25002728.409 9 -18920139.39148  20610784.311    20610790.7644
  22537599.932   -16758421.692 8 -13046642.45346  22537599.575    22537608.6984
  24615446.107    -4679915.058 7  -3629445.35945  24615445.892    24615457.2274
  23504813.361    -6428218.418 8  -4970431.52445  23504812.836    23504825.8724
 01  5 27  0 59  0.0000000  0  8 03 21 29 25 14 11 18 31
  24427000.550    -3796456.549 7  -2932948.83745  24427000.479    24427019.8664
  21541792.320   -20358784.972 9 -15841002.71947  21541791.808    21541800.3874
  20385828.247   -24512173.830 9 -18294614.53648  20385828.125    20385835.1574
  22151087.656   -18404890.797 8 -13880762.05447  22151087.501    22151098.2834
  20618799.349   -24960611.452 9 -18887320.98748  20618798.932    20618805.3364
  22522222.318   -16839231.304 8 -13109610.89346  22522221.980    22522231.1274
  24630106.823    -4602872.389 7  -3569412.19745  24630106.522    24630118.0094
  23518036.802    -6358728.947 8  -4916284.02146  23518036.322    23518049.5874
 01  5 27  0 59 30.0000000  0  8 03 21 29 25 14 11 18 31
  24443865.178    -3707833.789 8  -2863892.46845  24443865.073    24443884.6364
  21547821.852   -20327099.412 9 -15816312.69647  21547821.364    21547829.9464
  20390352.966   -24488396.093 9 -18276086.42648  20390352.852    20390359.8604
  22135795.392   -18485251.620 8 -13943380.71547  22135795.228    22135805.9314
  20626879.282   -24918151.338 9 -18854235.18848  20626878.869    20626885.2454
  22506903.999   -16919729.622 8 -13172336.75446  22506903.595    22506912.7584
  24644780.699    -4525760.929 7  -3509325.43145  24644780.353    24644791.5834
  23531308.982    -6288984.174 8  -4861937.58946  23531308.464    23531321.7944
 01  5 27  1  0  0.0000000  0  8 03 21 29 25 14 11 18 31
  24460723.157    -3619245.646 8  -2794863.04945  24460723.242    24460742.6684
  21553891.236   -20295204.786 9 -15791459.77247  21553890.752    21553899.2924
  20394943.702   -24464271.627 9 -18257288.13748  20394943.585    20394950.5644
  22120561.802   -18565303.859 8 -14005758.92147  22120561.644    22120572.3314
  20635025.307   -24875343.753 9 -18820878.62848  20635024.880    20635031.2604
  22491646.497   -16999907.990 8 -13234813.31846  22491646.137    22491655.2794
  24659468.972    -4448574.331 7  -3449180.09845  24659468.565    24659480.1024
  23544630.367    -6218981.066 8  -4807389.86846  23544629.792    23544643.1174
 01  5 27  1  0 30.0000000  0  8 03 21 29 25 14 11 18 31
  24477573.787    -3530696.956 8  -2725864.37145  24477573.758    24477593.4094
  21560000.263   -20263102.320 9 -15766444.88447  21559999.733    21560008.2194
  20399599.674   -24439804.123 9 -18238222.54148  20399599.551    20399606.5494
  22105387.034   -18645046.847 8 -14067896.15647  22105386.889    22105397.5494
  20643236.681   -24832192.705 9 -18787254.42648  20643236.235    20643242.6424
  22476449.981   -17079766.088 8 -13297040.30646  22476449.588    22476458.6924
  24674171.054    -4371314.577 7  -3388977.77445  24674170.746    24674182.4324
  23557999.852    -6148724.826 8  -4752644.89546  23557999.276    23558012.5734
 01  5 27  1  1  0.0000000  0  7 03 21 29 25 14 11 31
  24494415.946    -3442193.363 8  -2656900.83145  24494415.778    24494435.4804
  21566148.238   -20230794.341 9 -15741269.86547  21566147.707    21566156.2534
  20404320.123   -24414997.997 9 -18218893.09348  20404320.003    20404327.0234
  22090271.061   -18724481.044 8 -14129792.77747  22090270.944    22090281.5314
  20651512.424   -24788703.255 9 -18753366.54148  20651511.996    20651518.4054
  22461314.295   -17159304.635 8 -13359018.31546  22461313.886    22461322.9104
  23571416.344    -6078221.388 8  -4697707.31646  23571415.778    23571429.1484
 01  5 27  1  1 30.0000000  0  7 03 21 29 25 14 11 31
  24511249.691    -3353733.545 7  -2587971.41145  24511249.594    24511269.1114
  21572336.262   -20198275.938 9 -15715930.87047  21572335.773    21572344.3644
  20409105.404   -24389851.158 9 -18199298.14948  20409105.290    20409112.2974
  22075215.147   -18803600.098 9 -14191443.83247  22075215.047    22075225.5144
  20659852.960   -24744873.528 9 -18719213.49948  20659852.522    20659858.9034
  22446240.717   -17238517.174 8 -13420742.27946  22446240.251    22446249.1934
  23584880.140    -6007469.677 8  -4642576.26846  23584879.527    23584892.8744
 01  5 27  1  2  0.0000000  0  7 03 21 29 25 14 11 31
  24528074.417    -3265319.958 7  -2519078.02245  24528074.377    24528094.0834
  21578564.484   -20165546.845 9 -15690427.70947  21578563.971    21578572.5814
  20413955.314   -24364364.834 9 -18179438.66848  20413955.213    20413962.1804
  22060219.682   -18882401.471 8 -14252847.33847  22060219.558    22060229.9444
  20668257.941   -24700705.273 9 -18684796.66848  20668257.483    20668263.8884
  22431229.553   -17317401.127 8 -13482210.21746  22431229.084    22431237.9564
  23598390.520    -5936472.677 8  -4587254.09646  23598389.934    23598403.3204
 01  5 27  1  2 30.0000000  0  7 03 21 29 25 14 11 31
  24544888.965    -3176959.704 7  -2450226.20345  24544888.886    24544908.9124
  21584832.142   -20132610.316 9 -15664762.90047  21584831.652    21584840.2474
  20418868.750   -24338544.615 9 -18159319.00648  20418868.631    20418875.5984
  22045284.495   -18960886.052 8 -14314003.99647  22045284.377    22045294.6724
  20676726.218   -24656204.229 9 -18650120.52148  20676725.801    20676732.1904
  22416280.627   -17395958.027 8 -13543423.31446  22416280.152    22416289.0004
  23611946.172    -5865237.302 8  -4531746.16846  23611945.580    23611959.1624
 01  5 27  1  3  0.0000000  0  7 03 21 29 25 14 11 31
  24561693.927    -3088649.750 8  -2381413.53545  24561693.912    24561713.9094
  21591140.355   -20099460.413 9 -15638931.82847  21591139.865    21591148.4784
  20423846.445   -24312386.756 9 -18138936.24748  20423846.305    20423853.2944
  22030411.020   -19039046.335 8 -14374907.94747  22030410.894    22030421.1174
  20685258.467   -24611366.977 9 -18615182.40248  20685258.034    20685264.4054
  22401395.327   -17474179.946 8 -13604375.38346  22401394.917    22401403.7314
  23625547.645    -5793761.173 8  -4476050.64946  23625547.114    23625560.7754
 01  5 27  1  3 30.0000000  0  7 03 21 29 25 14 11 31
  24578488.110    -3000397.028 8  -2312645.50745  24578488.007    24578508.1764
  21597488.457   -20066100.830 9 -15612937.36347  21597487.940    21597496.5704
  20428887.258   -24285896.927 9 -18118294.81548  20428887.126    20428894.1614
  22015598.988   -19116883.870 9 -14435560.41047  22015598.808    22015608.9494
  20693853.535   -24566199.805 9 -18579987.20348  20693853.084    20693859.4244
  22386573.508   -17552068.708 8 -13665067.86646  22386573.108    22386581.9154
  23639193.781    -5722051.505 8  -4420173.15646  23639193.197    23639206.8174
 01  5 27  1  4  0.0000000  0  7 03 21 29 25 14 11 31
  24595271.307    -2912202.141 7  -2243922.47645  24595271.158    24595291.3114
  21603876.935   -20032528.933 9 -15586777.46347  21603876.458    21603885.0754
  20433991.361   -24259074.654 9 -18097394.33248  20433991.232    20433998.2564
  22000849.182   -19194393.901 8 -14495957.67147  22000849.009    22000859.0874
  20702511.313   -24520702.578 9 -18544534.81548  20702510.870    20702517.2384
  22371815.960   -17629619.560 8 -13725497.03846  22371815.604    22371824.3664
  23652884.216    -5650109.024 8  -4364114.25246  23652883.529    23652897.1104
 01  5 27  1  4 30.0000000  0  7 03 21 29 25 14 11 31
  24612042.782    -2824068.411 7  -2175247.12145  24612042.627    24612062.8844
  21610305.994   -19998744.275 9 -15560451.77647  21610305.487    21610314.0904
  20439158.313   -24231922.014 9 -18076236.42248  20439158.165    20439165.2034
  21986161.953   -19271575.000 9 -14556098.63247  21986161.777    21986171.8494
  20711231.474   -24474877.755 9 -18508827.15548  20711231.043    20711237.4574
  22357123.055   -17706831.080 8 -13785661.79546  22357122.706    22357131.4394
  23666618.016    -5577937.493 8  -4307876.87146  23666617.441    23666631.0514
 01  5 27  1  5  0.0000000  0  7 03 21 29 25 14 11 31
  24628802.238    -2735997.766 7  -2106620.93045  24628802.094    24628822.4284
  21616775.663   -19964745.826 9 -15533959.50047  21616775.158    21616783.8164
  20444387.883   -24204440.187 9 -18054822.00648  20444387.755    20444394.7944
  21971537.878   -19348424.067 9 -14615980.85947  21971537.701    21971547.8054
  20720013.713   -24428726.618 9 -18472865.22948  20720013.273    20720019.7314
  22342495.383   -17783700.025 8 -13845559.62347  22342495.013    22342503.7184
  23680395.135    -5505539.436 8  -4251462.96346  23680394.554    23680408.0394
 01  5 27  1  5 30.0000000  0  7 03 21 29 25 14 11 31
  24645548.475    -2647995.890 7  -2038048.26045  24645548.242    24645568.9304
  21623285.491   -19930536.434 9 -15507302.86147  21623285.001    21623293.6934
  20449679.257   -24176633.826 9 -18033154.70048  20449679.152    20449686.1644
  21956976.871   -19424941.602 8 -14675604.75047  21956976.712    21956986.8834
  20728857.030   -24382254.496 9 -18436653.18348  20728856.591    20728863.0864
  22327932.742   -17860227.201 8 -13905191.13847  22327932.324    22327940.9984
  23694214.346    -5432920.899 8  -4194877.27246  23694213.697    23694227.0404
 01  5 27  1  6  0.0000000  0  7 03 21 29 25 14 11 31
  24662282.351    -2560059.967 7  -1969527.03545  24662282.167    24662302.9114
  21629836.869   -19896109.104 9 -15480476.39947  21629836.346    21629845.0204
  20455033.172   -24148498.872 9 -18011231.35248  20455033.045    20455040.0594
  21942480.505   -19501119.608 9 -14734964.09047  21942480.357    21942490.5794
  20737762.187   -24335457.609 9 -18400188.08048  20737761.766    20737768.2314
  22313436.722   -17936404.468 8 -13964549.98647  22313436.280    22313444.8944
  23708075.826    -5360079.276 8  -4138117.73846  23708075.231    23708088.4324
 01  5 27  1  6 30.0000000  0  7 03 21 29 25 14 11 31
  24679002.066    -2472198.397 7  -1901063.70745  24679001.872    24679022.6244
  21636428.635   -19861469.227 9 -15453484.31547  21636428.112    21636436.7854
  20460448.136   -24120042.839 9 -17989057.81248  20460448.027    20460455.0544
  21928048.194   -19576961.201 9 -14794061.28047  21928048.038    21928058.2944
  20746727.716   -24288343.736 9 -18363475.97648  20746727.270    20746733.6554
  22299006.584   -18012235.267 8 -14023638.87647  22299006.159    22299014.7254
  23721978.147    -5287023.400 8  -4081191.25846  23721977.606    23721990.6114
 01  5 27  1  7  0.0000000  0  7 03 21 29 25 14 11 31
  24695707.639    -2384411.079 7  -1832658.24845  24695707.437    24695728.3534
  21643061.421   -19826613.718 9 -15426324.19647  21643060.901    21643069.5544
  20465924.488   -24091264.415 9 -17966633.05248  20465924.385    20465931.3924
  21913680.944   -19652461.124 9 -14852892.23947  21913680.805    21913691.0384
  20755753.676   -24240912.116 9 -18326516.27348  20755753.191    20755759.5544
  22284643.294   -18087714.319 8 -14082453.67047  22284642.913    22284651.4384
  23735921.135    -5213753.390 8  -4024097.90846  23735920.544    23735933.7064
 01  5 27  1  7 30.0000000  0  7 03 21 29 25 14 11 31
  24712398.780    -2296699.793 7  -1764312.02845  24712398.682    24712419.5604
  21649735.616   -19791541.018 9 -15398994.84947  21649735.080    21649743.6584
  20471462.077   -24062164.268 9 -17943957.60248  20471461.962    20471468.9894
  21899379.348   -19727615.747 9 -14911454.13347  21899379.235    21899389.4234
  20764839.816   -24193163.734 9 -18289309.74948  20764839.371    20764845.7544
  22270347.670   -18162838.170 8 -14140991.69346  22270347.249    22270355.7354
  23749904.283    -5140271.445 8  -3966839.42545  23749903.723    23749917.1034
 01  5 27  1  8  0.0000000  0  7 03 21 29 25 14 11 31
  24729074.722    -2209069.501 7  -1696028.91445  24729074.428    24729095.3504
  21656450.737   -19756253.087 9 -15371497.78447  21656450.191    21656458.7664
  20477060.076   -24032746.489 9 -17921034.64848  20477059.976    20477067.0074
  21885143.391   -19802425.856 9 -14969747.58347  21885143.281    21885153.3814
  20773985.435   -24145103.020 9 -18251859.85048  20773985.009    20773991.4314
  22256119.587   -18237606.935 8 -14199253.02846  22256119.179    22256127.6514
  23763926.717    -5066582.992 8  -3909420.02445  23763926.076    23763939.6244
 01  5 27  1  8 30.0000000  0  7 03 21 29 25 14 11 31
  24745734.585    -2121521.712 7  -1627810.13045  24745734.265    24745755.4564
  21663207.124   -19720747.734 8 -15343831.29947  21663206.574    21663215.2804
  20482718.424   -24003011.810 9 -17897864.75548  20482718.329    20482725.3014
  21870973.679   -19876887.877 9 -15027769.79247  21870973.540    21870983.5454
  20783190.377   -24096730.905 9 -18214167.30348  20783189.937    20783196.4004
  22241959.614   -18312017.260 8 -14257235.05246  22241959.232    22241967.7434
  23777988.178    -4992689.965 8  -3851841.21445  23777987.542    23778001.1674
 01  5 27  1  9  0.0000000  0  6 21 29 25 14 11 31
  21670008.345   -19685006.277 9 -15315980.84247  21670007.876    21670016.6904
  20488440.269   -23972943.500 9 -17874434.89448  20488440.148    20488447.0664
  21856874.189   -19950980.816 9 -15085504.40947  21856874.041    21856883.9814
  20792457.602   -24048031.299 9 -18176219.56948  20792457.141    20792463.6704
  22227871.822   -18386048.514 8 -14314921.69347  22227871.445    22227880.0644
  23792091.383    -4918577.430 8  -3794091.35445  23792090.768    23792104.4414
 01  5 27  1  9 30.0000000  0  6 21 29 25 14 11 31
  21676850.684   -19649049.848 9 -15287962.88147  21676850.199    21676859.0184
  20494221.215   -23942564.426 9 -17850762.87948  20494221.086    20494228.0374
  21842841.228   -20024723.813 9 -15142966.34147  21842841.136    21842850.9714
  20801782.703   -23999027.363 9 -18138034.69448  20801782.256    20801788.8394
  22213852.578   -18459719.784 8 -14372327.82347  22213852.190    22213860.8894
  23806231.697    -4844269.678 8  -3736189.40545  23806231.099    23806244.8654
 01  5 27  1 10  0.0000000  0  6 21 29 25 14 11 31
  21683733.489   -19612881.093 9 -15259779.48047  21683732.964    21683741.7244
  20500060.232   -23911879.863 9 -17826852.82348  20500060.114    20500067.0774
  21828874.750   -20098117.692 9 -15200156.24447  21828874.625    21828884.3604
  20811164.725   -23949724.533 9 -18099616.91948  20811164.291    20811170.8494
  22199901.627   -18533032.363 8 -14429454.44147  22199901.239    22199909.9554
  23820407.976    -4769773.121 8  -3678140.32845  23820407.394    23820421.2874
 01  5 27  1 10 30.0000000  0  6 21 29 25 14 11 31
  21690657.486   -19576495.089 8 -15231426.78447  21690656.971    21690665.8004
  20505957.877   -23880887.291 9 -17802702.76448  20505957.761    20505964.7284
  21814975.947   -20171156.255 9 -15257069.27047  21814975.777    21814985.4454
  20820604.010   -23900120.729 9 -18060964.62048  20820603.576    20820610.1314
  22186020.187   -18605979.350 8 -14486296.19947  22186019.828    22186028.5584
  23834620.426    -4695086.629 8  -3619943.22045  23834619.806    23834633.7774
 01  5 27  1 11  0.0000000  0  6 21 29 25 14 11 31
  21697623.228   -19539889.845 8 -15202903.25747  21697622.738    21697631.5604
  20511914.212   -23849586.563 9 -17778312.58248  20511914.097    20511921.0874
  21801145.398   -20243835.761 9 -15313702.51147  21801145.192    21801154.8224
  20830100.552   -23850216.133 9 -18022077.93348  20830100.092    20830106.6324
  22172209.162   -18678556.723 8 -14542849.93047  22172208.799    22172217.4944
  23848868.685    -4620211.738 8  -3561599.33445  23848868.072    23848882.1184
 01  5 27  1 11 30.0000000  0  6 21 29 25 14 11 31
  21704630.649   -19503066.098 9 -15174209.47147  21704630.147    21704638.9274
  20517928.603   -23817980.760 9 -17753684.67748  20517928.474    20517935.4874
  21787383.500   -20316154.560 9 -15370054.69047  21787383.279    21787392.8574
  20839653.684   -23800013.994 9 -17982959.39648  20839653.248    20839659.7644
  22158468.704   -18750763.429 8 -14599114.83347  22158468.301    22158476.9584
  23863152.108    -4545152.755 8  -3503111.99545  23863151.494    23863165.5924
 01  5 27  1 12  0.0000000  0  6 21 29 25 14 11 31
  21711680.272   -19466020.032 8 -15145342.45147  21711679.777    21711688.5724
  20524001.353   -23786068.002 9 -17728817.58748  20524001.230    20524008.3154
  21773691.224   -20388107.370 9 -15426121.68847  21773691.018    21773700.5244
  20849263.755   -23749512.973 9 -17943607.95948  20849263.315    20849269.8354
  22144799.750   -18822593.764 8 -14655086.45547  22144799.375    22144808.0044
  23877470.606    -4469909.576 8  -3444481.14045  23877470.061    23877484.0274
 01  5 27  1 12 30.0000000  0  6 21 29 25 14 11 31
  21718771.975   -19428752.860 8 -15116303.13647  21718771.497    21718780.3144
  20530131.819   -23753852.210 9 -17703714.37248  20530131.706    20530138.7764
  21760068.685   -20459693.666 9 -15481903.08747  21760068.469    21760077.9434
  20858929.875   -23698716.992 9 -17904026.68148  20858929.454    20858936.0114
  22131202.490   -18894047.415 8 -14710764.55447  22131202.158    22131210.7704
  23891823.295    -4394487.129 8  -3385710.59245  23891822.625    23891836.6674
 01  5 27  1 13  0.0000000  0  6 21 29 25 14 11 31
  21725906.244   -19391262.264 9 -15087089.72547  21725905.758    21725914.5544
  20536320.036   -23721333.183 9 -17678374.87248  20536319.911    20536326.9524
  21746516.696   -20530909.115 9 -15537395.51747  21746516.510    21746525.9984
  20868652.056   -23647626.620 9 -17864216.01348  20868651.623    20868658.2244
  22117677.746   -18965120.271 8 -14766145.93847  22117677.421    22117685.9414
  23906209.790    -4318886.505 8  -3326801.20445  23906209.175    23906223.2914
 01  5 27  1 13 30.0000000  0  6 21 29 25 14 11 31
  21733082.897   -19353549.080 8 -15057702.87447  21733082.390    21733091.1774
  20542565.333   -23688513.762 9 -17652801.29748  20542565.208    20542572.2294
  21733035.328   -20601753.387 9 -15592598.71947  21733035.153    21733044.6654
  20878429.679   -23596244.962 9 -17824178.36648  20878429.244    20878435.8584
  22104225.664   -19035811.380 9 -14821229.84847  22104225.323    22104233.7924
  23920629.298    -4243112.030 8  -3267756.33945  23920628.723    23920642.9544
 01  5 27  1 14  0.0000000  0  6 21 29 25 14 11 31
  21740301.935   -19315612.660 8 -15028142.07647  21740301.453    21740310.2594
  20548867.439   -23655395.870 9 -17626995.14948  20548867.315    20548874.3084
  21719625.042   -20672224.071 9 -15647510.81247  21719624.887    21719634.3974
  20888262.282   -23544574.275 9 -17783915.49848  20888261.867    20888268.4654
  22090846.611   -19106118.686 8 -14876014.69147  22090846.235    22090854.7194
  23935081.251    -4167166.996 8  -3208578.59145  23935080.588    23935095.0544
 01  5 27  1 14 30.0000000  0  6 21 29 25 14 11 31
  21747564.214   -19277449.108 8 -14998404.29847  21747563.735    21747572.5514
  20555226.701   -23621977.567 9 -17600954.92048  20555226.593    20555233.5334
  21706286.996   -20742315.395 9 -15702127.31247  21706286.851    21706296.3324
  20898150.253   -23492612.843 9 -17743426.08048  20898149.832    20898156.4104
  22077541.663   -19176036.407 8 -14930495.97447  22077541.276    22077549.8174
  23949565.729    -4091051.061 8  -3149267.65445  23949565.170    23949579.6554
 01  5 27  1 15  0.0000000  0  6 21 29 25 14 11 31
  21754868.866   -19239063.070 8 -14968493.14847  21754868.388    21754877.1924
  20561641.842   -23588265.820 9 -17574686.02848  20561641.722    20561648.6274
  21693020.540   -20812030.590 9 -15756450.71647  21693020.405    21693029.8404
  20908092.131   -23440368.010 9 -17702715.82048  20908091.679    20908098.2554
  22064310.189   -19245567.486 8 -14984675.97547  22064309.846    22064318.4854
  23964081.291    -4014772.626 8  -3089830.11745  23964080.642    23964095.1504
 01  5 27  1 15 30.0000000  0  6 21 29 25 14 11 31
  21762216.758   -19200450.178 8 -14938405.23047  21762216.231    21762225.0214
  20568113.294   -23554258.310 9 -17548186.67448  20568113.171    20568120.0584
  21679826.918   -20881363.291 9 -15810476.07647  21679826.738    21679836.1654
  20918088.276   -23387837.865 9 -17661783.24248  20918087.859    20918094.3964
  22051153.550   -19314705.515 8 -15038549.71247  22051153.225    22051161.9064
  23978627.849    -3938330.832 8  -3030265.27745  23978627.281    23978641.6584
 01  5 27  1 16  0.0000000  0  6 21 29 25 14 11 31
  21769607.490   -19161611.707 8 -14908141.52747  21769606.985    21769615.7884
  20574640.238   -23519958.994 9 -17521459.92748  20574640.123    20574647.0504
  21666706.077   -20950313.245 9 -15864203.19047  21666705.912    21666715.3324
  20928137.907   -23335026.534 9 -17620631.56148  20928137.482    20928144.0564
  22038071.765   -19383450.611 8 -15092117.26147  22038071.431    22038080.1064
  23993204.300    -3861731.021 8  -2970577.32545  23993203.781    23993218.2174
 01  5 27  1 16 30.0000000  0  6 21 29 25 14 11 31
  21777041.842   -19122544.294 8 -14877699.44147  21777041.318    21777050.1364
  20581222.964   -23485366.351 9 -17494504.62748  20581222.846    20581229.8304
  21653659.103   -21018875.215 9 -15917627.98947  21653658.914    21653668.3454
  20938241.307   -23281932.841 9 -17579259.86447  20938240.877    20938247.4664
  22025065.782   -19451797.345 8 -15145374.41247  22025065.445    22025074.0744
  24007811.021    -3784972.996 8  -2910766.05945  24007810.528    24007824.8324
 01  5 27  1 17  0.0000000  0  6 21 29 25 14 11 31
  21784519.084   -19083251.241 8 -14847081.52747  21784518.592    21784527.3904
  20587860.373   -23450486.400 9 -17467325.44248  20587860.271    20587867.2974
  21640685.464   -21087051.644 9 -15970752.36347  21640685.276    21640694.6904
  20948397.139   -23228563.225 9 -17537673.16147  20948396.707    20948403.3894
  22012135.224   -19519747.718 8 -15198322.71347  22012134.896    22012143.4504
  24022446.483    -3708064.293 8  -2850837.40845  24022446.007    24022460.3204
 01  5 27  1 17 30.0000000  0  6 21 29 25 14 11 31
  21792039.655   -19043730.352 8 -14816286.08647  21792039.185    21792048.0184
  20594552.492   -23415319.003 9 -17439922.27148  20594552.398    20594559.4254
  21627786.031   -21154838.118 9 -16023572.87947  21627785.856    21627795.2424
  20958605.487   -23174917.858 9 -17495871.58147  20958605.060    20958611.7874
  21999280.970   -19587297.615 8 -15250958.96647  21999280.575    21999289.0394
  24037110.302    -3631005.846 7  -2790792.06145  24037109.775    24037124.2654
 01  5 27  1 18  0.0000000  0  6 21 29 25 14 11 31
  21799604.267   -19003978.470 8 -14785310.65447  21799603.748    21799612.6144
  20601299.671   -23379862.696 9 -17412293.98848  20601299.547    20601306.5294
  21614961.765   -21222229.731 9 -16076085.71947  21614961.604    21614970.9184
  20968866.516   -23120995.538 9 -17453854.20147  20968866.136    20968872.9024
  21986503.853   -19654441.566 8 -15303278.89647  21986503.480    21986511.9144
  24051802.556    -3553797.562 7  -2730629.97445  24051802.104    24051816.7384
 01  5 27  1 18 30.0000000  0  6 21 29 25 14 11 31
  21807212.224   -18963998.567 8 -14754157.53647  21807211.701    21807220.6254
  20608100.733   -23344122.911 9 -17384444.80448  20608100.599    20608107.5654
  21602212.370   -21289227.868 9 -16128291.94847  21602212.190    21602221.4444
  20979179.229   -23066801.940 9 -17411625.42647  20979178.857    20979185.5994
  21973803.673   -19721181.222 9 -15355283.78747  21973803.303    21973811.7244
  24066522.107    -3476446.363 8  -2670356.54745  24066521.584    24066536.4484
 01  5 27  1 19  0.0000000  0  6 21 29 25 14 11 31
  21814863.701   -18923789.999 8 -14722826.23547  21814863.165    21814872.1434
  20614955.429   -23308101.167 9 -17356375.91348  20614955.294    20614962.2774
  21589538.275   -21355830.247 9 -16180189.79147  21589538.084    21589547.2894
  20989543.192   -23012339.046 9 -17369186.81947  20989542.802    20989549.4954
  21961180.935   -19787514.242 9 -15406971.81547  21961180.571    21961188.9984
  24081268.246    -3398955.268 8  -2609974.08745  24081267.775    24081282.7344
 01  5 27  1 19 30.0000000  0  6 21 29 25 14 11 31
  21822559.246   -18883349.795 8 -14691314.44347  21822558.697    21822567.7044
  20621863.859   -23271796.859 9 -17328086.84148  20621863.741    20621870.7934
  21576940.336   -21422032.320 9 -16231775.71147  21576940.145    21576949.3284
  20999958.503   -22957606.398 9 -17326538.01947  20999958.101    20999964.7394
  21948636.473   -19853435.856 9 -15458339.26347  21948636.105    21948644.5054
  24096041.073    -3321324.883 8  -2549483.09045  24096040.528    24096055.5654
 01  5 27  1 20  0.0000000  0  6 21 29 25 14 11 31
  21830298.282   -18842681.139 8 -14659624.63547  21830297.739    21830306.6914
  20628825.056   -23235215.335 9 -17299581.75348  20628824.932    20628832.0474
  21564418.242   -21487835.845 9 -16283051.07247  21564418.064    21564427.2154
  21010424.097   -22902609.652 9 -17283683.42247  21010423.686    21010430.2624
  21936169.961   -19918947.789 9 -15509387.46547  21936169.586    21936177.9764
  24110839.114    -3243562.049 8  -2488888.89045  24110838.553    24110853.5304
 01  5 27  1 20 30.0000000  0  6 21 29 25 14 11 31
  21838081.932   -18801778.146 8 -14627752.23247  21838081.410    21838090.2824
  20635839.729   -23198352.954 9 -17270857.81948  20635839.616    20635846.7314
  21551973.430   -21553233.378 9 -16334010.08147  21551973.260    21551982.3534
  21020940.522   -22847345.521 9 -17240620.47947  21020940.126    21020946.6774
  21923782.846   -19984042.422 9 -15560110.50247  21923782.451    21923790.8174
  24125662.705    -3165664.828 8  -2428189.99345  24125662.231    24125677.0114
 01  5 27  1 21  0.0000000  0  6 21 29 25 14 11 31
  21845909.269   -18760645.482 8 -14595700.85947  21845908.722    21845917.6094
  20642906.528   -23161216.671 9 -17241920.45348  20642906.403    20642913.5524
  21539605.208   -21618228.295 9 -16384655.35547  21539605.052    21539614.1034
  21031506.429   -22791821.260 9 -17197354.83147  21031506.031    21031512.6244
  21911474.563   -20048722.801 9 -15610510.73347  21911474.182    21911482.4994
  24140510.317    -3087641.399 8  -2367392.72845  24140509.833    24140524.5034
 01  5 27  1 21 30.0000000  0  6 21 29 25 14 11 31
  21853780.995   -18719279.218 8 -14563467.44947  21853780.453    21853789.4444
  20650025.760   -23123804.721 9 -17212768.28048  20650025.665    20650032.8214
  21527314.778   -21682814.762 9 -16434982.35547  21527314.610    21527323.6384
  21042122.109   -22736035.291 9 -17153885.24947  21042121.722    21042128.3584
  21899246.122   -20112983.380 9 -15660583.84147  21899245.758    21899254.0404
  24155381.972    -3009491.325 8  -2306496.79245  24155381.507    24155396.0604
 01  5 27  1 22  0.0000000  0  7 20 21 29 25 14 11 31
  24703596.242    -2862203.166 7  -2016976.66345  24703595.477    24703608.7974
  21861696.228   -18677684.019 8 -14531055.64947  21861695.723    21861704.8154
  20657196.219   -23086123.793 9 -17183406.52148  20657196.111    20657203.1954
  21515101.499   -21746995.933 9 -16484993.55147  21515101.315    21515110.2994
  21052786.259   -22679994.745 9 -17110217.30247  21052785.900    21052792.5614
  21887096.993   -20176826.970 8 -15710332.02747  21887096.629    21887104.8914
  24170276.075    -2931222.831 8  -2245508.57945  24170275.666    24170290.3594
 01  5 27  1 22 30.0000000  0  7 20 21 29 25 14 11 31
  24687563.840    -2946453.467 7  -2082626.04645  24687563.056    24687576.4504
  21869655.847   -18635855.883 8 -14498462.34147  21869655.362    21869664.5044
  20664418.251   -23048171.990 9 -17153833.68848  20664418.131    20664425.1394
  21502966.326   -21810766.226 9 -16534684.58247  21502966.137    21502975.1134
  21063499.212   -22623697.999 9 -17066349.71647  21063498.853    21063505.5454
  21875028.328   -20240247.627 9 -15759750.64547  21875027.964    21875036.2434
  24185192.859    -2852835.090 8  -2184427.44745  24185192.410    24185207.2274
 01  5 27  1 23  0.0000000  0  7 20 21 29 25 14 11 31
  24671526.435    -3030729.816 7  -2148295.72145  24671525.608    24671539.0454
  21877660.618   -18593790.802 8 -14465684.41347  21877660.161    21877669.2394
  20671692.128   -23009947.435 9 -17124048.31748  20671691.995    20671699.0094
  21490910.375   -21874119.923 9 -16584050.98747  21490910.203    21490919.1804
  21074261.222   -22567143.577 9 -17022281.34647  21074260.823    21074267.5334
  21863041.205   -20303239.870 9 -15808835.43147  21863040.832    21863049.1364
  24200132.418    -2774327.692 7  -2123253.08445  24200131.918    24200146.8844
 01  5 27  1 23 30.0000000  0  7 20 21 29 25 14 11 31
  24655483.882    -3115032.900 7  -2213986.23445  24655483.085    24655496.5324
  21885710.575   -18551488.470 8 -14432721.60747  21885710.098    21885719.1654
  20679017.445   -22971452.356 9 -17094052.14848  20679017.334    20679024.3964
  21478934.024   -21937055.596 9 -16633091.66647  21478933.874    21478942.8424
  21085071.725   -22510333.931 9 -16978014.10447  21085071.349    21085078.0324
  21851135.942   -20365802.019 9 -15857585.07847  21851135.574    21851143.8684
  24215094.050    -2695704.245 8  -2061988.30545  24215093.578    24215108.6854
 01  5 27  1 24  0.0000000  0  7 20 21 29 25 14 11 31
  24639436.116    -3199363.942 7  -2279698.54745  24639435.294    24639448.4724
  21893805.279   -18508950.468 8 -14399575.15547  21893804.844    21893813.9094
  20686393.595   -22932690.535 9 -17063848.13348  20686393.508    20686400.5614
  21467037.223   -21999573.260 9 -16681806.62547  21467037.060    21467046.0524
  21095930.059   -22453272.975 9 -16933551.03447  21095929.672    21095936.3504
  21839312.582   -20427934.071 9 -15905999.58747  21839312.199    21839320.4554
  24230076.836    -2616969.900 8  -2000637.11345  24230076.328    24230091.5684
 01  5 27  1 24 30.0000000  0  7 20 21 29 25 14 11 31
  24623383.192    -3283722.276 7  -2345432.09745  24623382.368    24623395.3264
  21901944.939   -18466176.363 8 -14366244.72647  21901944.529    21901953.5714
  20693820.285   -22893663.149 9 -17033437.18348  20693820.176    20693827.2134
  21455220.280   -22061670.900 9 -16730194.28747  21455220.150    21455229.1594
  21106835.864   -22395962.548 9 -16888893.56747  21106835.472    21106842.1174
  21827571.574   -20489633.497 9 -15954076.98647  21827571.157    21827579.3754
  24245080.226    -2538127.519 8  -1939201.74545  24245079.700    24245094.9454
 01  5 27  1 25  0.0000000  0  7 20 21 29 25 14 11 31
  24607325.108    -3368107.089 7  -2411186.24945  24607324.265    24607337.2534
  21910129.908   -18423164.632 8 -14332729.14347  21910129.463    21910138.4144
  20701297.277   -22854371.448 9 -17002820.27348  20701297.160    20701304.1904
  21443483.859   -22123345.527 9 -16778252.33647  21443483.745    21443492.7754
  21117788.952   -22338403.799 9 -16844042.60247  21117788.559    21117795.1734
  21815913.318   -20550897.701 9 -16001815.24947  21815912.938    21815921.1664
  24260103.764    -2459179.385 8  -1877683.95845  24260103.239    24260118.4794
 01  5 27  1 25 30.0000000  0  7 20 21 29 25 14 11 31
  24591261.681    -3452520.029 7  -2476962.31745  24591260.825    24591273.8764
  21918359.773   -18379916.986 8 -14299029.72047  21918359.296    21918368.1624
  20708823.817   -22814819.183 9 -16972000.33048  20708823.690    20708830.7184
  21431827.939   -22184597.435 9 -16825980.99447  21431827.814    21431836.8574
  21128788.549   -22280600.858 9 -16799001.36347  21128788.124    21128794.6924
  21804337.867   -20611726.605 9 -16049214.31647  21804337.481    21804345.7774
  24275146.316    -2380130.887 8  -1816087.97845  24275145.846    24275161.1854
 01  5 27  1 26  0.0000000  0  7 20 21 29 25 14 11 31
  24575193.220    -3536959.741 7  -2542759.25945  24575192.438    24575205.3844
  21926634.741   -18336431.977 8 -14265145.34447  21926634.257    21926643.1284
  20716399.884   -22775006.935 9 -16940977.80448  20716399.755    20716406.7724
  21420252.949   -22245423.855 9 -16873378.10247  21420252.838    21420261.8684
  21139834.374   -22222554.705 9 -16753770.60947  21139833.957    21139840.5134
  21792845.923   -20672116.870 9 -16096271.59947  21792845.557    21792853.8644
  24290207.711    -2300984.007 8  -1754415.34645  24290207.259    24290222.5694
 01  5 27  1 26 30.0000000  0  7 20 21 29 25 14 11 31
  24559120.167    -3621423.678 8  -2608575.06145  24559119.406    24559132.3774
  21934955.353   -18292706.845 8 -14231073.84347  21934954.857    21934963.7564
  20724025.423   -22734934.297 9 -16909752.37248  20724025.296    20724032.3244
  21408759.781   -22305820.625 9 -16920440.41147  21408759.664    21408768.5834
  21150926.507   -22164265.088 9 -16708350.13947  21150926.079    21150932.7074
  21781438.196   -20732064.605 9 -16142984.05947  21781437.834    21781446.1144
  24305287.712    -2221739.579 8  -1692666.71145  24305287.119    24305302.5334
 01  5 27  1 27  0.0000000  0  7 20 21 29 25 14 11 31
  24543041.964    -3705914.221 7  -2674411.60345  24543041.117    24543054.1014
  21943321.093   -18248744.472 8 -14196817.49947  21943320.615    21943329.5864
  20731699.673   -22694605.986 9 -16878327.71948  20731699.533    20731706.5324
  21397348.245   -22365788.650 9 -16967168.63947  21397348.084    21397356.8874
  21162064.021   -22105736.884 9 -16662743.76047  21162063.598    21162070.2634
  21770114.598   -20791570.554 9 -16189352.28147  21770114.214    21770122.4024
  24320385.068    -2142403.629 8  -1630846.74845  24320384.478    24320399.8104
 01  5 27  1 27 30.0000000  0  7 20 21 29 25 14 11 31
  24526959.177    -3790428.876 7  -2740266.93345  24526958.470    24526971.2264
  21951732.432   -18204542.306 8 -14162374.28446  21951731.952    21951741.0504
  20739422.632   -22654021.359 9 -16846703.34048  20739422.507    20739429.5074
  21386019.019   -22425323.678 9 -17013559.46247  21386018.838    21386027.5704
  21173247.038   -22046969.845 9 -16616951.27347  21173246.606    21173253.2794
  21758875.882   -20850630.505 9 -16235372.98547  21758875.494    21758883.5514
  24335499.609    -2062976.859 8  -1568956.02545  24335499.044    24335514.3644
 01  5 27  1 28  0.0000000  0  7 20 21 29 25 14 11 31
  24510871.519    -3874969.192 7  -2806142.25345  24510870.758    24510883.4384
  21960189.280   -18160100.999 8 -14127744.74246  21960188.838    21960198.0214
  20747193.700   -22613183.929 9 -16814881.96648  20747193.577    20747200.5804
  21374772.078   -22484426.209 9 -17059613.27247  21374771.923    21374780.6034
  21184474.742   -21987967.711 9 -16570975.59647  21184474.324    21184481.0014
  21747722.095   -20909244.177 9 -16281045.93047  21747721.676    21747729.6844
  24350630.508    -1983464.153 8  -1506998.33645  24350629.900    24350645.2954
 01  5 27  1 28 30.0000000  0  7 20 21 29 25 14 11 31
  24494779.839    -3959530.504 7  -2872033.95345  24494779.017    24494791.6554
  21968692.568   -18115416.157 8 -14092925.43946  21968692.101    21968701.3404
  20755013.369   -22572091.233 9 -16782861.69248  20755013.273    20755020.2854
  21363608.726   -22543089.738 9 -17105325.00647  21363608.552    21363617.2114
  21195747.676   -21928728.345 9 -16524815.06847  21195747.230    21195753.8704
  21736654.301   -20967405.403 9 -16326366.32547  21736653.888    21736661.8924
  24365778.016    -1903864.722 8  -1444973.05245  24365777.323    24365792.8904
 01  5 27  1 29  0.0000000  0  7 20 21 29 25 14 11 31
  24478682.984    -4044119.172 8  -2937946.98045  24478682.271    24478694.7844
  21977240.915   -18070494.446 8 -14057921.55046  21977240.463    21977249.7404
  20762880.101   -22530751.726 9 -16750649.09948  20762879.977    20762886.9394
  21352527.909   -22601319.270 9 -17150698.56547  21352527.733    21352536.3594
  21207063.992   -21869260.580 9 -16478476.56747  21207063.546    21207070.2044
  21725671.708   -21025119.009 9 -16371337.93647  21725671.321    21725679.3294
  24380940.193    -1824188.089 8  -1382887.61245  24380939.626    24380955.0304
 01  5 27  1 29 30.0000000  0  7 20 21 29 25 14 11 31
  24462581.764    -4128730.711 7  -3003877.85645  24462581.038    24462593.4794
  21985835.143   -18025331.422 8 -14022729.63046  21985834.733    21985843.9984
  20770794.171   -22489162.984 9 -16718242.29548  20770794.048    20770801.0274
  21341530.780   -22659109.104 9 -17195729.49547  21341530.606    21341539.2194
  21218424.226   -21809562.065 9 -16431958.25147  21218423.771    21218430.4734
  21714775.476   -21082378.918 9 -16415956.01847  21714775.094    21714783.0984
  24396117.341    -1744433.237 8  -1320741.20345  24396116.640    24396132.2374
 01  5 27  1 30  0.0000000  0  7 20 21 29 25 14 11 31
  24446476.432    -4213364.327 8  -3069825.92445  24446475.567    24446487.9784
  21994475.616   -17979925.694 8 -13987348.59446  21994475.192    21994484.4884
  20778755.418   -22447326.358 9 -16685642.33748  20778755.297    20778762.3104
  21330617.785   -22716456.802 9 -17240415.91347  21330617.621    21330626.2204
  21229828.023   -21749634.492 9 -16385261.45647  21229827.576    21229834.3154
  21703966.028   -21139182.663 9 -16460218.66447  21703965.657    21703973.7204
  24411308.870    -1664602.924 8  -1258536.05045  24411308.082    24411323.9614
 01  5 27  1 30 30.0000000  0  7 20 21 29 25 14 11 31
  24430366.730    -4298020.223 7  -3135791.37145  24430365.970    24430378.3094
  22003162.132   -17934277.859 8 -13951778.91146  22003161.688    22003171.0274
  20786763.368   -22405244.133 9 -16652851.00648  20786763.263    20786770.2854
  21319789.143   -22773361.475 9 -17284757.12247  21319788.977    21319797.5414
  21241275.017   -21689480.387 9 -16338388.14047  21241274.591    21241281.2744
  21693243.621   -21195528.885 9 -16504124.80047  21693243.260    21693251.3634
  24426514.023    -1584700.756 8  -1196274.84245  24426513.236    24426529.0994
 01  5 27  1 31  0.0000000  0  7 20 21 29 25 14 11 31
  24414252.705    -4382698.953 7  -3201774.61345  24414251.895    24414264.2664
  22011894.667   -17888388.240 8 -13916020.82646  22011894.262    22011903.5924
  20794817.671   -22362918.828 9 -16619870.25748  20794817.517    20794824.5614
  21309044.906   -22829822.404 9 -17328752.55647  21309044.775    21309053.2844
  21252764.606   -21629102.540 9 -16291340.48447  21252764.137    21252770.7724
  21682608.466   -21251416.578 9 -16547673.63847  21682608.113    21682616.2754
  24441732.018    -1504730.712 8  -1133960.77045  24441731.250    24441747.2624
 01  5 27  1 31 30.0000000  0  7 20 21 29 25 14 11 31
  24398134.639    -4467398.700 8  -3267774.25145  24398133.974    24398146.1864
  22020673.570   -17842255.108 8 -13880072.98446  22020673.165    22020682.5074
  20802918.043   -22320350.957 9 -16586700.49548  20802917.930    20802924.9944
  21298385.734   -22885836.312 9 -17372399.66547  21298385.595    21298394.1094
  21264296.608   -21568501.615 9 -16244118.99147  21264296.164    21264302.7794
  21672061.193   -21306842.549 9 -16590862.69047  21672060.864    21672069.0504
  24456962.608    -1424694.537 8  -1071595.15245  24456961.877    24456977.8834
 01  5 27  1 32  0.0000000  0  7 20 21 29 25 14 11 31
  24382012.805    -4552118.942 8  -3333789.88545  24382012.125    24382024.3214
  22029498.877   -17795877.920 8 -13843934.97046  22029498.505    22029507.9354
  20811064.332   -22277541.912 9 -16553342.80448  20811064.210    20811071.2954
  21287811.914   -22941401.449 9 -17415697.08447  21287811.795    21287820.3624
  21275870.700   -21507679.376 9 -16196725.05847  21275870.291    21275876.9244
  21661602.290   -21361804.643 9 -16633690.27947  21661601.935    21661610.0934
  24472205.231    -1344595.183 8  -1009180.32745  24472204.585    24472220.4454
 01  5 27  1 32 30.0000000  0  7 20 21 29 25 14 11 31
  24365887.299    -4636859.009 8  -3399820.98245  24365886.628    24365898.6564
  22038370.794   -17749256.365 8 -13807606.55046  22038370.373    22038379.8224
  20819256.203   -22234493.387 9 -16519798.50548  20819256.069    20819263.1544
  21277323.846   -22996516.087 9 -17458643.46247  21277323.726    21277332.3034
  21287486.619   -21446637.720 9 -16149160.14347  21287486.190    21287492.8474
  21651232.080   -21416300.793 9 -16676154.78947  21651231.704    21651239.8274
  24487459.334    -1264435.523 8   -946718.47845  24487458.735    24487474.5454
 01  5 27  1 33  0.0000000  0  7 20 21 29 25 14 11 31
  24349757.878    -4721619.195 8  -3465867.75545  24349757.264    24349769.2224
  22047289.080   -17702390.790 8 -13771087.98946  22047288.640    22047298.0984
  20827493.165   -22191207.786 9 -16486069.47948  20827493.027    20827500.0854
  21266921.808   -23051178.826 9 -17501237.71047  21266921.647    21266930.2164
  21299143.744   -21385379.355 9 -16101426.37347  21299143.280    21299150.0224
  21640950.718   -21470329.957 9 -16718255.41947  21640950.352    21640958.4114
  24502724.166    -1184219.404 7   -884212.67945  24502723.488    24502739.5104
 01  5 27  1 33 30.0000000  0  7 20 21 29 25 14 11 31
  24333624.926    -4806398.092 8  -3531929.09245  24333624.213    24333636.2144
  22056254.082   -17655279.528 8 -13734377.98146  22056253.664    22056263.1484
  20835775.120   -22147685.699 9 -16452156.16947  20835775.013    20835782.0794
  21256606.298   -23105387.031 9 -17543477.77547  21256606.138    21256614.6244
  21310841.818   -21323905.068 9 -16053524.34547  21310841.382    21310848.1744
  21630758.741   -21523889.014 9 -16759989.72047  21630758.377    21630766.3954
  24517999.361    -1103948.781 7   -821664.37345  24517998.593    24518014.7324
 01  5 27  1 34  0.0000000  0  7 20 21 29 25 14 11 31
  24317488.115    -4891196.734 8  -3598005.82845  24317487.414    24317499.5544
  22065265.669   -17607923.521 8 -13697477.26946  22065265.324    22065274.7844
  20844101.505   -22103930.212 9 -16418060.99147  20844101.399    20844108.4554
  21246377.247   -23159140.968 9 -17585363.86547  21246377.059    21246385.4134
  21322580.363   -21262218.234 9 -16005456.69247  21322579.955    21322586.8134
  21620656.252   -21576977.830 9 -16801357.60047  21620655.881    21620663.8654
  24533284.016    -1023628.105 7   -759077.08145  24533283.192    24533299.4354
 01  5 27  1 34 30.0000000  0  7 20 21 29 25 14 11 31
  24301348.321    -4976011.824 8  -3664095.37345  24301347.548    24301359.5964
  22074324.574   -17560319.641 8 -13660383.40546  22074324.143    22074333.6114
  20852472.514   -22059940.370 9 -16383783.20347  20852472.414    20852479.4374
  21236235.442   -23212436.100 9 -17626892.44847  21236235.270    21236243.5964
  21334359.547   -21200318.121 9 -15957222.86147  21334359.150    21334365.9864
  21610644.149   -21629591.818 9 -16842355.48447  21610643.763    21610651.7524
  24548577.985     -943257.659 7   -696450.99545  24548577.184    24548593.4404
 01  5 27  1 35  0.0000000  0  7 20 21 29 25 14 11 31
  24285205.035    -5060844.882 8  -3730198.92545  24285204.163    24285216.1964
  22083430.105   -17512469.969 8 -13623098.01246  22083429.640    22083439.1514
  20860887.422   -22015719.918 9 -16349325.70747  20860887.318    20860894.3204
  21226180.775   -23265273.007 9 -17668063.96647  21226180.631    21226188.9804
  21346178.637   -21138208.723 9 -15908825.93647  21346178.218    21346185.0264
  21600722.284   -21681731.152 9 -16882983.48447  21600721.911    21600729.9304
  24563880.467     -862842.653 7   -633790.19745  24563879.631    24563896.0014
 01  5 27  1 35 30.0000000  0  7 20 21 29 25 14 11 31
  24269058.273    -5145695.823 8  -3796316.40645  24269057.461    24269069.4404
  22092582.374   -17464374.570 8 -13585621.13746  22092581.924    22092591.4254
  20869345.824   -21971270.782 9 -16314690.02147  20869345.713    20869352.7004
  21216213.652   -23317650.098 9 -17708877.18847  21216213.521    21216221.8744
  21358037.126   -21075892.146 9 -15860267.58247  21358036.709    21358043.4744
  21590891.087   -21733394.177 9 -16923240.34547  21590890.727    21590898.7494
  24579190.898     -782386.490 7   -571097.33145  24579190.020    24579206.6274
 01  5 27  1 36  0.0000000  0  7 20 21 29 25 14 11 31
  24252908.779    -5230561.106 8  -3862445.08445  24252908.102    24252919.8624
  22101782.022   -17416030.229 8 -13547950.29546  22101781.535    22101790.9854
  20877848.025   -21926591.674 9 -16279875.14147  20877847.906    20877854.8324
  21206334.944   -23369562.972 9 -17749328.68747  21206334.790    21206343.1424
  21369935.237   -21013367.306 9 -15811546.94247  21369934.812    21369941.5764
  21581151.434   -21784576.241 9 -16963122.42747  21581151.080    21581159.0834
  24594509.099     -701889.007 7   -508372.24745  24594508.386    24594524.9964
 01  5 27  1 36 30.0000000  0  7 20 21 29 25 14 11 31
  24236756.126    -5315443.295 7  -3928586.91045  24236755.474    24236767.2334
  22111028.730   -17367439.148 8 -13510087.18046  22111028.194    22111037.5844
  20886393.104   -21881687.040 9 -16244884.52247  20886392.961    20886399.9244
  21196544.258   -23421013.155 9 -17789419.64447  21196544.088    21196552.4264
  21381872.002   -20950639.047 9 -15762667.79347  21381871.598    21381878.3864
  21571503.161   -21835278.280 9 -17002630.45447  21571502.779    21571510.7804
  24609834.240     -621356.161 7   -445619.63145  24609833.486    24609850.2744
 01  5 27  1 37  0.0000000  0  7 20 21 29 25 14 11 31
  24220600.579    -5400341.101 8  -3994740.91945  24220599.778    24220611.4444
  22120322.576   -17318600.397 8 -13472031.08246  22120322.029    22120331.4184
  20894980.781   -21836558.075 9 -16209719.09647  20894980.656    20894987.6734
  21186842.062   -23471997.951 9 -17829147.95947  21186841.905    21186850.2394
  21393847.284   -20887708.572 9 -15713631.08047  21393846.858    21393853.6384
  21561946.701   -21885497.784 9 -17041762.47247  21561946.345    21561954.3014
  24625165.546     -540790.358 7   -382841.34245  24625164.872    24625181.9244
 01  5 27  1 37 30.0000000  0  7 20 21 29 25 14 11 31
  24204442.372    -5485252.579 7  -4060905.57345  24204441.614    24204453.1604
  22129663.871   -17269512.214 8 -13433780.62246  22129663.283    22129672.6854
  20903611.122   -21791205.063 9 -16174379.09147  20903611.041    20903618.1054
  21177228.909   -23522514.902 9 -17868511.72347  21177228.760    21177237.0774
  21405860.977   -20824576.688 9 -15664437.42247  21405860.511    21405867.2404
  21552482.625   -21935231.903 9 -17080516.26747  21552482.257    21552490.1594
  24640502.841     -460193.281 7   -320038.67245  24640502.265    24640519.3344
 01  5 27  1 38  0.0000000  0  7 20 21 29 25 14 11 31
  24188281.529    -5570177.657 7  -4127080.82745  24188280.802    24188292.4254
  22139052.609   -17220174.490 8 -13395335.71746  22139052.013    22139061.4404
  20912283.787   -21745629.910 9 -16138865.99247  20912283.677    20912290.7954
  21167705.039   -23572562.644 9 -17907509.87847  21167704.893    21167713.1784
  21417912.505   -20761245.350 9 -15615088.35147  21417912.088    21417918.7824
  21543111.168   -21984479.131 9 -17118890.67747  21543110.805    21543118.6534
  24655845.438     -379568.279 7   -257214.25245  24655844.943    24655861.8134
 01  5 27  1 38 30.0000000  0  7 20 21 29 25 14 11 31
  24172117.756    -5655118.873 7  -4193268.63945  24172116.992    24172128.5934
  22148488.200   -17170590.236 8 -13356698.69546  22148487.641    22148497.1014
  20920997.782   -21699837.463 9 -16103183.57247  20920997.655    20921004.8344
  21158270.129   -23622142.788 9 -17946143.65947  21158270.005    21158278.2804
  21430001.120   -20697719.471 9 -15565587.68547  21430000.699    21430007.4044
  21533832.162   -22033240.783 9 -17156886.70847  21533831.789    21533839.5934
  24671192.323     -298921.522 7   -194372.88345  24671191.779    24671208.7614
 01  5 27  1 39  0.0000000  0  7 20 21 29 25 14 11 31
  24155952.173    -5740069.600 7  -4259463.86245  24155951.303    24155962.9264
  22157971.977   -17120752.846 8 -13317864.41846  22157971.435    22157980.8964
  20929753.968   -21653823.175 9 -16067328.29247  20929753.873    20929761.0714
  21148925.599   -23671248.089 9 -17984407.43747  21148925.494    21148933.7164
  21442127.441   -20633994.834 9 -15515932.15647  21442127.034    21442133.8544
  21524646.986   -22081509.177 9 -17194498.38947  21524646.597    21524654.3244
  24686543.870     -218249.843 7   -131512.11445  24686543.321    24686560.1514
 01  5 27  1 39 30.0000000  0  7 20 21 29 25 14 11 31
  24139783.755    -5825034.383 7  -4325670.02845  24139782.926    24139794.5594
  22167503.113   -17070666.878 8 -13278836.45946  22167502.537    22167511.9614
  20938551.121   -21607593.871 9 -16031305.46547  20938551.013    20938558.1914
  21139670.877   -23719881.812 9 -18022303.75047  21139670.761    21139678.9414
  21454290.288   -20570078.538 9 -15466127.27147  21454289.914    21454296.8084
  21515554.977   -22129287.408 9 -17231728.12847  21515554.602    21515562.2694
  24701898.583     -137561.019 8    -68637.94145  24701897.922    24701914.9264
 01  5 27  1 40  0.0000000  0  7 20 21 29 25 14 11 31
  24123613.557    -5910008.405 7  -4391883.40345  24123612.861    24123624.3874
  22177082.357   -17020327.725 8 -13239611.20346  22177081.776    22177091.2064
  20947389.774   -21561146.705 9 -15995112.87547  20947389.674    20947396.7974
  21130506.963   -23768038.135 9 -18059828.06047  21130506.835    21130514.9774
  21466490.078   -20505968.137 9 -15416171.14147  21466489.708    21466496.6714
  21506557.421   -22176569.617 9 -17268571.35447  21506557.040    21506564.7004
  24717256.680      -56854.026 7     -5749.66945  24717256.109    24717273.1764
 01  5 27  1 40 30.0000000  0  7 20 21 29 25 14 11 31
  24107441.341    -5994993.605 7  -4458105.49545  24107440.636    24107452.1244
  22186709.125   -16969738.220 8 -13200190.86446  22186708.582    22186718.0964
  20956269.057   -21514485.940 9 -15958753.84147  20956268.927    20956275.9914
  21121433.677   -23815718.209 9 -18096981.26447  21121433.566    21121441.7064
  21478726.047   -20441667.953 9 -15366067.13147  21478725.648    21478732.6284
  21497654.041   -22223356.808 9 -17305028.85247  21497653.654    21497661.3734
  24732617.286       23865.692 7     57148.52445  24732616.705    24732633.7784
 01  5 27  1 41  0.0000000  0  7 20 21 29 25 14 11 31
  24091267.420    -6079987.582 7  -4524334.40945  24091266.672    24091278.0044
  22196384.028   -16918895.686 8 -13160573.36446  22196383.533    22196393.1904
  20965189.008   -21467611.460 9 -15922228.28347  20965188.882    20965195.9264
  21112451.611   -23862918.908 9 -18133760.93447  21112451.504    21112459.6514
  21490998.000   -20377177.880 9 -15315815.15847  21490997.662    21491004.6534
  21488845.629   -22269645.256 9 -17341097.71647  21488845.212    21488853.0044
  24747980.199      104597.041 7    120055.82045  24747979.590    24747996.5724
 01  5 27  1 41 30.0000000  0  7 20 21 29 25 14 11 31
  24075091.105    -6164993.931 8  -4590572.96845  24075090.482    24075101.6324
  22206106.470   -16867804.012 8 -13120761.73246  22206105.963    22206115.6604
  20974148.463   -21420528.935 9 -15885540.60547  20974148.389    20974155.4484
  21103560.227   -23909643.128 9 -18170169.33048  21103560.139    21103568.2304
  21503305.048   -20312503.975 9 -15265419.92847  21503304.702    21503311.6434
  21480131.556   -22315437.645 9 -17376780.05147  21480131.155    21480139.0114
  24763343.947      185332.959 7    182966.65845  24763343.374    24763360.2774
 01  5 27  1 42  0.0000000  0  7 20 21 29 25 14 11 31
  24058913.758    -6250006.142 8  -4656816.09345  24058913.061    24058924.0824
  22215877.400   -16816457.513 8 -13080751.52346  22215876.918    22215886.5594
  20983148.370   -21373234.102 9 -15848687.49547  20983148.269    20983155.3934
  21094760.939   -23955883.609 9 -18206200.78348  21094760.821    21094768.8964
  21515647.896   -20247642.273 9 -15214878.36147  21515647.507    21515654.4084
  21471513.305   -22360726.332 9 -17412069.88347  21471512.911    21471520.8214
  24778709.304      266076.063 7    245883.09545  24778708.666    24778725.4744
 01  5 27  1 42 30.0000000  0  7 20 21 29 25 14 11 31
  24042734.447    -6335028.326 8  -4723066.99745  24042733.682    24042744.6244
  22225696.087   -16764860.183 8 -13040545.88346  22225695.601    22225705.2074
  20992187.430   -21325733.327 9 -15811673.91347  20992187.331    20992194.5164
  21086053.078   -24001643.499 9 -18241857.75548  21086052.939    21086060.9944
  21528025.274   -20182599.165 9 -15164195.44747  21528024.858    21528031.7254
  21462990.378   -22405514.350 9 -17446969.59347  21462990.001    21462997.9034
  24794074.459      346819.059 8    308799.43045  24794073.739    24794090.5814
 01  5 27  1 43  0.0000000  0  7 20 21 29 25 14 11 31
  24026553.776    -6420057.179 8  -4789323.08345  24026553.063    24026563.9134
  22235563.031   -16713009.047 8 -13000142.45646  22235562.590    22235572.1354
  21001265.878   -21278025.565 9 -15774499.04647  21001265.786    21001272.9684
  21077437.429   -24046918.618 9 -18277136.98648  21077437.294    21077445.3294
  21540437.324   -20117373.782 9 -15113370.49747  21540436.896    21540443.7234
  21454563.562   -22449797.563 9 -17481475.96447  21454563.165    21454570.9784
  24809439.522      427561.375 7    371715.22645  24809438.902    24809455.7584
 01  5 27  1 43 30.0000000  0  7 20 21 29 25 14 11 31
  24010371.830    -6505092.655 8  -4855584.32945  24010371.137    24010382.1244
  22245478.284   -16660904.507 8 -12959541.59046  22245477.886    22245487.3274
  21010383.371   -21230112.975 9 -15737164.57147  21010383.284    21010390.4214
  21068914.035   -24091708.761 9 -18312038.31748  21068913.924    21068921.9404
  21552883.512   -20051968.591 9 -15062405.43147  21552883.119    21552889.9404
  21446233.006   -22493574.940 9 -17515588.16647  21446232.582    21446240.3764
  24824803.676      508299.451 8    434627.72045  24824803.095    24824820.0084
 01  5 27  1 44  0.0000000  0  7 20 21 29 25 14 11 31
  23994188.673    -6590134.244 8  -4921850.34345  23994187.980    23994199.2634
  22255441.842   -16608546.422 8 -12918743.15146  22255441.418    22255450.7654
  21019539.571   -21181997.161 9 -15699671.73847  21019539.485    21019546.5374
  21060483.321   -24136012.310 9 -18346560.47648  21060483.201    21060491.1914
  21565363.600   -19986385.587 9 -15011301.80947  21565363.190    21565370.0494
  21437998.909   -22536844.951 9 -17549305.01347  21437998.513    21438006.3314
  24840166.617      589030.527 7    497534.76745  24840166.010    24840182.9894
 01  5 27  1 44 30.0000000  0  7 20 21 29 25 14 11 31
  23978004.634    -6675180.378 8  -4988119.91245  23978004.013    23978015.4474
  22265453.929   -16555933.170 8 -12877745.89146  22265453.497    22265462.8364
  21028734.351   -21133678.618 9 -15662020.94247  21028734.240    21028741.2434
  21052145.572   -24179827.122 9 -18380701.81748  21052145.443    21052153.4464
  21577877.381   -19920625.370 9 -14960060.10647  21577876.957    21577883.8284
  21429861.941   -22579604.821 9 -17582624.36347  21429861.546    21429869.3984
  24855527.883      669752.804 7    560434.94645  24855527.196    24855544.2374
 01  5 27  1 45  0.0000000  0  7 20 21 29 25 14 11 31
  23961819.897    -6760230.921 8  -5054392.91845  23961819.258    23961830.7364
  22275514.374   -16503065.541 8 -12836550.40446  22275513.932    22275523.2874
  21037967.166   -21085159.896 9 -15624214.14747  21037967.059    21037974.0944
  21043900.888   -24223152.854 9 -18414462.04548  21043900.751    21043908.7324
  21590424.309   -19854690.620 9 -14908682.39047  21590423.881    21590430.8364
  21421822.190   -22621853.897 9 -17615545.68147  21421821.782    21421829.6134
  24870886.574      750462.390 7    623325.25645  24870885.914    24870903.2204
 01  5 27  1 45 30.0000000  0  7 20 21 29 25 14 11 31
  23945634.407    -6845286.385 8  -5120669.76245  23945633.653    23945645.2274
  22285622.989   -16449944.429 8 -12795157.40846  22285622.565    22285632.0124
  21047237.560   -21036443.436 9 -15586253.27647  21047237.471    21047244.5774
  21035749.386   -24265988.999 9 -18447840.78148  21035749.244    21035757.1854
  21603003.931   -19788583.873 9 -14857170.65947  21603003.552    21603010.5454
  21413879.739   -22663591.566 9 -17648068.50847  21413879.330    21413887.1684
  24886242.253      831155.623 7    686202.82645  24886241.503    24886259.0244
 01  5 27  1 46  0.0000000  0  7 20 21 29 25 14 11 31
  23929448.666    -6930342.410 8  -5186947.06345  23929447.988    23929459.5094
  22295780.730   -16396565.555 8 -12753563.55146  22295780.233    22295789.7564
  21056546.000   -20987527.199 9 -15548136.72947  21056545.897    21056553.0414
  21027692.017   -24308330.451 9 -18480834.04148  21027691.902    21027699.7554
  21615616.787   -19722303.137 9 -14805523.35247  21615616.390    21615623.3364
  21406035.566   -22704812.714 9 -17680188.85847  21406035.161    21406042.9564
  24901594.775      911833.253 7    749068.21645  24901593.945    24901611.9354
 01  5 27  1 46 30.0000000  0  7 20 21 29 25 14 11 31
  23913262.298    -7015401.338 8  -5253226.59245  23913261.694    23913273.1944
  22305986.930   -16342931.670 8 -12711770.97746  22305986.457    22305996.0604
  21065891.634   -20938415.652 9 -15509867.99647  21065891.537    21065898.6734
  21019728.462   -24350179.138 9 -18513443.33348  21019728.325    21019736.0864
  21628261.848   -19655853.387 9 -14753744.35147  21628261.436    21628268.3334
  21398289.337   -22745518.810 9 -17711907.86747  21398288.943    21398296.7504
  24916943.050      992489.113 7    811916.64445  24916942.389    24916960.3494
 01  5 27  1 47  0.0000000  0  6 20 21 29 25 14 11
  23897076.739    -7100456.486 8  -5319503.19745  23897076.079    23897087.6614
  22316242.948   -16289036.125 8 -12669774.52146  22316242.516    22316252.1734
  21075275.322   -20889104.431 9 -15471443.67047  21075275.170    21075282.2714
  21011859.935   -24391528.173 9 -18545663.28248  21011859.812    21011867.5274
  21640939.860   -19589230.277 9 -14701830.26047  21640939.439    21640946.2894
  21390642.598   -22785702.374 9 -17743219.71047  21390642.197    21390650.0294
 01  5 27  1 47 30.0000000  0  6 20 21 29 25 14 11
  23880892.626    -7185504.125 8  -5385773.94545  23880891.932    23880903.5574
  22326549.266   -16234876.225 8 -12627572.08046  22326548.812    22326558.5394
  21084697.261   -20839592.089 9 -15432862.62847  21084697.098    21084704.1704
  21004087.286   -24432373.120 9 -18577490.43748  21004087.173    21004094.8884
  21653651.004   -19522432.788 9 -14649780.28047  21653650.610    21653657.4384
  21383096.144   -22825359.108 9 -17774121.03547  21383095.761    21383103.5344
 01  5 27  1 48  0.0000000  0  6 20 21 29 25 14 11
  23864707.260    -7270559.069 8  -5452050.38845  23864706.567    23864718.0864
  22336902.896   -16180467.306 8 -12585175.59646  22336902.494    22336912.2594
  21094154.148   -20789895.710 9 -15394138.17947  21094153.991    21094161.0624
  20996407.925   -24472728.243 9 -18608935.91848  20996407.790    20996415.5344
  21666392.033   -19455478.115 9 -14597607.83147  21666391.679    21666398.5034
  21375647.380   -22864502.923 9 -17804622.68047  21375647.007    21375654.6864
 01  5 27  1 48 30.0000000  0  6 20 21 29 25 14 11
  23848521.193    -7355617.269 8  -5518329.37145  23848520.543    23848531.8674
  22347304.601   -16125805.841 8 -12542582.32746  22347304.262    22347313.9814
  21103646.401   -20740013.293 9 -15355268.75847  21103646.280    21103653.3244
  20988822.604   -24512589.229 9 -18639996.35048  20988822.431    20988830.1944
  21679163.499   -19388364.284 9 -14545311.36247  21679163.108    21679169.8904
  21368297.114   -22903128.900 9 -17834720.82047  21368296.756    21368304.3824
 01  5 27  1 49  0.0000000  0  6 20 21 29 25 14 11
  23832335.501    -7440673.094 8  -5584606.50545  23832334.838    23832346.0694
  22357755.631   -16070886.304 8 -12499787.97946  22357755.258    22357764.8214
  21113174.648   -20689941.806 9 -15316252.02247  21113174.533    21113181.5884
  20981332.333   -24551950.176 9 -18670667.15148  20981332.196    20981340.0004
  21691965.691   -19321088.434 9 -14492888.64747  21691965.315    21691972.1274
  21361046.605   -22941230.906 9 -17864410.66847  21361046.245    21361053.8024
 01  5 27  1 49 30.0000000  0  6 20 21 29 25 14 11
  23816149.902    -7525728.485 8  -5650883.28145  23816149.263    23816160.4244
  22368255.274   -16015710.932 8 -12456794.25946  22368254.829    22368264.3414
  21122738.163   -20639685.101 9 -15277090.94847  21122738.053    21122745.1094
  20973936.958   -24590812.845 9 -18700949.67148  20973936.816    20973944.6384
  21704797.890   -19253654.622 9 -14440342.82847  21704797.541    21704804.4054
  21353895.528   -22978810.109 9 -17893693.13547  21353895.136    21353902.6664
 01  5 27  1 50  0.0000000  0  6 20 21 29 25 14 11
  23799964.670    -7610781.813 8  -5717158.45245  23799964.118    23799975.2424
  22378803.550   -15960279.404 8 -12413600.94346  22378803.117    22378812.7294
  21132336.807   -20589243.876 9 -15237786.10347  21132336.698    21132343.8054
  20966636.828   -24629174.861 9 -18730842.08248  20966636.680    20966644.5024
  21717659.967   -19186063.940 9 -14387674.78647  21717659.587    21717666.5464
  21346844.351   -23015864.231 9 -17922566.45347  21346843.948    21346851.4774
 01  5 27  1 50 30.0000000  0  6 20 21 29 25 14 11
  23783780.213    -7695831.379 8  -5783430.70245  23783779.522    23783790.6494
  22389400.955   -15904590.093 8 -12370206.74546  22389400.530    22389410.2544
  21141970.467   -20538618.856 9 -15198338.03847  21141970.338    21141977.4504
  20959432.443   -24667033.951 9 -18760342.60148  20959432.277    20959440.0934
  21730551.712   -19118317.168 9 -14334885.11347  21730551.352    21730558.2834
  21339893.443   -23052390.997 9 -17951028.83947  21339893.050    21339900.6024
 01  5 27  1 51  0.0000000  0  6 20 21 29 25 14 11
  23767596.803    -7780875.136 8  -5849698.42345  23767596.127    23767607.2094
  22400047.717   -15848641.523 8 -12326610.53646  22400047.260    22400057.0644
  21151639.004   -20487810.302 9 -15158746.95747  21151638.885    21151645.9894
  20952324.040   -24704388.399 9 -18789449.89448  20952323.888    20952331.6894
  21743473.141   -19050414.734 9 -14281974.14847  21743472.787    21743479.6784
  21333043.420   -23088387.724 9 -17979078.20547  21333043.032    21333050.5794
 01  5 27  1 51 30.0000000  0  6 20 21 29 25 14 11
  23751413.990    -7865915.439 8  -5915963.42845  23751413.249    23751424.3054
  22410743.260   -15792436.444 8 -12282814.45246  22410742.796    22410752.7114
  21161341.667   -20436822.460 9 -15119016.17547  21161341.528    21161348.6644
  20945311.418   -24741239.548 9 -18818165.00648  20945311.263    20945319.0604
  21756423.348   -18982361.122 9 -14228945.37447  21756422.982    21756429.8044
  21326293.943   -23123856.200 9 -18006715.94247  21326293.544    21326301.1224
 01  5 27  1 52  0.0000000  0  6 20 21 29 25 14 11
  23735232.672    -7950947.666 8  -5982222.15845  23735231.922    23735242.9494
  22421488.303   -15735971.238 8 -12238815.67146  22421487.807    22421497.7884
  21171078.781   -20385653.599 9 -15079144.34047  21171078.637    21171085.7914
  20938395.385   -24777583.252 9 -18846484.70948  20938395.221    20938402.9834
  21769402.594   -18914154.479 9 -14175797.36247  21769402.226    21769409.0824
  21319645.917   -23158791.600 9 -18033938.29347  21319645.527    21319653.1504
 01  5 27  1 52 30.0000000  0  6 20 21 29 25 14 11
  23719053.135    -8035971.264 8  -6048474.16045  23719052.362    23719063.2774
  22432282.833   -15679245.601 8 -12194613.97146  22432282.334    22432292.3474
  21180850.094   -20334304.878 9 -15039132.35447  21180849.973    21180857.1784
  20931576.121   -24813418.504 9 -18874408.21848  20931575.982    20931583.6874
  21782410.690   -18845796.401 9 -14122531.34647  21782410.311    21782417.2444
  21313099.612   -23193192.465 9 -18060744.12247  21313099.228    21313106.8174
 01  5 27  1 53  0.0000000  0  6 20 21 29 25 14 11
  23702875.147    -8120986.673 8  -6114719.77745  23702874.322    23702885.1744
  22443126.650   -15622260.986 8 -12150210.45546  22443126.217    22443136.2494
  21190655.108   -20282779.273 9 -14998982.54147  21190654.975    21190662.2224
  20924853.616   -24848745.625 9 -18901935.78248  20924853.475    20924861.0554
  21795447.001   -18777289.915 9 -14069149.68947  21795446.626    21795453.6224
  21306655.011   -23227058.756 9 -18087133.40047  21306654.620    21306662.2544
 01  5 27  1 53 30.0000000  0  7 20 21 29 25 14 11 01
  23686696.923    -8206002.895 8  -6180966.02545  23686696.162    23686706.8854
  22454018.082   -15565026.767 8 -12105612.44746  22454017.657    22454027.6384
  21200491.684   -20231088.022 9 -14958703.64847  21200491.525    21200498.7404
  20918226.089   -24883573.520 9 -18929074.34348  20918225.924    20918233.4614
  21808509.406   -18708646.438 9 -14015661.27947  21808509.063    21808516.0664
  21300310.447   -23260399.286 9 -18113112.99047  21300310.052    21300317.7124
  24642673.335    -2713238.962 7  -1693312.56345  24642672.673    24642690.5964
 01  5 27  1 54  0.0000000  0  7 20 21 29 25 14 11 01
  23670520.377    -8291010.446 8  -6247205.50145  23670519.600    23670530.2964
  22464958.700   -15507534.398 8 -12060813.27646  22464958.233    22464968.2054
  21210361.098   -20179223.980 9 -14918290.11847  21210360.953    21210368.1384
  20911695.296   -24917892.635 9 -18955816.45148  20911695.145    20911702.7174
  21821599.359   -18639859.062 9 -13962060.75047  21821598.971    21821605.8874
  21294067.872   -23293203.937 9 -18138675.02147  21294067.494    21294075.1494
  24626852.791    -2796375.331 7  -1758093.75445  24626852.175    24626869.6854
 01  5 27  1 54 30.0000000  0  7 20 21 29 25 14 11 01
  23654347.466    -8375998.542 8  -6313429.83845  23654346.787    23654357.4444
  22475950.329   -15449773.374 8 -12015804.76946  22475949.824    22475959.8694
  21220265.112   -20127178.420 9 -14877735.14947  21220264.956    21220272.0844
  20905263.458   -24951691.651 9 -18982153.29048  20905263.318    20905270.9424
  21834718.287   -18570919.152 9 -13908341.35447  21834717.849    21834724.7674
  21287929.472   -23325461.361 9 -18163810.63547  21287929.093    21287936.7144
  24611062.713    -2879351.390 7  -1822750.01345  24611062.086    24611079.2124
 01  5 27  1 55  0.0000000  0  7 20 21 29 25 14 11 01
  23638176.456    -8460977.548 8  -6379647.07145  23638175.802    23638186.2854
  22486990.833   -15391754.663 8 -11970595.47546  22486990.391    22487000.5084
  21230201.122   -20074964.142 9 -14837048.70547  21230200.978    21230208.1034
  20898928.590   -24984981.244 9 -19008093.17248  20898928.453    20898936.0814
  21847863.586   -18501839.872 9 -13854513.36147  21847863.189    21847870.2084
  21281893.229   -23357182.027 9 -18188527.99047  21281892.842    21281900.4174
  24595300.947    -2962178.205 7  -1887289.96845  24595300.448    24595317.5334
 01  5 27  1 55 30.0000000  0  7 20 21 29 25 14 11 01
  23622008.931    -8545938.044 8  -6445849.88545  23622008.284    23622018.6584
  22498082.042   -15333469.693 8 -11925178.71246  22498081.602    22498091.7904
  21240170.648   -20022573.973 9 -14796225.20647  21240170.516    21240177.6254
  20892692.483   -25017751.903 9 -19033628.69248  20892692.340    20892699.9654
  21861036.754   -18432613.848 9 -13800571.02347  21861036.409    21861043.4884
  21275961.024   -23388355.922 9 -18212819.29547  21275960.639    21275968.1834
  24579569.257    -3044846.598 7  -1951706.50845  24579568.670    24579585.7944
 01  5 27  1 56  0.0000000  0  7 20 21 29 25 14 11 01
  23605843.750    -8630886.365 8  -6512043.22145  23605843.105    23605853.3644
  22509222.670   -15274925.640 8 -11879560.05346  22509222.260    22509232.4194
  21250171.963   -19970016.622 9 -14755271.43847  21250171.822    21250178.9114
  20886553.959   -25050010.001 9 -19058764.80648  20886553.820    20886561.3944
  21874236.227   -18363250.292 8 -13746521.52047  21874235.852    21874242.9574
  21270131.738   -23418988.964 9 -18236689.15247  21270131.354    21270138.9084
  24563866.616    -3127363.274 7  -2016004.82945  24563866.119    24563882.7714
 01  5 27  1 56 30.0000000  0  7 20 21 29 25 14 11 01
  23589681.526    -8715819.813 8  -6578224.96945  23589680.844    23589690.9864
  22520413.127   -15216120.363 8 -11833737.86146  22520412.643    22520422.7014
  21260205.169   -19917291.897 9 -14714187.24847  21260205.026    21260212.1224
  20880513.415   -25081753.014 9 -19083499.56148  20880513.272    20880520.8144
  21887461.882   -18293748.767 8 -13692364.51147  21887461.526    21887468.6644
  21264405.918   -23449078.288 9 -18260135.33547  21264405.548    21264413.0934
  24548193.250    -3209726.136 7  -2080183.31045  24548192.640    24548209.2944
 01  5 27  1 57  0.0000000  0  7 20 21 29 25 14 11 01
  23573522.199    -8800737.235 8  -6644394.24045  23573521.570    23573531.6044
  22531653.385   -15157053.342 8 -11787711.70346  22531652.891    22531662.8544
  21270270.043   -19864400.435 9 -14672973.13647  21270269.918    21270277.0054
  20874571.140   -25112979.642 9 -19107831.94048  20874571.015    20874578.5364
  21900713.573   -18224110.567 9 -13638100.99847  21900713.222    21900720.2954
  21258783.857   -23478622.202 9 -18283156.52747  21258783.490    21258791.0544
  24532549.228    -3291934.375 7  -2144241.30645  24532548.760    24532565.2194
 01  5 27  1 57 30.0000000  0  7 20 21 29 25 14 11 01
  23557365.967    -8885638.418 8  -6710550.85245  23557365.306    23557375.3224
  22542943.142   -15097725.808 8 -11741482.54546  22542942.615    22542952.6044
  21280366.297   -19811344.679 9 -14631630.99747  21280366.159    21280373.2374
  20868727.131   -25143689.938 9 -19131761.98048  20868726.991    20868734.5314
  21913990.807   -18154338.131 8 -13583732.88847  21913990.470    21913997.5244
  21253265.499   -23507620.862 9 -18305752.84547  21253265.151    21253272.7514
  24516934.504    -3373988.521 7  -2208179.23445  24516934.141    24516950.4454
 01  5 27  1 58  0.0000000  0  7 20 21 29 25 14 11 01
  23541213.200    -8970521.051 8  -6776693.01345  23541212.558    23541222.5404
  22554282.757   -15038135.495 8 -11695048.62646  22554282.275    22554292.3224
  21290493.833   -19758124.551 9 -14590160.78147  21290493.638    21290500.7724
  20862981.817   -25173881.356 9 -19155287.70148  20862981.698    20862989.2954
  21927293.633   -18084431.350 8 -13529260.10647  21927293.271    21927300.3154
  21247851.569   -23536071.254 9 -18327921.94847  21247851.189    21247858.7904
  24501349.437    -3455886.536 7  -2271995.49845  24501348.930    24501365.4284
 01  5 27  1 58 30.0000000  0  7 20 21 29 25 14 11 01
  23525063.835    -9055386.213 8  -6842821.57145  23525063.128    23525073.1104
  22565671.959   -14978284.354 8 -11648411.45246  22565671.520    22565681.6754
  21300651.856   -19704743.587 9 -14548565.24347  21300651.696    21300658.8714
  20857334.948   -25203555.584 9 -19178410.42448  20857334.838    20857342.4574
  21940621.473   -18014393.667 9 -13474685.30747  21940621.104    21940628.0484
  21242541.656   -23563974.635 9 -18349664.81547  21242541.265    21242548.9154
  24485793.892    -3537629.995 8  -2335691.34545  24485793.318    24485809.8924
 01  5 27  1 59  0.0000000  0  7 20 21 29 25 14 11 01
  23508918.010    -9140232.767 8  -6908935.63245  23508917.295    23508927.2394
  22577110.968   -14918172.239 8 -11601570.93646  22577110.532    22577120.8004
  21310840.278   -19651202.624 9 -14506845.03447  21310840.143    21310847.3744
  20851786.777   -25232711.362 9 -19201129.15948  20851786.659    20851794.1994
  21953973.998   -17944226.442 9 -13420009.57647  21953973.520    21953980.4154
  21237336.131   -23591329.505 9 -18370980.27047  21237335.739    21237343.4464
  24470267.875    -3619218.314 7  -2399266.29745  24470267.407    24470283.8914
 01  5 27  1 59 30.0000000  0  7 20 21 29 25 14 11 01
  23492776.382    -9225057.398 8  -6975032.62546  23492775.611    23492785.5274
  22588600.248   -14857796.451 8 -11554524.96646  22588599.717    22588610.0754
  21321059.334   -19597500.973 9 -14464999.61547  21321059.208    21321066.4324
  20846337.777   -25261345.778 9 -19223441.64248  20846337.661    20846345.1334
  21967351.159   -17873929.135 9 -13365232.47647  21967350.700    21967357.5894
  21232235.637   -23618132.519 9 -18391865.71547  21232235.260    21232242.9644
  24454771.804    -3700649.032 7  -2462718.45645  24454771.365    24454787.8834
 01  5 27  2  0  0.0000000  0  7 20 21 29 25 14 11 01
  23476638.552    -9309861.489 8  -7041113.61746  23476637.793    23476647.7754
  22600139.271   -14797159.671 8 -11507275.60446  22600138.679    22600149.0094
  21331308.338   -19543642.255 9 -14423031.80747  21331308.233    21331315.4024
  20840987.691   -25289460.481 9 -19245349.14648  20840987.585    20840995.0104
  21980752.375   -17803505.591 9 -13310357.01647  21980751.912    21980758.7544
  21227240.001   -23644385.071 9 -18412322.23347  21227239.618    21227247.2624
  24439305.491    -3781924.007 8  -2526049.29545  24439305.091    24439321.4394
 01  5 27  2  0 30.0000000  0  7 20 21 29 25 14 11 01
  23460504.811    -9394644.304 8  -7107178.03046  23460504.012    23460514.0104
  22611727.954   -14736261.329 8 -11459822.43046  22611727.387    22611737.7104
  21341586.973   -19489627.834 9 -14380942.67547  21341586.847    21341593.9854
  20835736.641   -25317054.828 9 -19266851.18848  20835736.500    20835743.8974
  21994177.409   -17732957.071 9 -13255384.17147  21994176.928    21994183.7124
  21222349.274   -23670086.087 9 -18432348.98847  21222348.894    21222356.5014
  24423868.921    -3863042.917 8  -2589258.51445  24423868.579    24423884.5764
 01  5 27  2  1  0.0000000  0  7 20 21 29 25 14 11 01
  23444375.666    -9479402.606 8  -7173223.34946  23444374.997    23444384.9704
  22623366.845   -14675099.092 8 -11412163.60646  22623366.279    22623376.5634
  21351895.338   -19435456.983 9 -14338731.64247  21351895.201    21351902.3684
  20830585.085   -25344126.111 9 -19287945.64148  20830584.956    20830592.3794
  22007626.271   -17662283.188 9 -13200313.62447  22007625.778    22007632.6014
  21217564.059   -23695232.674 9 -18451943.71947  21217563.666    21217571.2494
  24408462.416    -3944003.175 8  -2652344.10445  24408461.994    24408477.9434
 01  5 27  2  1 30.0000000  0  7 20 21 29 25 14 11 01
  23428250.971    -9564137.873 8  -7239250.72746  23428250.310    23428260.2434
  22635055.357   -14613675.793 8 -11364301.36346  22635054.817    22635065.1234
  21362232.761   -19381133.389 9 -14296401.59147  21362232.644    21362239.8394
  20825532.788   -25370675.843 9 -19308633.68848  20825532.664    20825540.0994
  22021098.206   -17591487.627 8 -13145148.28447  22021097.731    22021104.6694
  21212884.079   -23719826.073 9 -18471107.40647  21212883.667    21212891.2024
  24393085.541    -4024806.900 8  -2715307.72045  24393085.070    24393101.0884
 01  5 27  2  2  0.0000000  0  7 20 21 29 25 14 11 01
  23412131.161    -9648847.111 8  -7305257.83646  23412130.530    23412140.5154
  22646793.875   -14551989.458 8 -11316234.15046  22646793.321    22646803.5824
  21372599.345   -19326656.657 9 -14253952.20747  21372599.227    21372606.4154
  20820580.280   -25396701.479 9 -19328913.34748  20820580.142    20820587.5504
  22034593.319   -17520570.191 9 -13089887.97747  22034592.869    22034599.8424
  21208309.787   -23743863.652 9 -18489837.99047  21208309.413    21208316.9084
  24377738.856    -4105452.014 7  -2778147.75445  24377738.443    24377754.5014
 01  5 27  2  2 30.0000000  0  7 20 21 29 25 14 11 01
  23396016.687    -9733528.275 8  -7371243.09946  23396016.036    23396026.1214
  22658582.849   -14490038.712 8 -11267960.91846  22658582.289    22658592.4214
  21382995.112   -19272026.751 9 -14211383.47647  21382994.971    21383002.0964
  20815727.799   -25422201.334 9 -19348783.31848  20815727.632    20815735.0194
  22048111.622   -17449531.003 8 -13034532.80847  22048111.140    22048118.1554
  21203841.753   -23767343.138 9 -18508133.70647  21203841.386    21203848.8494
  24362422.822    -4185936.882 8  -2840862.89945  24362422.486    24362438.5144
 01  5 27  2  3  0.0000000  0  7 20 21 29 25 14 11 01
  23379907.027    -9818184.074 8  -7437208.56146  23379906.398    23379916.5724
  22670421.609   -14427827.001 8 -11219484.33846  22670420.973    22670430.9054
  21393419.024   -19217248.810 9 -14168699.38147  21393418.864    21393425.9794
  20810974.684   -25447178.688 9 -19368246.13348  20810974.522    20810981.8784
  22061652.070   -17378375.397 8 -12979086.92147  22061651.596    22061658.6584
  21199479.416   -23790267.326 9 -18525996.71147  21199479.066    21199486.4864
  24347136.797    -4266264.923 8  -2903455.86545  24347136.468    24347152.3274
 01  5 27  2  3 30.0000000  0  7 20 21 29 25 14 11 01
  23363802.897    -9902811.528 8  -7503151.95846  23363802.196    23363812.3964
  22682310.315   -14365352.515 8 -11170803.00146  22682309.613    22682319.4824
  21403871.258   -19162322.117 9 -14125899.38247  21403871.098    21403878.2114
  20806321.530   -25471630.620 9 -19387299.53448  20806321.404    20806328.7814
  22075214.821   -17307102.648 8 -12923549.74847  22075214.347    22075221.4394
  21195223.316   -23812633.449 9 -18543424.85947  21195222.962    21195230.3514
  24331881.118    -4346433.662 8  -2965924.69345  24331880.690    24331896.4414
 01  5 27  2  4  0.0000000  0  7 20 21 29 25 14 11 01
  23347704.242    -9987410.219 8  -7569072.93946  23347703.501    23347713.7624
  22694248.748   -14302615.750 8 -11121917.30746  22694248.089    22694257.9854
  21414351.354   -19107248.758 9 -14082985.09747  21414351.193    21414358.3914
  20801768.215   -25495557.834 9 -19405944.06548  20801768.106    20801775.5194
  22088799.484   -17235715.038 8 -12867923.07647  22088798.993    22088806.0894
  21191073.479   -23834441.225 9 -18560417.93447  21191073.105    21191080.4674
  24316655.597    -4426443.555 8  -3028269.73245  24316655.180    24316670.7584
 01  5 27  2  4 30.0000000  0  7 20 21 29 25 14 11 01
  23331611.170   -10071979.020 8  -7634970.64346  23331610.462    23331620.6324
  22706237.086   -14239616.373 8 -11072826.95346  22706236.480    22706246.4224
  21424859.164   -19052029.716 9 -14039957.28047  21424859.039    21424866.3034
  20797315.039   -25518959.268 9 -19424178.89348  20797314.919    20797322.3714
  22102405.652   -17164213.738 8 -12812207.81847  22102405.203    22102412.3484
  21187030.074   -23855689.731 9 -18576975.20947  21187029.685    21187037.0324
  24301460.327    -4506294.098 8  -3090490.62645  24301459.850    24301475.2874
 01  5 27  2  5  0.0000000  0  7 20 21 29 25 14 11 01
  23315524.749   -10156513.486 8  -7700841.58845  23315524.019    23315534.0814
  22718275.909   -14176351.208 8 -11023529.51246  22718275.395    22718285.5224
  21435395.152   -18996663.002 9 -13996814.39847  21435395.015    21435402.2824
  20792962.637   -25541831.126 9 -19442001.06948  20792962.512    20792969.9594
  22116033.874   -17092596.708 8 -12756402.38547  22116033.468    22116040.6094
  21183093.814   -23876374.789 9 -18593093.44047  21183093.449    21183100.7844
  24286296.063    -4585981.620 8  -3152584.47245  24286295.538    24286311.0284
 01  5 27  2  5 30.0000000  0  7 20 21 29 25 14 11 01
  23299444.011   -10241017.340 8  -7766688.66245  23299443.371    23299453.3864
  22730364.379   -14112825.470 8 -10974029.01446  22730363.886    22730374.2304
  21445957.969   -18941154.837 9 -13953561.28847  21445957.852    21445965.0904
  20788710.153   -25564178.021 9 -19459414.17748  20788710.036    20788717.4564
  22129683.033   -17020870.208 8 -12700511.65547  22129682.610    22129689.7224
  21179263.997   -23896500.556 9 -18608775.84847  21179263.631    21179271.0094
  24271161.878    -4665510.757 8  -3214554.91645  24271161.346    24271176.8224
 01  5 27  2  6  0.0000000  0  7 20 21 29 25 14 11 01
  23283370.267   -10325485.322 8  -7832507.79646  23283369.659    23283379.5354
  22742503.490   -14049034.431 8 -10924321.80846  22742502.923    22742513.3244
  21456548.306   -18885502.273 9 -13910195.66247  21456548.181    21456555.4234
  20784558.499   -25585994.882 9 -19476414.27348  20784558.380    20784565.8034
  22143353.444   -16949031.778 8 -12644533.70747  22143352.996    22143360.1444
  21175541.629   -23916061.945 9 -18624018.49447  21175541.268    21175548.6374
  24256058.650    -4744876.925 7  -3276398.38745  24256058.151    24256073.4754
 01  5 27  2  6 30.0000000  0  7 20 21 29 25 14 11 01
  23267303.077   -10409918.952 8  -7898300.13646  23267302.501    23267312.2824
  22754692.487   -13984980.773 8 -10874409.96346  22754691.924    22754702.3824
  21467165.365   -18829708.992 9 -13866720.39047  21467165.281    21467172.5604
  20780507.267   -25607284.027 9 -19493003.15948  20780507.144    20780514.5394
  22157044.456   -16877085.113 8 -12588471.41747  22157044.058    22157051.1994
  21171926.279   -23935060.692 9 -18638822.70947  21171925.901    21171933.2904
  24240986.051    -4824082.280 7  -3338116.53245  24240985.606    24241000.7264
 01  5 27  2  7  0.0000000  0  7 20 21 29 25 14 11 01
  23251242.567   -10494317.198 8  -7964064.90846  23251242.021    23251251.7484
  22766931.559   -13920664.430 8 -10824293.41346  22766931.011    22766941.5144
  21477808.980   -18773776.505 9 -13823136.64647  21477808.922    21477816.1814
  20776556.537   -25628045.222 9 -19509180.65948  20776556.409    20776563.7684
  22170755.844   -16805031.611 8 -12532325.87547  22170755.405    22170762.5424
  21168418.123   -23953496.111 9 -18653187.96247  21168417.749    21168425.1574
  24225944.127    -4903126.641 8  -3399709.21945  24225943.670    24225958.7564
 01  5 27  2  7 30.0000000  0  7 20 21 29 25 14 11 01
  23235189.183   -10578678.345 8  -8029800.75046  23235188.593    23235198.2724
  22779220.951   -13856084.696 8 -10773971.62746  22779220.294    22779230.8034
  21488479.045   -18717705.370 9 -13779444.87047  21488478.906    21488486.1734
  20772706.524   -25648277.124 9 -19524945.72148  20772706.395    20772713.7444
  22184487.339   -16732872.254 8 -12476097.83747  22184486.919    22184494.0534
  21165017.324   -23971367.207 9 -18667113.47147  21165016.924    21165024.4084
  24210932.908    -4982009.337 8  -3461175.95745  24210932.360    24210947.4384
 01  5 27  2  8  0.0000000  0  7 20 21 29 25 14 11 01
  23219143.019   -10663001.898 8  -8095507.29346  23219142.323    23219151.9314
  22791560.135   -13791242.365 8 -10723445.22946  22791559.492    22791569.9954
  21499175.000   -18661497.482 9 -13735646.53247  21499174.891    21499182.1864
  20768957.124   -25667980.308 9 -19540298.80248  20768956.980    20768964.2694
  22198238.597   -16660608.763 8 -12419788.66847  22198238.210    22198245.3924
  21161723.973   -23988673.644 9 -18680598.98847  21161723.583    21161731.0734
  24195952.576    -5060730.531 8  -3522516.86745  24195952.132    24195966.8944
 01  5 27  2  8 30.0000000  0  7 20 21 29 25 14 11 01
  23203104.087   -10747286.824 8  -8161183.72046  23203103.376    23203112.9624
  22803949.135   -13726137.934 8 -10672714.58346  22803948.555    22803959.0444
  21509896.792   -18605154.089 9 -13691742.59447  21509896.678    21509904.0054
  20765308.460   -25687154.207 9 -19555239.44948  20765308.296    20765315.5134
  22212009.451   -16588242.580 8 -12363399.47547  22212009.056    22212016.2834
  21158538.292   -24005414.865 9 -18693644.07847  21158537.899    21158545.3214
  24181003.201    -5139290.132 8  -3583731.85945  24181002.621    24181017.0484
 01  5 27  2  9  0.0000000  0  7 20 21 29 25 14 11 01
  23187073.169   -10831529.436 8  -8226827.19046  23187072.474    23187082.0434
  22816388.619   -13660768.300 8 -10621777.29546  22816388.023    22816398.5324
  21520644.605   -18548673.902 9 -13647732.07847  21520644.508    21520651.8164
  20761761.050   -25705795.909 9 -19569765.39648  20761760.882    20761768.0344
  22225800.076   -16515772.808 8 -12306929.55747  22225799.639    22225806.8714
  21155460.759   -24021587.850 9 -18706246.38247  21155460.339    21155467.6834
  24166084.970    -5217685.357 7  -3644818.75145  24166084.378    24166098.4974
 01  5 27  2  9 30.0000000  0  7 20 21 29 25 14 11 01
  23171050.084   -10915730.869 8  -8292438.54346  23171049.337    23171058.9194
  22828878.107   -13595135.591 8 -10570635.00546  22828877.497    22828888.0454
  21531417.866   -18492060.304 9 -13603617.60747  21531417.760    21531425.0364
  20758314.399   -25723907.676 9 -19583878.40948  20758314.238    20758321.3854
  22239609.660   -16443202.847 8 -12250381.56747  22239609.229    22239616.4824
  21152490.985   -24037194.019 9 -18718407.01347  21152490.556    21152497.8914
  24151197.565    -5295918.004 8  -3705778.97845  24151197.015    24151211.0174
 01  5 27  2 10  0.0000000  0  7 20 21 29 25 14 11 01
  23155035.198   -10999888.757 8  -8358015.97146  23155034.483    23155044.0554
  22841417.727   -13529239.038 8 -10519287.13446  22841417.156    22841427.8494
  21542216.411   -18435313.348 9 -13559399.22347  21542216.344    21542223.5964
  20754968.896   -25741487.745 9 -19597577.11748  20754968.734    20754975.9494
  22253438.342   -16370532.789 8 -12193755.58047  22253437.935    22253445.2364
  21149629.365   -24052231.539 9 -18730124.53847  21149628.957    21149636.3444
  24136341.271    -5373986.723 7  -3766611.48045  24136340.710    24136354.7704
 01  5 27  2 10 30.0000000  0  7 20 21 29 25 14 11 01
  23139028.341   -11084004.749 8  -8423560.76246  23139027.695    23139037.2284
  22854007.190   -13463081.348 8 -10467735.76646  22854006.561    22854017.3464
  21553039.560   -18378437.149 9 -13515080.12547  21553039.521    21553046.7774
  20751724.047   -25758538.815 9 -19610863.61848  20751723.911    20751731.1834
  22267285.363   -16297766.660 8 -12137054.72747  22267284.939    22267292.2204
  21146875.519   -24066702.477 9 -18741400.56947  21146875.143    21146882.6134
  24121515.543    -5451893.904 7  -3827318.09645  24121515.133    24121529.2804
 01  5 27  2 11  0.0000000  0  7 20 21 29 25 14 11 01
  23123030.755   -11168072.480 8  -8489067.93246  23123030.019    23123039.4884
  22866647.402   -13396657.198 8 -10415976.78346  22866646.779    22866657.5094
  21563888.178   -18321427.462 9 -13470657.02047  21563888.091    21563895.3994
  20748581.040   -25775055.155 9 -19623733.44748  20748580.896    20748588.1584
  22281151.424   -16224900.442 8 -12080275.88647  22281151.050    22281158.2494
  21144230.628   -24080601.122 9 -18752230.65447  21144230.264    21144237.8014
  24106721.706    -5529633.912 7  -3887894.47145  24106721.325    24106735.7224
 01  5 27  2 11 30.0000000  0  7 20 21 29 25 14 11 01
  23107041.563   -11252095.534 8  -8554540.31546  23107040.859    23107050.3384
  22879337.311   -13329972.119 8 -10364014.49746  22879336.664    22879347.3624
  21574761.010   -18264290.527 9 -13426134.75547  21574760.904    21574768.2094
  20745538.899   -25791041.749 9 -19636190.49048  20745538.762    20745545.9584
  22295035.361   -16151940.588 8 -12023424.08047  22295034.928    22295042.1314
  21141693.800   -24093932.137 9 -18762618.42947  21141693.430    21141700.9674
  24091958.897    -5607211.810 8  -3948344.51645  24091958.525    24091972.7764
 01  5 27  2 12  0.0000000  0  7 20 21 29 25 14 11 01
  23091061.325   -11336071.646 8  -8619976.12246  23091060.651    23091070.1034
  22892077.197   -13263024.370 8 -10311847.52046  22892076.555    22892087.2724
  21585658.025   -18207026.251 9 -13381513.26347  21585657.920    21585665.2684
  20742597.872   -25806496.960 9 -19648233.46348  20742597.708    20742604.9184
  22308936.960   -16078887.079 8 -11966499.29247  22308936.545    22308943.7724
  21139265.385   -24106693.777 9 -18772562.53647  21139265.011    21139272.5064
  24077227.488    -5684626.093 8  -4008667.07445  24077226.893    24077241.0804
 01  5 27  2 12 30.0000000  0  7 20 21 29 25 14 11 01
  23075090.540   -11419998.545 8  -8685373.58246  23075089.798    23075099.2544
  22904867.142   -13195812.995 8 -10259475.11546  22904866.441    22904877.2974
  21596579.302   -18149634.635 9 -13336792.54847  21596579.199    21596586.5494
  20739758.230   -25821419.321 9 -19659861.23148  20739758.094    20739765.2824
  22322856.432   -16005739.980 8 -11909501.58147  22322855.998    22322863.2634
  21136945.676   -24118884.212 9 -18782061.55147  21136945.297    21136952.7044
  24062527.311    -5761875.130 8  -4068860.86745  24062526.720    24062540.7234
 01  5 27  2 13  0.0000000  0  7 20 21 29 25 14 11 01
  23059129.088   -11503875.470 8  -8750732.10346  23059128.438    23059137.8094
  22917706.924   -13128338.757 8 -10206897.86646  22917706.303    22917717.3244
  21607524.553   -18092117.351 9 -13291973.91147  21607524.452    21607531.7834
  20737019.894   -25835809.400 9 -19671074.23248  20737019.750    20737026.9004
  22336793.304   -15932501.297 8 -11852432.51647  22336792.830    22336800.1504
  21134734.658   -24130503.506 9 -18791115.51747  21134734.258    21134741.6504
  24047858.447    -5838959.410 8  -4128926.27745  24047857.895    24047871.8594
 01  5 27  2 13 30.0000000  0  7 20 21 29 25 14 11 01
  23043177.988   -11587698.496 8  -8816048.64346  23043177.311    23043186.7104
  22930597.274   -13060598.802 8 -10154113.58946  22930596.758    22930607.8874
  21618493.911   -18034472.898 9 -13247056.18047  21618493.818    21618501.1804
  20734383.297   -25849664.582 9 -19681870.43648  20734383.155    20734390.2824
  22350747.834   -15859169.407 8 -11795290.81446  22350747.360    22350754.7014
  21132632.805   -24141548.589 9 -18799722.05247  21132632.403    21132639.8094
  24033221.557    -5915875.940 8  -4188860.97545  24033221.108    24033234.9124
 01  5 27  2 14  0.0000000  0  7 20 21 29 25 14 11 01
  23027236.291   -11671472.343 8  -8881326.84746  23027235.576    23027244.9024
  22943537.244   -12992599.506 8 -10101127.22846  22943536.660    22943547.7634
  21629486.157   -17976708.383 9 -13202044.89147  21629486.078    21629493.4574
  20731847.522   -25862990.380 9 -19692254.13148  20731847.341    20731854.4144
  22364718.741   -15785751.557 8 -11738082.13946  22364718.308    22364725.5734
  21130639.154   -24152025.046 9 -18807885.50547  21130638.753    21130646.1564
  24018615.564    -5992630.457 8  -4248669.43545  24018615.010    24018628.8694
 01  5 27  2 14 30.0000000  0  7 20 21 29 25 14 11 01
  23011305.012   -11755191.723 8  -8946562.62246  23011304.265    23011313.5544
  22956527.331   -12924336.802 8 -10047935.62046  22956526.737    22956537.7654
  21640501.817   -17918821.019 9 -13156937.87847  21640501.712    21640509.0724
  20729413.179   -25875782.601 9 -19702222.05448  20729412.976    20729420.0574
  22378706.621   -15712244.954 8 -11680804.29246  22378706.164    22378713.3994
  21128754.604   -24161928.420 9 -18815602.39847  21128754.218    21128761.5584
  24004041.016    -6069218.770 8  -4308348.38945  24004040.489    24004054.4244
 01  5 27  2 15  0.0000000  0  7 20 21 29 25 14 11 01
  22995384.388   -11838855.212 8  -9011754.85546  22995383.607    22995392.8164
  22969567.593   -12855810.572 8  -9994538.66346  22969567.039    22969577.9544
  21651540.667   -17860811.671 9 -13111735.80947  21651540.560    21651547.8734
  20727080.410   -25888040.979 9 -19711773.99548  20727080.221    20727087.3014
  22392711.167   -15638650.776 8 -11623458.21546  22392710.719    22392717.9284
  21126979.209   -24171258.132 9 -18822872.29147  21126978.807    21126986.0984
  23989498.293    -6145640.564 8  -4367897.60445  23989497.727    23989511.6494
 01  5 27  2 15 30.0000000  0  7 20 21 29 25 14 11 01
  22979474.340   -11922462.980 8  -9076903.66746  22979473.502    22979482.6704
  22982657.769   -12787022.173 8  -9940937.39446  22982657.177    22982668.0654
  21662602.267   -17802682.696 9 -13066440.52947  21662602.182    21662609.5014
  20724848.966   -25899766.968 9 -19720911.08548  20724848.776    20724855.8704
  22406732.044   -15564971.322 8 -11566045.68846  22406731.532    22406738.7054
  21125312.790   -24180015.148 9 -18829695.93347  21125312.381    21125319.6464
  23974987.051    -6221896.808 8  -4427317.81245  23974986.512    23975000.3474
 01  5 27  2 16  0.0000000  0  7 20 21 29 25 14 11 01
  22963574.643   -12006015.601 8  -9142009.51046  22963573.909    22963582.9474
  22995797.198   -12717973.943 8  -9887133.67546  22995796.641    22995807.6474
  21673686.098   -17744437.245 9 -13021054.48547  21673685.949    21673693.2374
  20722718.491   -25910962.499 9 -19729634.83048  20722718.311    20722725.3824
  22420768.405   -15491209.934 8 -11508569.30746  22420767.895    22420775.0244
  21123754.959   -24188201.286 9 -18836074.74047  21123754.579    21123761.8554
  23960506.926    -6297989.363 8  -4486610.47645  23960506.407    23960520.1594
 01  5 27  2 16 30.0000000  0  7 20 21 29 25 14 11 01
  22947686.809   -12089506.803 8  -9207067.49646  22947686.067    22947694.9864
  23008986.983   -12648661.382 8  -9833123.97746  23008986.470    23008997.5204
  21684792.815   -17686071.277 9 -12975574.52647  21684792.650    21684799.8784
  20720690.021   -25921622.275 9 -19737941.11148  20720689.845    20720696.8474
  22434821.104   -15417362.607 8 -11451025.97846  22434820.607    22434827.7754
  21122306.869   -24195810.942 9 -18842004.34547  21122306.482    21122313.7854
  23946058.833    -6373913.116 8  -4545771.61545  23946058.379    23946072.2144
 01  5 27  2 17  0.0000000  0  7 20 21 29 25 14 11 01
  22931810.555   -12172937.263 8  -9272078.14746  22931809.749    22931818.6144
  23022226.888   -12579085.824 8  -9778909.33046  23022226.413    23022237.3614
  21695921.824   -17627587.977 9 -12930003.14947  21695921.656    21695928.9094
  20718763.189   -25931748.050 9 -19745831.28448  20718762.999    20718769.9444
  22448889.408   -15343432.553 8 -11393418.17646  22448888.968    22448896.2324
  21120968.156   -24202845.836 9 -18847486.08347  21120967.758    21120975.0864
  23931642.747    -6449669.595 8  -4604802.40645  23931642.318    23931655.9784
 01  5 27  2 17 30.0000000  0  7 20 21 29 25 14 11 01
  22915945.340   -12256309.095 8  -9337043.11046  22915944.532    22915953.4004
  23035516.061   -12509251.029 8  -9724492.69246  23035515.614    23035526.4184
  21707072.290   -17568991.940 9 -12884343.92547  21707072.137    21707079.4424
  20716937.179   -25941343.653 9 -19753308.33548  20716936.993    20716943.9434
  22462972.588   -15269424.569 8 -11335749.64146  22462972.188    22462979.5474
  21119738.218   -24209309.271 9 -18852522.52547  21119737.840    21119745.0964
  23917257.847    -6525262.046 8  -4663705.39145  23917257.448    23917271.0084
 01  5 27  2 18  0.0000000  0  7 20 21 29 25 14 11 01
  22900092.559   -12339615.250 8  -9401956.89146  22900091.737    22900100.6614
  23048855.486   -12439151.358 8  -9669869.67246  23048855.060    23048865.9274
  21718245.179   -17510278.315 9 -12838593.07747  21718245.032    21718252.2734
  20715213.102   -25950403.398 9 -19760367.83948  20715212.927    20715219.9204
  22477071.700   -15195333.899 8 -11278016.68946  22477071.207    22477078.6114
  21118618.192   -24215195.126 9 -18857108.90747  21118617.815    21118624.9874
  23902905.242    -6600684.611 8  -4722476.01845  23902904.924    23902918.3714
 01  5 27  2 18 30.0000000  0  7 20 21 29 25 14 11 01
  22884251.619   -12422858.916 8  -9466821.98946  22884250.863    22884259.8164
  23062244.421   -12368791.639 8  -9615044.02146  23062244.031    23062254.9294
  21729439.362   -17451452.667 9 -12792754.93947  21729439.202    21729446.3724
  20713590.117   -25958931.775 9 -19767013.29348  20713589.950    20713596.9674
  22491185.363   -15121166.292 8 -11220223.80046  22491184.867    22491192.2864
  21117607.263   -24220507.766 9 -18861248.62847  21117606.875    21117614.0304
  23888584.168    -6675941.407 8  -4781117.47345  23888583.818    23888597.2094
 01  5 27  2 19  0.0000000  0  7 20 21 29 25 14 11 01
  22868423.071   -12506037.495 8  -9531636.36646  22868422.331    22868431.2944
  23075683.159   -12298170.898 8  -9560014.97246  23075682.827    23075693.7374
  21740654.852   -17392514.968 8 -12746829.48347  21740654.668    21740661.8354
  20712068.492   -25966927.615 9 -19773243.78248  20712068.314    20712075.3654
  22505313.667   -15046921.852 8 -11162371.03046  22505313.176    22505320.5994
  21116705.650   -24225245.897 9 -18864940.68147  21116705.239    21116712.4284
  23874294.934    -6751031.287 8  -4839628.86745  23874294.491    23874307.9594
 01  5 27  2 19 30.0000000  0  7 20 21 29 25 14 11 01
  22852607.783   -12589146.781 8  -9596396.74646  22852607.080    22852615.9854
  23089172.140   -12227286.206 8  -9504780.23246  23089171.769    23089182.8144
  21751891.939   -17333463.292 8 -12700815.21147  21751891.789    21751898.9994
  20710648.750   -25974388.225 9 -19779057.20348  20710648.596    20710655.6174
  22519456.947   -14972598.569 8 -11104456.81846  22519456.425    22519463.8544
  21115913.915   -24229406.326 9 -18868182.57747  21115913.507    21115920.7504
  23860037.948    -6825951.075 8  -4898007.71545  23860037.540    23860050.9634
 01  5 27  2 20  0.0000000  0  7 20 21 29 25 14 11 01
  22836805.110   -12672190.060 8  -9661105.69346  22836804.380    22836813.3304
  23102710.532   -12156142.440 8  -9449343.62946  23102710.126    23102721.2294
  21763149.742   -17274303.188 9 -12654716.45547  21763149.615    21763156.8484
  20709330.071   -25981317.913 9 -19784456.92948  20709329.899    20709336.8954
  22533614.094   -14898202.029 8 -11046485.52746  22533613.653    22533620.9874
  21115231.270   -24232993.408 9 -18870977.72047  21115230.900    21115238.1894
  23845812.363    -6900705.101 8  -4956257.41945  23845812.059    23845825.4934
 01  5 27  2 20 30.0000000  0  7 20 21 29 25 14 11 01
  22821015.423   -12755164.307 8  -9725760.84846  22821014.720    22821023.7624
  23116298.443   -12084738.500 8  -9393704.27746  23116298.020    23116309.1354
  21774428.336   -17215034.345 9 -12608532.96347  21774428.167    21774435.4634
  20708112.575   -25987715.501 9 -19789442.02548  20708112.422    20708119.4004
  22547785.288   -14823732.079 8 -10988457.04046  22547784.843    22547792.1224
  21114658.096   -24236005.626 9 -18873324.91747  21114657.707    21114664.9684
  23831618.889    -6975291.796 8  -5014376.71945  23831618.514    23831631.7164
 01  5 27  2 21  0.0000000  0  7 20 21 29 25 14 11 01
  22805238.952   -12838069.592 8  -9790362.25846  22805238.233    22805247.3104
  23129935.667   -12013075.632 8  -9337863.16446  23129935.248    23129946.3664
  21785727.122   -17155658.990 9 -12562266.48447  21785726.955    21785734.3164
  20706996.048   -25993582.624 9 -19794013.77648  20706995.905    20707002.8824
  22561970.008   -14749191.230 8 -10930373.32646  22561969.553    22561976.8134
  21114194.092   -24238444.165 9 -18875225.08947  21114193.708    21114200.9204
  23817457.049    -7049712.369 8  -5072366.56945  23817456.638    23817469.6824
 01  5 27  2 21 30.0000000  0  7 20 21 29 25 14 11 01
  22789476.701   -12920900.353 8  -9854905.60446  22789475.944    22789485.0744
  23143622.774   -11941149.999 8  -9281817.32146  23143622.373    23143633.5454
  21797046.671   -17096174.153 8 -12515914.68747  21797046.519    21797053.9454
  20705981.256   -25998915.276 9 -19798169.05448  20705981.108    20705988.1104
  22576168.831   -14674576.370 8 -10872231.92046  22576168.344    22576175.6054
  21113840.005   -24240304.872 9 -18876675.00047  21113839.593    21113846.8164
  23803327.660    -7123962.623 8  -5130223.73045  23803327.259    23803340.1174
 01  5 27  2 22  0.0000000  0  7 20 21 29 25 14 11 01
  22773728.442   -13003657.944 8  -9919391.92946  22773727.677    22773736.8274
  23157359.173   -11868964.730 8  -9225569.15046  23157358.804    23157369.9494
  21808386.427   -17036583.555 8 -12469480.47447  21808386.238    21808393.6734
  20705067.591   -26003716.374 9 -19801910.13648  20705067.440    20705074.4424
  22590380.973   -14599891.327 8 -10814035.82646  22590380.495    22590387.7424
  21113595.292   -24241590.341 9 -18877676.66247  21113594.922    21113602.1644
  23789230.209    -7198044.940 8  -5187950.02045  23789229.779    23789242.5844
 01  5 27  2 22 30.0000000  0  7 20 21 29 25 14 11 01
  22757994.057   -13086342.558 8  -9983821.40546  22757993.309    22758002.4234
  23171144.668   -11796521.579 8  -9169120.03946  23171144.310    23171155.5054
  21819745.751   -16976889.639 8 -12422965.75447  21819745.565    21819753.0474
  20704254.730   -26007987.677 9 -19805238.38748  20704254.583    20704261.6094
  22604605.976   -14525138.615 8 -10755787.00446  22604605.497    22604612.7434
  21113459.860   -24242302.183 9 -18878231.34347  21113459.446    21113466.7374
  23775164.440    -7271960.940 8  -5245546.72145  23775163.976    23775176.7764
 01  5 27  2 23  0.0000000  0  7 20 21 29 25 14 11 01
  22742274.439   -13168949.727 8 -10048190.53446  22742273.652    22742282.7494
  23184979.725   -11723817.814 8  -9112467.86846  23184979.342    23184990.5504
  21831125.195   -16917090.295 8 -12376368.90247  21831125.036    21831132.4814
  20703543.283   -26011726.326 9 -19808151.58748  20703543.145    20703550.1434
  22618844.181   -14450316.312 8 -10697483.96946  22618843.730    22618851.0134
  21113434.128   -24242437.374 9 -18878336.69947  21113433.704    21113441.0494
  23761130.936    -7345707.401 8  -5303011.29845  23761130.431    23761143.1894
 01  5 27  2 23 30.0000000  0  7 20 21 29 25 14 11 01
  22726569.970   -13251476.835 8 -10112497.28446  22726569.204    22726578.2454
  23198864.617   -11650851.987 8  -9055611.47745  23198864.200    23198875.4834
  21842524.781   -16857185.384 8 -12329689.78647  21842524.595    21842532.0284
  20702933.450   -26014931.181 9 -19810648.84948  20702933.307    20702940.2574
  22633095.741   -14375424.241 8 -10639126.57246  22633095.254    22633102.5394
  21113518.416   -24241994.597 9 -18877991.68847  21113517.966    21113525.3594
  23747129.808    -7419282.828 8  -5360342.60945  23747129.295    23747142.0264
 01  5 27  2 24  0.0000000  0  7 20 21 29 25 14 11 01
  22710879.926   -13333928.057 8 -10176744.89946  22710879.196    22710888.1444
  23212798.128   -11577630.316 8  -8998555.72545  23212797.755    23212809.2234
  21853943.156   -16797181.388 8 -12282933.45647  21853942.980    21853950.3714
  20702424.070   -26017608.135 9 -19812734.75848  20702423.910    20702430.8044
  22647359.280   -14300469.053 8 -10580719.99046  22647358.790    22647366.0834
  21113711.524   -24240979.570 9 -18877200.76247  21113711.082    21113718.4844
  23733160.198    -7492692.912 8  -5417545.09345  23733159.695    23733172.4584
 01  5 27  2 24 30.0000000  0  7 20 21 29 25 14 11 01
  22695205.935   -13416295.500 8 -10240927.24846  22695205.186    22695214.0124
  23226781.584   -11504146.853 8  -8941295.99245  23226781.224    23226792.7814
  21865381.386   -16737073.082 8 -12236095.85447  21865381.201    21865388.5844
  20702016.161   -26019751.369 9 -19814404.77548  20702015.993    20702022.8684
  22661635.794   -14225445.610 8 -10522260.21646  22661635.296    22661642.6544
  21114014.737   -24239385.834 9 -18875958.89647  21114014.302    21114021.7124
  23719223.266    -7565931.056 8  -5474613.60145  23719222.794    23719235.5294
 01  5 27  2 25  0.0000000  0  7 20 21 29 25 14 11 01
  22679547.296   -13498582.213 8 -10305046.69046  22679546.517    22679555.2934
  23240814.387   -11430405.392 8  -8883835.22645  23240813.969    23240825.5264
  21876838.406   -16676865.624 8 -12189180.98647  21876838.270    21876845.6734
  20701708.907   -26021365.641 9 -19815662.62248  20701708.765    20701715.6164
  22675924.215   -14150359.130 8 -10463751.30946  22675923.764    22675931.1904
  21114427.232   -24237218.149 9 -18874269.80147  21114426.816    21114434.2454
  23705318.201    -7639001.481 8  -5531551.41946  23705317.741    23705330.5094
 01  5 27  2 25 30.0000000  0  7 20 21 29 25 14 11 01
  22663904.351   -13580785.786 8 -10369101.34546  22663903.596    22663912.3814
  23254896.371   -11356405.666 8  -8826173.19445  23254895.960    23254907.2174
  21888314.351   -16616559.008 8 -12142188.84847  21888314.225    21888321.6824
  20701502.486   -26022450.240 9 -19816507.73548  20701502.348    20701509.1704
  22690224.637   -14075209.691 8 -10405193.35446  22690224.235    22690231.7164
  21114949.092   -24234475.681 9 -18872132.81247  21114948.685    21114956.0954
  23691445.206    -7711903.208 8  -5588357.79345  23691444.765    23691457.5714
 01  5 27  2 26  0.0000000  0  7 20 21 29 25 14 11 01
  22648277.260   -13662905.843 8 -10433090.92446  22648276.535    22648285.3214
  23269027.094   -11282149.456 8  -8768311.30745  23269026.627    23269037.8104
  21899808.783   -16556155.660 8 -12095121.33047  21899808.608    21899816.1124
  20701396.586   -26023006.569 9 -19816941.20448  20701396.432    20701403.2444
  22704536.761   -13999999.532 8 -10346588.09146  22704536.337    22704543.8304
  21115580.206   -24231159.510 9 -18869548.78647  21115579.778    21115587.1734
  23677604.233    -7784637.300 8  -5645033.51646  23677603.766    23677616.5544
 01  5 27  2 26 30.0000000  0  7 20 21 29 25 14 11 01
  22632666.951   -13744938.409 8 -10497012.33846  22632666.182    22632674.9004
  23283206.929   -11207634.822 8  -8710248.05345  23283206.361    23283217.5454
  21911321.958   -16495653.588 8 -12047976.88947  21911321.797    21911329.3094
  20701391.571   -26023032.674 9 -19816961.51748  20701391.435    20701398.2524
  22718860.709   -13924727.230 8 -10287934.42546  22718860.240    22718867.7114
  21116320.872   -24227267.449 9 -18866516.01647  21116320.465    21116327.8274
  23663795.696    -7857200.986 8  -5701576.48846  23663795.236    23663807.9994
 01  5 27  2 27  0.0000000  0  7 20 21 29 25 14 11 01
  22617073.273   -13826883.571 8 -10560865.64446  22617072.506    22617081.1374
  23297435.491   -11132863.642 8  -8651984.89345  23297434.841    23297446.0104
  21922853.393   -16435055.566 8 -12000757.68447  21922853.264    21922860.8194
  20701487.118   -26022530.552 9 -19816570.22748  20701486.969    20701493.7674
  22733195.956   -13849395.391 8 -10229234.34446  22733195.437    22733202.9184
  21117170.814   -24222801.387 9 -18863035.97347  21117170.397    21117177.7124
  23650019.325    -7929595.935 8  -5757987.97145  23650018.763    23650031.5754
 01  5 27  2 27 30.0000000  0  7 20 21 29 25 14 11 01
  22601496.385   -13908740.536 8 -10624650.23846  22601495.610    22601504.1544
  23311712.644   -11057836.697 8  -8593522.42045  23311712.017    23311723.3004
  21934402.786   -16374363.091 8 -11953464.87647  21934402.639    21934410.2364
  20701683.026   -26021500.941 9 -19815767.90848  20701682.883    20701689.6814
  22747542.178   -13774005.466 8 -10170489.00446  22747541.685    22747549.2404
  21118129.784   -24217761.992 9 -18859109.17847  21118129.363    21118136.6734
  23636274.822    -8001822.493 8  -5814268.24345  23636274.379    23636287.0574
 01  5 27  2 28  0.0000000  0  7 20 21 29 25 14 11 01
  22585937.214   -13990503.805 8 -10688361.80546  22585936.482    22585945.0164
  23326039.368   -10982550.032 8  -8534857.57945  23326038.689    23326049.9754
  21945970.803   -16313573.031 8 -11906096.03547  21945970.651    21945978.2584
  20701980.005   -26019940.369 9 -19814551.85448  20701979.848    20701986.6734
  22761899.931   -13698554.582 8 -10111696.14246  22761899.495    22761907.1464
  21119198.554   -24212145.526 9 -18854732.71647  21119198.133    21119205.4234
  23622563.109    -8073876.782 8  -5870414.25745  23622562.670    23622575.4504
 01  5 27  2 28 30.0000000  0  7 20 21 29 25 14 11 01
  22570394.732   -14072179.714 8 -10752005.29546  22570393.982    22570402.5404
  23340413.871   -10907011.942 8  -8475996.82145  23340413.208    23340424.5274
  21957555.717   -16252694.213 8 -11858658.02247  21957555.570    21957563.1314
  20702376.364   -26017857.337 9 -19812928.69048  20702376.203    20702383.0334
  22776267.712   -13623051.549 8 -10052862.66046  22776267.288    22776274.9864
  21120375.579   -24205960.210 9 -18849912.99747  21120375.129    21120382.4034
  23608882.780    -8145766.274 8  -5926431.86945  23608882.361    23608895.0644
 01  5 27  2 29  0.0000000  0  7 20 21 29 25 14 11 01
  22554871.236   -14153755.697 8 -10815570.92146  22554870.478    22554879.0684
  23354838.221   -10831211.823 8  -8416931.88045  23354837.592    23354848.9294
  21969159.493   -16191716.566 8 -11811143.00047  21969159.327    21969166.7664
  20702874.160   -26015241.352 9 -19810890.23648  20702873.979    20702880.8304
  22790647.425   -13547486.298 8  -9993980.70946  22790646.983    22790654.6794
  21121662.873   -24199195.323 9 -18844641.66747  21121662.467    21121669.7374
  23595235.868    -8217480.218 8  -5982312.67245  23595235.488    23595248.1124
 01  5 27  2 29 30.0000000  0  7 20 21 29 25 14 11 01
  22539364.988   -14235241.217 8 -10879066.04546  22539364.282    22539372.8204
  23369310.228   -10755161.159 8  -8357671.70245  23369309.604    23369321.1414
  21980779.874   -16130651.798 8 -11763560.08947  21980779.663    21980787.0354
  20703471.138   -26012103.639 9 -19808445.24248  20703470.985    20703477.8774
  22805036.772   -13471870.886 8  -9935059.67546  22805036.262    22805043.8824
  21123058.421   -24191861.917 9 -18838927.32947  21123058.001    21123065.2774
  23581620.481    -8289029.235 8  -6038064.98545  23581620.094    23581632.4844
 01  5 27  2 30  0.0000000  0  7 20 21 29 25 14 11 01
  22523877.696   -14316627.445 8 -10942483.80046  22523876.984    22523885.4954
  23383831.279   -10678852.842 8  -8298210.76945  23383830.661    23383842.2624
  21992417.931   -16069493.568 8 -11715904.34547  21992417.706    21992425.0664
  20704168.658   -26008437.876 9 -19805588.78448  20704168.522    20704175.4134
  22819436.789   -13396199.016 8  -9876094.64346  22819436.243    22819443.7874
  21124563.369   -24183953.262 9 -18832764.75047  21124562.969    21124570.2814
  23568037.880    -8360406.139 8  -6093683.17945  23568037.407    23568049.5644
 01  5 27  2 30 30.0000000  0  7 20 21 29 25 14 11 01
  22508409.418   -14397913.431 8 -11005823.43246  22508408.713    22508417.1904
  23398401.203   -10602288.177 8  -8238550.05045  23398400.595    23398412.1394
  22004073.407   -16008243.394 8 -11668176.96147  22004073.207    22004080.5994
  20704966.585   -26004244.788 9 -19802321.41848  20704966.420    20704973.2784
  22833847.121   -13320471.999 8  -9817086.63346  22833846.597    22833854.1684
  21126177.555   -24175470.363 9 -18826154.70347  21126177.162    21126184.4824
  23554487.758    -8431611.498 8  -6149167.69245  23554487.348    23554499.3774
 01  5 27  2 31  0.0000000  0  7 20 21 29 25 14 11 01
  22492959.452   -14479103.175 8 -11069088.05646  22492958.749    22492967.2694
  23413018.684   -10525473.089 8  -8178694.24145  23413018.085    23413029.6424
  22015745.200   -15946907.618 8 -11620382.87247  22015745.027    22015752.4184
  20705863.657   -25999530.681 9 -19798648.06548  20705863.489    20705870.2924
  22848266.643   -13244696.405 8  -9758040.76946  22848266.154    22848273.8674
  21127899.943   -24166419.161 9 -18819101.83047  21127899.540    21127906.8474
  23540969.397    -8502650.812 8  -6204522.82545  23540968.956    23540980.9744
 01  5 27  2 31 30.0000000  0  7 20 21 29 25 14 11 01
  22477529.596   -14560187.117 8 -11132270.24146  22477528.890    22477537.4634
  23427685.342   -10448399.351 8  -8118636.86545  23427684.741    23427696.2244
  22027434.703   -15885479.058 8 -11572516.48447  22027434.524    22027441.8674
  20706861.313   -25994288.037 9 -19794562.86948  20706861.148    20706867.9044
  22862696.903   -13168865.116 8  -9698951.51046  22862696.424    22862704.1504
  21129731.925   -24156791.869 9 -18811600.05947  21129731.501    21129738.8364
  23527484.110    -8573516.023 8  -6259742.31746  23527483.643    23527495.6474
 01  5 27  2 32  0.0000000  0  7 20 21 29 25 14 11 01
  22462119.259   -14641168.830 8 -11195372.75546  22462118.529    22462127.1464
  23442400.055   -10371072.964 8  -8058382.62445  23442399.394    23442410.9544
  22039140.680   -15823963.826 8 -11524582.55847  22039140.460    22039147.8264
  20707958.508   -25988522.506 9 -19790070.23048  20707958.299    20707965.0584
  22877136.686   -13092984.271 8  -9639823.62946  22877136.188    22877143.8374
  21131672.488   -24146594.110 9 -18803653.76647  21131672.108    21131679.4074
  23514030.931    -8644212.279 8  -6314830.14346  23514030.416    23514042.4974
 01  5 27  2 32 30.0000000  0  7 20 21 29 25 14 11 01
  22446727.916   -14722050.636 8 -11258397.42246  22446727.184    22446735.7664
  23457161.812   -10293498.595 8  -7997935.16045  23457161.255    23457173.0514
  22050862.255   -15762366.671 8 -11476584.80647  22050862.026    22050869.4254
  20709154.233   -25982238.856 9 -19785173.86148  20709154.031    20709160.8354
  22891585.002   -13017058.614 8  -9580660.83746  22891584.466    22891592.0214
  21133720.760   -24135830.613 9 -18795266.63847  21133720.360    21133727.6534
  23500609.105    -8714743.478 8  -6369789.35746  23500608.597    23500620.7284
 01  5 27  2 33  0.0000000  0  7 20 21 29 25 14 11 01
  22431358.203   -14802818.672 8 -11321333.42546  22431357.475    22431366.0534
  23471973.211   -10215664.109 8  -7937284.98645  23471972.751    23471984.5254
  22062601.514   -15700676.376 8 -11428514.46847  22062601.299    22062608.7054
  20710450.772   -25975425.340 9 -19779864.60948  20710450.583    20710457.3754
  22906043.826   -12941076.968 8  -9521454.42346  22906043.336    22906050.7814
  21135878.928   -24124489.536 9 -18786429.44447  21135878.506    21135885.8434
  23487221.130    -8785097.464 8  -6424610.48846  23487220.586    23487232.7044
 01  5 27  2 33 30.0000000  0  7 20 21 29 25 14 11 01
  22416007.296   -14883487.377 8 -11384192.03946  22416006.572    22416015.1374
  23486830.945   -10137585.915 8  -7876444.92845  23486830.526    23486842.3184
  22074355.377   -15638909.489 8 -11380384.47147  22074355.152    22074362.5454
  20711844.904   -25968099.047 9 -19774155.79348  20711844.718    20711851.4864
  22920510.191   -12865055.939 8  -9462217.30946  22920509.721    22920517.1034
  21138143.866   -24112587.193 9 -18777154.90947  21138143.438    21138150.8374
  23473863.885    -8855289.891 8  -6479305.73846  23473863.323    23473875.3934
 01  5 27  2 34  0.0000000  0  7 20 21 29 25 14 11 01
  22400678.122   -14964041.889 8 -11446961.65546  22400677.414    22400685.9754
  23501737.529   -10059251.443 8  -7815405.15045  23501737.146    23501748.8914
  22086126.209   -15577053.382 8 -11332184.94847  22086126.033    22086133.3934
  20713339.070   -25960246.677 9 -19768037.04948  20713338.904    20713345.7164
  22934986.350   -12788983.190 8  -9402939.89846  22934985.910    22934993.2934
  21140518.041   -24100110.617 9 -18767432.91347  21140517.604    21140525.0514
  23460539.861    -8925307.384 8  -6533864.67146  23460539.327    23460551.3624
 01  5 27  2 34 30.0000000  0  7 20 21 29 25 14 11 01
  22385370.310   -15044484.365 8 -11509643.97946  22385369.601    22385378.1554
  23516692.316    -9980664.271 8  -7754168.45745  23516691.963    23516703.5384
  22097913.236   -15515112.846 8 -11283919.63847  22097913.023    22097920.3044
  20714932.500   -25951872.960 9 -19761512.05148  20714932.341    20714939.1194
  22949471.350   -12712863.661 8  -9343626.03746  22949470.943    22949478.3994
  21143000.619   -24087064.473 9 -18757267.08947  21143000.176    21143007.6274
  23447248.324    -8995153.962 8  -6588290.42446  23447247.828    23447259.8054
 01  5 27  2 35  0.0000000  0  7 20 21 29 25 14 11 01
  22370082.863   -15124819.839 8 -11572242.93946  22370082.194    22370090.6724
  23531693.809    -9901832.016 8  -7692740.80945  23531693.378    23531704.8634
  22109714.795   -15453095.512 8 -11235594.47947  22109714.563    22109721.8644
  20716623.729   -25942985.460 9 -19754586.71848  20716623.550    20716630.3194
  22963963.819   -12636704.780 8  -9284281.50046  22963963.469    22963971.0434
  21145590.139   -24073456.097 9 -18746663.18147  21145589.713    21145597.1244
  23433988.108    -9064836.282 8  -6642588.20046  23433987.638    23433999.4714
 01  5 27  2 35 30.0000000  0  7 20 21 29 25 14 11 01
  22354817.677   -15205038.475 8 -11634750.84846  22354817.012    22354825.4194
  23546743.378    -9822746.824 8  -7631116.06245  23546742.899    23546754.3224
  22121532.196   -15390993.705 8 -11187203.49047  22121532.042    22121539.5104
  20718414.095   -25933576.762 9 -19747255.24948  20718413.921    20718420.7214
  22978465.283   -12560499.043 8  -9224900.45546  22978464.930    22978472.6054
  21148288.202   -24059277.765 9 -18735615.14647  21148287.795    21148295.1604
  23420760.730    -9134345.928 8  -6696751.41046  23420760.306    23420772.0004
 01  5 27  2 36  0.0000000  0  7 20 21 29 25 14 11 01
  22339575.106   -15285138.419 8 -11697166.26946  22339574.395    22339582.7844
  23561840.965    -9743409.571 8  -7569294.91645  23561840.467    23561851.7304
  22133365.629   -15328808.154 8 -11138747.24847  22133365.520    22133373.1514
  20720303.608   -25923647.298 9 -19739517.98948  20720303.452    20720310.2114
  22992975.609   -12484247.354 8  -9165483.60546  22992975.194    22992982.8974
  21151094.712   -24044529.791 9 -18724123.23547  21151094.282    21151101.6214
  23407566.206    -9203682.857 8  -6750780.03846  23407565.819    23407577.3914
 01  5 27  2 36 30.0000000  0  7 20 21 29 25 14 11 01
  22324353.847   -15365126.204 8 -11759494.29846  22324353.152    22324361.4424
  23576984.846    -9663827.950 8  -7507283.35445  23576984.313    23576995.7084
  22145213.466   -15266547.829 8 -11090232.74847  22145213.318    22145220.9814
  20722290.549   -25913205.990 9 -19731381.88748  20722290.377    20722297.1244
  23007492.949   -12407958.432 8  -9106037.72246  23007492.564    23007500.2364
  21154007.882   -24029221.218 9 -18712194.48847  21154007.445    21154014.7844
  23394402.998    -9272855.274 8  -6804680.47146  23394402.632    23394414.1654
 01  5 27  2 37  0.0000000  0  7 20 21 29 25 14 11 01
  22309156.034   -15444991.022 8 -11821726.52746  22309155.313    22309163.5894
  23592176.749    -9583993.587 8  -7445074.84945  23592176.266    23592187.7464
  22157077.126   -15204204.159 8 -11041653.31047  22157076.975    22157084.5864
  20724376.487   -25902244.184 9 -19722840.20148  20724376.313    20724383.0694
  23022018.952   -12331623.908 8  -9046556.32046  23022018.588    23022026.1934
  21157029.450   -24013343.125 9 -18699821.96847  21157029.014    21157036.2914
  23381272.960    -9341853.771 8  -6858445.39746  23381272.532    23381284.0554
 01  5 27  2 37 30.0000000  0  7 20 21 29 25 14 11 01
  22293981.402   -15524733.934 8 -11883863.76246  22293980.668    22293988.9504
  23607416.041    -9503910.282 8  -7382672.36845  23607415.576    23607427.1924
  22168955.949   -15141780.701 8 -10993011.70247  22168955.781    22168963.3954
  20726560.746   -25890765.640 9 -19713895.86948  20726560.561    20726567.3674
  23036553.030   -12255247.542 8  -8987042.30846  23036552.646    23036560.2194
  21160158.678   -23996899.301 9 -18687008.62047  21160158.227    21160165.4574
  23368175.435    -9410681.243 8  -6912077.06446  23368175.029    23368186.4864
 01  5 27  2 38  0.0000000  0  7 20 21 29 25 14 11 01
  22278828.964   -15604360.213 8 -11945910.12546  22278828.238    22278836.4614
  23622701.288    -9423585.344 8  -7320081.60645  23622700.825    23622712.7044
  22180848.467   -15079285.252 8 -10944313.97747  22180848.288    22180855.9424
  20728841.828   -25878778.247 9 -19704555.02148  20728841.662    20728848.5174
  23051093.622   -12178836.989 8  -8927501.64546  23051093.160    23051100.7274
  21163393.990   -23979897.569 9 -18673760.53847  21163393.518    21163400.7544
  23355109.053    -9479344.630 8  -6965580.85146  23355108.665    23355120.1754
 01  5 27  2 38 30.0000000  0  7 20 21 29 25 14 11 01
  22263701.190   -15683856.765 8 -12007855.41146  22263700.451    22263708.6914
  23638034.729    -9343007.748 8  -7257293.95145  23638034.259    23638046.1824
  22192756.702   -15016707.417 8 -10895552.07447  22192756.494    22192764.2354
  20731221.787   -25866271.396 9 -19694809.40348  20731221.614    20731228.5004
  23065642.709   -12102381.907 8  -8867926.29346  23065642.108    23065649.6604
  21166737.430   -23962327.286 9 -18660069.43847  21166736.993    21166744.2854
  23342076.142    -9547832.592 8  -7018947.96146  23342075.697    23342087.2314
 01  5 27  2 39  0.0000000  0  7 20 21 29 25 14 11 01
  22248596.600   -15763231.505 8 -12069705.77946  22248595.868    22248604.1254
  23653414.274    -9262187.466 8  -7194317.18645  23653413.733    23653425.8144
  22204678.704   -14954057.121 8 -10846733.70247  22204678.521    22204686.3284
  20733698.554   -25853255.915 9 -19684667.44848  20733698.379    20733705.2144
  23080198.186   -12025892.553 8  -8808324.21946  23080197.652    23080205.1574
  21170187.131   -23944198.830 9 -18645943.38747  21170186.725    21170194.0334
  23329074.830    -9616154.744 8  -7072185.86146  23329074.339    23329085.8714
 01  5 27  2 39 30.0000000  0  7 20 21 29 25 14 11 01
  22233516.704   -15842476.546 8 -12131455.09846  22233515.937    22233524.1524
  23668840.929    -9181118.889 8  -7131146.93345  23668840.572    23668852.7964
  22216615.504   -14891329.017 8 -10797854.70447  22216615.337    22216623.1414
  20736273.186   -25839726.234 9 -19674124.82348  20736272.967    20736279.7824
  23094761.183   -11949363.292 8  -8748691.06546  23094760.640    23094768.2264
  21173744.214   -23925506.495 9 -18631377.95447  21173743.772    21173751.1054
  23316106.151    -9684304.849 8  -7125289.69846  23316105.616    23316117.1724
 01  5 27  2 40  0.0000000  0  7 20 21 29 25 14 11 01
  22218461.886   -15921589.423 8 -12193101.44146  22218461.160    22218469.3424
  23684315.312    -9099801.880 8  -7067783.08945  23684314.800    23684327.0074
  22228567.192   -14828522.992 8 -10748914.99247  22228566.993    22228574.6944
  20738945.682   -25825682.164 9 -19663181.37648  20738945.457    20738952.2234
  23109331.718   -11872794.345 8  -8689026.98946  23109331.183    23109338.8064
  21177408.520   -23906250.552 9 -18616373.35247  21177408.085    21177415.4864
  23303170.326    -9752282.337 8  -7178259.04146  23303169.822    23303181.3484
 01  5 27  2 40 30.0000000  0  7 20 21 29 25 14 11 01
  22203430.738   -16000577.863 8 -12254650.81246  22203430.065    22203438.2034
  23699834.979    -9018246.343 8  -7004233.39845  23699834.435    23699846.6754
  22240531.698   -14765649.218 8 -10699922.48147  22240531.480    22240539.1354
  20741714.044   -25811134.385 9 -19651845.42248  20741713.790    20741720.5564
  23123907.939   -11796195.683 8  -8629339.75046  23123907.402    23123915.1264
  21181178.163   -23886441.051 9 -18600937.39447  21181177.726    21181185.2044
  23290265.587    -9820096.455 8  -7231101.07346  23290265.145    23290276.5564
 01  5 27  2 41  0.0000000  0  7 20 21 29 25 14 11 01
  22188426.126   -16079427.360 8 -12316091.93246  22188425.423    22188433.5274
  23715402.479    -8936439.930 8  -6940488.22445  23715401.899    23715414.1724
  22252511.432   -14702695.608 8 -10650867.77947  22252511.187    22252518.7734
  20744580.488   -25796070.967 9 -19640107.67948  20744580.236    20744587.0524
  23138492.139   -11719555.506 8  -8569620.16746  23138491.575    23138499.3664
  21185055.341   -23866066.565 9 -18585061.19647  21185054.902    21185062.3754
  23277394.467    -9887734.468 8  -7283805.87446  23277393.986    23277405.2714
 01  5 27  2 41 30.0000000  0  7 20 21 29 25 14 11 01
  22173445.658   -16158149.784 8 -12377434.02946  22173444.964    22173452.9964
  23731014.838    -8854397.272 8  -6876558.92945  23731014.211    23731026.3964
  22264503.587   -14639676.812 8 -10601762.27047  22264503.355    22264510.8734
  20747542.255   -25780506.400 9 -19627979.42748  20747542.026    20747548.8784
  23153081.370   -11642888.264 8  -8509879.49946  23153080.846    23153088.7724
  21189037.297   -23845141.407 9 -18568755.90547  21189036.845    21189044.2824
  23264554.134    -9955210.302 8  -7336384.30846  23264553.655    23264564.9264
 01  5 27  2 42  0.0000000  0  7 20 21 29 25 14 11 01
  22158491.862   -16236732.470 8 -12438667.23246  22158491.156    22158499.1014
  23746674.083    -8772108.198 8  -6812437.65645  23746673.470    23746685.5094
  22276510.092   -14576582.297 8 -10552597.76647  22276509.903    22276517.3934
  20750601.268   -25764430.878 9 -19615453.03448  20750601.048    20750607.8774
  23167677.687   -11566183.945 8  -8450109.95346  23167677.211    23167685.1844
  21193125.999   -23823655.319 9 -18552013.53247  21193125.534    21193132.9714
  23251746.757   -10022512.894 8  -7388827.75146  23251746.291    23251757.4904
 01  5 27  2 42 30.0000000  0  7 20 21 29 25 14 11 01
  22143563.768   -16315179.911 8 -12499795.05547  22143563.100    22143570.9664
  23762378.708    -8689579.549 8  -6748129.65545  23762378.088    23762390.1244
  22288529.643   -14513419.273 8 -10503379.87547  22288529.472    22288537.0044
  20753756.121   -25747851.975 9 -19602534.39148  20753755.934    20753762.7104
  23182279.811   -11489449.454 8  -8390316.87746  23182279.302    23182287.2214
  21197320.015   -23801615.673 9 -18534839.80647  21197319.551    21197327.0024
  23238971.158   -10089648.629 8  -7441141.17946  23238970.616    23238981.9164
 01  5 27  2 43  0.0000000  0  7 20 21 29 25 14 11 01
  22128663.288   -16393482.520 8 -12560810.02547  22128662.626    22128670.4324
  23778130.360    -8606803.852 8  -6683629.18345  23778129.643    23778141.6914
  22300563.673   -14450180.320 8 -10454102.81846  22300563.441    22300571.0664
  20757008.195   -25730762.321 9 -19589217.76248  20757008.002    20757014.7244
  23196889.038   -11412677.433 8  -8330494.57746  23196888.537    23196896.4504
  21201620.666   -23779015.562 9 -18517229.35947  21201620.184    21201627.6634
  23226228.638   -10156609.697 8  -7493318.50146  23226228.147    23226239.5064
 01  5 27  2 43 30.0000000  0  7 20 21 29 25 14 11 01
  22113788.722   -16471648.764 8 -12621718.73247  22113788.063    22113795.8124
  23793926.973    -8523792.190 8  -6618944.80245  23793926.257    23793938.5314
  22312609.983   -14386876.440 8 -10404775.15946  22312609.712    22312617.4834
  20760355.289   -25713173.582 9 -19575512.23148  20760355.065    20760361.7324
  23211503.372   -11335879.036 8  -8270651.72146  23211502.861    23211510.7154
  21206025.798   -23755866.317 9 -18499191.00747  21206025.334    21206032.8734
  23213517.443   -10223406.368 8  -7545367.70346  23213516.957    23213528.3934
 01  5 27  2 44  0.0000000  0  7 20 21 29 25 14 11 01
  22098942.087   -16549668.287 8 -12682513.10447  22098941.411    22098949.1594
  23809770.069    -8440536.471 8  -6554070.24945  23809769.360    23809781.6394
  22324670.180   -14323499.741 8 -10355390.76946  22324669.942    22324677.7354
  20763798.700   -25695078.152 9 -19561411.88448  20763798.471    20763805.1194
  23226124.192   -11259046.170 8  -8210781.99346  23226123.650    23226131.5654
  21210536.892   -23732160.418 9 -18480718.90047  21210536.421    21210544.0224
  23200839.274   -10290029.939 8  -7597282.04746  23200838.753    23200850.2244
 01  5 27  2 44 30.0000000  0  7 20 21 29 25 14 11 01
  22084122.857   -16627543.691 8 -12743195.18547  22084122.170    22084129.8904
  23825658.491    -8357041.444 8  -6489009.22645  23825657.760    23825670.1734
  22336743.349   -14260054.923 8 -10305953.29946  22336743.114    22336750.8734
  20767337.532   -25676481.343 9 -19546920.85448  20767337.322    20767343.9684
  23240750.634   -11182183.850 8  -8150889.33246  23240750.083    23240758.1014
  21215152.944   -23707902.985 9 -18461817.02547  21215152.486    21215160.1124
  23188193.178   -10356484.864 8  -7649064.95846  23188192.758    23188204.1084
 01  5 27  2 45  0.0000000  0  7 20 21 29 25 14 11 01
  22069331.671   -16705271.913 8 -12803762.56747  22069330.950    22069338.6774
  23841592.653    -8273307.268 7  -6423761.86845  23841591.870    23841604.4084
  22348829.611   -14196541.659 8 -10256462.49546  22348829.347    22348837.1144
  20770971.758   -25657383.162 9 -19532039.14448  20770971.536    20770978.2324
  23255382.658   -11105291.965 8  -8090973.61946  23255382.164    23255390.2764
  21219873.927   -23683094.225 9 -18442485.54147  21219873.487    21219881.0614
  23175579.498   -10422770.189 8  -7700715.71846  23175579.031    23175590.1874
 01  5 27  2 45 30.0000000  0  7 20 21 29 25 14 11 01
  22054567.865   -16782856.124 8 -12864217.73547  22054567.111    22054574.9034
  23857571.188    -8189338.644 7  -6358331.79745  23857570.407    23857583.2684
  22360927.785   -14132965.442 8 -10206922.63446  22360927.532    22360935.2844
  20774700.320   -25637789.390 9 -19516771.25848  20774700.124    20774706.8134
  23270019.245   -11028375.775 8  -8031038.98246  23270018.781    23270027.0384
  21224698.742   -23657739.947 9 -18422728.98047  21224698.277    21224705.8514
  23162997.185   -10488890.748 8  -7752238.08846  23162996.651    23163007.5984
 01  5 27  2 46  0.0000000  0  8 20 22 21 29 25 14 11 01
  22039833.089   -16860287.477 8 -12924553.78947  22039832.362    22039840.2114
  24398283.437    -4959598.662 7  -3642211.21645  24398282.361    24398298.0144
  23873595.752    -8105129.734 8  -6292714.47245  23873595.054    23873607.7864
  22373039.051   -14069320.181 8 -10157328.97746  22373038.857    22373046.6014
  20778524.324   -25617694.198 9 -19501112.65748  20778524.107    20778530.7894
  23284661.670   -10951429.037 8  -7971080.54446  23284661.304    23284669.6624
  21229628.429   -23631834.325 9 -18402542.80147  21229627.974    21229635.5104
  23150447.333   -10554839.766 8  -7803626.78346  23150446.829    23150457.7404
 01  5 27  2 46 30.0000000  0  8 20 22 21 29 25 14 11 01
  22025126.978   -16937568.497 8 -12984772.70647  22025126.252    22025134.0564
  24379915.099    -5056122.673 7  -3717424.36545  24379914.207    24379929.8174
  23889665.264    -8020685.577 7  -6226913.87645  23889664.459    23889677.1874
  22385162.550   -14005610.505 8 -10107685.12846  22385162.414    22385170.1384
  20782442.749   -25597103.001 9 -19485067.55848  20782442.504    20782449.1364
  23299309.052   -10874456.882 8  -7911102.30646  23299308.674    23299317.0204
  21234662.045   -23605382.852 9 -18381931.28647  21234661.560    21234669.1004
  23137929.417   -10620621.491 8  -7854885.12246  23137928.816    23137939.7004
 01  5 27  2 47  0.0000000  0  8 20 22 21 29 25 14 11 01
  22010449.780   -17014697.655 8 -13044873.26947  22010448.993    22010456.8514
  24361532.150    -5152724.010 7  -3792697.77445  24361531.344    24361546.8114
  23905779.021    -7936007.232 8  -6160930.78145  23905778.303    23905790.7834
  22397298.180   -13941837.487 8 -10057991.91846  22397298.033    22397305.8084
  20786455.088   -25576017.686 9 -19468637.42948  20786454.847    20786461.5284
  23313961.114   -10797460.442 8  -7851105.12346  23313960.730    23313969.0014
  21239799.130   -23578387.095 9 -18360895.64447  21239798.643    21239806.2714
  23125443.101   -10686236.599 8  -7906013.62446  23125442.610    23125453.4264
 01  5 27  2 47 30.0000000  0  8 20 22 21 29 25 14 11 01
  21995802.684   -17091668.501 8 -13104850.48747  21995801.873    21995809.7214
  24343135.966    -5249395.211 7  -3868025.62345  24343135.249    24343150.7194
  23921938.454    -7851090.558 8  -6094761.96745  23921937.616    23921949.8414
  22409446.623   -13877997.059 8 -10008246.17446  22409446.463    22409454.2994
  20790562.273   -25554434.433 9 -19451819.29848  20790562.023    20790568.7014
  23328618.648   -10720435.470 8  -7791085.72046  23328618.263    23328626.2634
  21245040.497   -23550843.319 9 -18339432.98147  21245040.045    21245047.6844
  23112989.544   -10751680.283 8  -7957008.54846  23112989.061    23112999.8164
 01  5 27  2 48  0.0000000  0  8 20 22 21 29 25 14 11 01
  21981185.170   -17168483.277 8 -13164706.07847  21981184.413    21981192.3184
  24324726.342    -5346138.072 7  -3943409.33045  24324725.444    24324740.9624
  23938142.152    -7765940.463 7  -6028411.26945  23938141.340    23938153.3974
  22421607.001   -13814093.840 8  -9958451.49846  22421606.834    22421614.6874
  20794763.180   -25532358.442 9 -19434617.21348  20794762.925    20794769.5934
  23343280.696   -10643386.709 8  -7731047.77046  23343280.263    23343288.1024
  21250385.182   -23522756.887 9 -18317547.45847  21250384.715    21250392.3044
  23100567.794   -10816956.767 8  -8007873.17846  23100567.300    23100578.0444
 01  5 27  2 48 30.0000000  0  8 20 22 21 29 25 14 11 01
  21966598.709   -17245134.677 8 -13224434.36647  21966597.991    21966605.9814
  24306304.596    -5442943.811 8  -4018842.02545  24306303.696    24306319.1484
  23954390.646    -7680552.003 8  -5961874.80445  23954390.170    23954402.2304
  22433780.233   -13750123.001 8  -9908604.13046  22433780.077    22433787.9754
  20799058.664   -25509785.585 9 -19417027.96048  20799058.412    20799065.0814
  23357948.079   -10566309.288 8  -7670987.49346  23357947.550    23357955.4114
  21255833.975   -23494123.630 9 -18295235.84747  21255833.493    21255841.0094
  23088178.898   -10882060.684 8  -8058603.34646  23088178.397    23088189.1724
 01  5 27  2 49  0.0000000  0  8 20 22 21 29 25 14 11 01
  21952042.898   -17321625.653 8 -13284037.65947  21952042.178    21952050.1534
  24287870.453    -5539814.093 7  -4094325.01545  24287869.598    24287884.9394
  23970684.045    -7594930.878 8  -5895157.08445  23970683.510    23970695.3394
  22445965.392   -13686090.011 8  -9858708.33846  22445965.191    22445973.0994
  20803447.474   -25486721.914 9 -19399056.26248  20803447.253    20803453.9534
  23372619.647   -10489208.757 8  -7610909.20746  23372619.222    23372627.1894
  21261385.607   -23464949.506 9 -18272502.78847  21261385.139    21261392.6534
  23075821.993   -10946996.972 8  -8109202.89846  23075821.412    23075832.1884
 01  5 27  2 49 30.0000000  0  8 20 22 21 29 25 14 11 01
  21937517.431   -17397956.995 8 -13343516.55147  21937516.753    21937524.7234
  24269424.183    -5636748.402 8  -4169857.90145  24269423.239    24269438.4274
  23987020.960    -7509079.826 7  -5828260.18145  23987020.322    23987032.4554
  22458161.901   -13621997.670 8  -9808766.28446  22458161.658    22458169.5464
  20807929.008   -25463171.258 9 -19380705.09148  20807928.771    20807935.5044
  23387295.162   -10412088.011 8  -7550815.16046  23387294.753    23387302.7984
  21267039.445   -23435238.262 9 -18249351.19047  21267038.985    21267046.4784
  23063496.348   -11011768.002 8  -8159673.68246  23063495.764    23063506.5854
 01  5 27  2 50  0.0000000  0  8 20 22 21 29 25 14 11 01
  21923023.891   -17474120.905 8 -13402864.98147  21923023.187    21923031.1454
  24250967.215    -5733738.652 7  -4245434.39945  24250966.325    24250981.4324
  24003402.308    -7422994.822 7  -5761180.96745  24003401.751    24003413.8844
  22470370.534   -13557841.061 8  -9758774.16546  22470370.306    22470378.1964
  20812504.003   -25439129.100 9 -19361970.93548  20812503.784    20812510.5224
  23401975.668   -10334942.025 8  -7490701.43446  23401975.160    23401983.2224
  21272796.376   -23404985.585 9 -18225777.70347  21272795.890    21272803.3924
  23051203.090   -11076368.239 8  -8210011.38346  23051202.605    23051213.4484
 01  5 27  2 50 30.0000000  0  8 20 22 21 29 25 14 11 01
  21908561.972   -17550118.627 9 -13462083.90947  21908561.259    21908569.1854
  24232499.514    -5830785.361 8  -4321054.86245  24232498.631    24232513.5634
  24019827.542    -7336679.905 7  -5693922.58945  24019826.930    24019839.0564
  22482590.673   -13493623.934 8  -9708734.88046  22482590.426    22482598.3804
  20817171.745   -25414599.573 9 -19342857.01048  20817171.532    20817178.2704
  23416660.210   -10257774.855 8  -7430571.21546  23416659.673    23416667.6904
  21278655.413   -23374196.040 9 -18201785.87247  21278654.934    21278662.4704
  23038941.646   -11140801.343 8  -8260218.85346  23038941.164    23038952.0134
 01  5 27  2 51  0.0000000  0  8 20 22 21 29 25 14 11 01
  21894131.976   -17625948.718 9 -13521172.22547  21894131.258    21894139.1504
  24214021.783    -5927885.423 8  -4396716.95445  24214020.932    24214035.6724
  24036296.207    -7250135.518 7  -5626485.40245  24036295.508    24036308.0344
  22494822.107   -13429347.288 8  -9658649.21446  22494821.859    22494829.8634
  20821931.907   -25389584.736 9 -19323364.91748  20821931.727    20821938.4114
  23431348.639   -10180587.241 8  -7370425.05246  23431348.085    23431356.0194
  21284616.395   -23342871.093 9 -18177376.84447  21284615.917    21284623.4854
  23026711.983   -11205067.457 8  -8310296.19246  23026711.540    23026722.3954
 01  5 27  2 51 30.0000000  0  8 20 22 21 29 25 14 11 01
  21879734.543   -17701607.549 9 -13580127.09147  21879733.816    21879741.6774
  24195535.035    -6025033.842 8  -4472416.70845  24195534.071    24195548.6544
  24052808.794    -7163360.776 7  -5558868.72445  24052808.159    24052820.7954
  22507065.108   -13365009.613 8  -9608515.98246  22507064.903    22507072.8914
  20826784.606   -25364083.730 9 -19303493.99248  20826784.407    20826791.0384
  23446041.165   -10103377.938 8  -7310261.98546  23446040.654    23446048.4664
  21290679.237   -23311010.375 9 -18152550.33947  21290678.800    21290686.4164
  23014514.543   -11269164.860 8  -8360242.07346  23014514.074    23014524.8314
 01  5 27  2 52  0.0000000  0  8 20 22 21 29 25 14 11 01
  21865370.020   -17777093.480 9 -13638947.23547  21865369.300    21865377.0974
  24177039.192    -6122228.148 7  -4548152.23445  24177038.336    24177052.8714
  24069365.051    -7076356.305 8  -5491073.05045  24069364.545    24069377.2204
  22519319.600   -13300611.819 8  -9558335.92046  22519319.409    22519327.4184
  20831729.505   -25338098.223 9 -19283245.53448  20831729.314    20831735.8904
  23460737.547   -10026147.898 8  -7250082.75046  23460737.050    23460744.9384
  21296843.801   -23278615.409 9 -18127307.54647  21296843.372    21296851.0264
  23002349.046   -11333093.904 8  -8410056.77346  23002348.606    23002359.3014
 01  5 27  2 52 30.0000000  0  8 20 22 21 29 25 14 11 01
  21851038.476   -17852405.696 9 -13697632.01947  21851037.751    21851045.5644
  24158534.841    -6219466.936 7  -4623922.41245  24158534.005    24158548.5994
  24085964.678    -6989124.330 7  -5423100.09945  24085964.194    24085976.8034
  22531585.282   -13236155.314 8  -9508110.09246  22531585.098    22531593.1164
  20836766.109   -25311630.530 9 -19262621.34348  20836765.887    20836772.4594
  23475437.586    -9948898.756 8  -7189888.63446  23475437.113    23475444.9304
  21303109.490   -23245688.898 9 -18101650.55847  21303109.055    21303116.7514
  22990215.508   -11396855.893 8  -8459741.30046  22990214.996    22990225.6284
 01  5 27  2 53  0.0000000  0  8 20 22 21 29 25 14 11 01
  21836740.985   -17927538.979 9 -13756177.37447  21836740.299    21836748.1314
  24140023.241    -6316743.798 7  -4699722.26645  24140022.501    24140037.0084
  24102607.775    -6901662.652 7  -5354948.16245  24102607.542    24102620.2264
  22543862.629   -13171637.535 8  -9457836.50446  22543862.419    22543870.4594
  20841894.849   -25284678.940 9 -19241620.08748  20841894.657    20841901.2074
  23490141.751    -9871627.682 8  -7129677.43046  23490141.264    23490149.0724
  21309476.719   -23212228.859 9 -18075577.83447  21309476.286    21309483.9504
  22978114.273   -11460447.516 8  -8509293.07546  22978113.803    22978124.4224
 01  5 27  2 53 30.0000000  0  8 20 22 21 29 25 14 11 01
  21822476.468   -18002499.379 9 -13814588.01347  21822475.745    21822483.6224
  24121503.720    -6414063.452 7  -4775555.48345  24121502.952    24121517.1914
  24119293.340    -6813980.056 7  -5286624.07745  24119293.072    24119305.4764
  22556149.948   -13107067.169 8  -9407521.95546  22556149.783    22556157.8074
  20847113.839   -25257252.850 9 -19220249.09548  20847113.643    20847120.2024
  23504848.458    -9794343.445 8  -7069455.97446  23504848.022    23504855.7654
  21315943.683   -23178244.848 9 -18049096.82447  21315943.289    21315950.8814
  22966043.864   -11523877.231 8  -8558718.69746  22966043.359    22966054.0644
 01  5 27  2 54  0.0000000  0  8 20 22 21 29 25 14 11 01
  21808246.553   -18077277.817 9 -13872856.87147  21808245.826    21808253.6664
  24102978.188    -6511415.606 7  -4851414.02945  24102977.277    24102991.3244
  24136022.077    -6726070.033 7  -5218122.76945  24136021.610    24136034.1484
  22568448.578   -13042437.307 8  -9357161.03146  22568448.428    22568456.4034
  20852424.301   -25229346.269 9 -19198503.68848  20852424.087    20852430.6524
  23519559.049    -9717039.421 8  -7009219.10246  23519558.548    23519566.2914
  21322511.545   -23143731.109 9 -18022203.03647  21322511.132    21322518.6924
  22954005.634   -11587137.571 8  -8608012.33446  22954005.153    22954015.9104
 01  5 27  2 54 30.0000000  0  8 20 22 21 29 25 14 11 01
  21794051.398   -18151873.830 9 -13930983.58347  21794050.673    21794058.4574
  24084446.519    -6608799.123 7  -4927297.04645  24084445.655    24084459.6514
  24152793.879    -6637935.309 7  -5149446.39645  24152793.350    24152805.6144
  22580758.164   -12977750.034 8  -9306755.38646  22580758.026    22580765.9414
  20857825.626   -25200962.198 9 -19176386.21948  20857825.408    20857832.0174
  23534272.995    -9639717.537 8  -6948968.31646  23534272.482    23534280.2294
  21329179.590   -23108690.662 9 -17994898.82847  21329179.157    21329186.7484
  22941999.458   -11650230.235 8  -8657175.33446  22941998.965    22942009.6094
 01  5 27  2 55  0.0000000  0  8 20 22 21 29 25 14 11 01
  21779890.424   -18226289.998 9 -13988970.15547  21779889.636    21779897.4724
  24065908.419    -6706215.807 7  -5003205.86645  24065907.589    24065921.8734
  24169607.383    -6549580.567 7  -5080598.54845  24169606.699    24169618.8224
  22593077.757   -12913010.201 8  -9256308.76846  22593077.638    22593085.4744
  20863316.661   -25172106.400 9 -19153901.16648  20863316.447    20863323.1004
  23548989.478    -9562382.688 8  -6888707.41846  23548988.894    23548996.6604
  21335946.691   -23073129.231 9 -17967188.66147  21335946.272    21335953.9364
  22930024.197   -11713160.023 8  -8706211.40746  22930023.695    22930034.2754
 01  5 27  2 55 30.0000000  0  8 20 22 21 29 25 14 11 01
  21765765.540   -18300516.532 9 -14046808.96547  21765764.785    21765772.6004
  24047365.990    -6803654.339 7  -5079131.71945  24047365.307    24047379.6844
  24186464.258    -6460998.720 7  -5011573.76645  24186463.569    24186475.5314
  22605408.720   -12848210.568 8  -9205815.55946  22605408.562    22605416.4474
  20868898.710   -25142772.434 9 -19131043.51948  20868898.522    20868905.2134
  23563709.732    -9485027.498 8  -6828430.68046  23563709.184    23563716.9564
  21342814.213   -23037040.540 9 -17939067.64447  21342813.757    21342821.4344
  22918081.429   -11775919.052 8  -8755114.42346  22918080.953    22918091.4784
 01  5 27  2 56  0.0000000  0  8 20 22 21 29 25 14 11 01
  21751676.270   -18374556.024 9 -14104502.02147  21751675.479    21751683.2294
  24028819.375    -6901116.113 7  -5155075.71145  24028818.596    24028832.8944
  24203363.133    -6372195.599 7  -4942376.53045  24203362.341    24203374.3884
  22617750.043   -12783356.362 8  -9155279.81746  22617749.878    22617757.8294
  20874570.607   -25112966.778 9 -19107818.32148  20874570.376    20874577.0474
  23578432.708    -9407657.657 8  -6768142.49146  23578432.141    23578439.9734
  21349780.824   -23000430.895 9 -17910540.68647  21349780.375    21349788.0504
  22906170.409   -11838512.195 8  -8803888.19446  22906169.889    22906180.2114
 01  5 27  2 56 30.0000000  0  8 20 22 21 29 25 14 11 01
  21737622.529   -18448408.804 9 -14162049.60047  21737621.767    21737629.4294
  24010268.581    -6998600.418 7  -5231037.29045  24010267.868    24010281.9264
  24220303.269    -6283174.385 7  -4873009.37145  24220302.663    24220314.6894
  22630101.186   -12718450.008 8  -9104703.45946  22630101.107    22630109.1554
  20880331.572   -25082692.732 9 -19084228.14748  20880331.327    20880337.9664
  23593157.994    -9330275.377 8  -6707844.62946  23593157.467    23593165.4004
  21356845.851   -22963304.049 9 -17881610.72747  21356845.374    21356853.0704
  22894290.512   -11900941.722 8  -8852534.47446  22894289.983    22894300.1304
 01  5 27  2 57  0.0000000  0  8 20 22 21 29 25 14 11 01
  21723605.569   -18522068.583 9 -14219446.78247  21723604.781    21723612.3484
  23991714.673    -7096100.496 7  -5307011.13245  23991713.893    23991728.0204
  24237285.514    -6193931.773 7  -4803469.66845  24237284.866    24237297.1224
  22642463.202   -12653487.881 8  -9054083.61746  22642463.059    22642471.0794
  20886182.188   -25051947.420 9 -19060270.75148  20886181.937    20886188.5824
  23607886.367    -9252877.017 8  -6647534.22846  23607885.821    23607893.7704
  21364009.742   -22925657.323 9 -17852275.65747  21364009.294    21364017.0184
  22882442.393   -11963203.659 8  -8901050.15946  22882441.845    22882451.9994
 01  5 27  2 57 30.0000000  0  8 20 22 21 29 25 14 11 01
  21709625.530   -18595534.376 9 -14276692.80847  21709624.720    21709632.2324
  23973158.152    -7193614.230 7  -5382995.62645  23973157.249    23973171.4534
  24254309.336    -6104469.766 7  -4733758.99145  24254308.952    24254321.1864
  22654835.633   -12588471.284 8  -9003421.34246  22654835.403    22654843.3414
  20892122.029   -25020733.201 9 -19035947.97048  20892121.795    20892128.4384
  23622617.571    -9175464.102 8  -6587212.49546  23622616.973    23622624.8864
  21371272.165   -22887493.309 9 -17822537.51047  21371271.696    21371279.4184
  22870625.928   -12025298.990 8  -8949436.01946  22870625.366    22870635.5884
 01  5 27  2 58  0.0000000  0  8 20 22 21 29 25 14 11 01
  21695682.685   -18668804.415 9 -14333786.29447  21695681.892    21695689.3544
  23954599.575    -7291138.061 7  -5458987.95945  23954598.817    23954613.1204
  24271374.533    -6014788.856 7  -4663877.77045  24271374.308    24271386.7614
  22667218.118   -12523400.933 8  -8952717.18346  22667217.892    22667225.7854
  20898150.759   -24989051.748 9 -19011261.11748  20898150.522    20898157.2234
  23637351.408    -9098037.238 8  -6526879.88946  23637350.832    23637358.6464
  21378632.676   -22848813.692 9 -17792397.59847  21378632.211    21378639.9374
  22858841.098   -12087227.955 8  -8997692.25746  22858840.565    22858850.8694
 01  5 27  2 58 30.0000000  0  8 20 22 21 29 25 14 11 01
  21681777.258   -18741877.614 9 -14390726.39547  21681776.489    21681783.9584
  23936039.610    -7388669.934 7  -5534986.58945  23936038.856    23936053.2254
  24288481.278    -5924890.965 7  -4593827.40144  24288481.114    24288493.5414
  22679610.513   -12458278.178 8  -8901972.19046  22679610.293    22679618.2044
  20904267.926   -24956905.638 9 -18986212.18848  20904267.717    20904274.3924
  23652087.634    -9020597.839 8  -6466537.50246  23652087.121    23652094.9844
  21386090.754   -22809621.304 9 -17761858.12447  21386090.288    21386098.0504
  22847087.726   -12148991.716 8  -9045819.75246  22847087.142    22847097.4514
 01  5 27  2 59  0.0000000  0  7 20 22 29 25 14 11 01
  21667909.603   -18814752.095 9 -14447511.65047  21667908.849    21667916.3644
  23917478.799    -7486207.124 7  -5610989.35845  23917477.925    23917492.2564
  22692012.748   -12393103.375 8  -8851186.65546  22692012.577    22692020.5724
  20910473.202   -24924296.650 9 -18960802.57848  20910472.971    20910479.6224
  23666826.182    -8943146.511 8  -6406185.84946  23666825.627    23666833.5714
  21393646.163   -22769917.592 9 -17730920.21447  21393645.687    21393653.4544
  22835365.654   -12210590.366 8  -9093818.59546  22835365.126    22835375.4514
 01  5 27  2 59 30.0000000  0  7 20 22 29 25 14 11 01
  21654080.545   -18887423.912 9 -14504138.97647  21654079.832    21654087.3684
  23898917.358    -7583745.298 7  -5686992.88945  23898916.705    23898931.2434
  22704425.133   -12327875.451 8  -8800359.72146  22704424.984    22704433.0634
  20916766.592   -24891224.430 9 -18935032.00448  20916766.374    20916772.9924
  23681567.210    -8865681.843 8  -6345823.77146  23681566.732    23681574.5804
  21401298.754   -22729702.741 9 -17699584.01047  21401298.310    21401306.0654
  22823675.418   -12272022.529 8  -9141687.70146  22823674.909    22823685.0934
 01  5 27  3  0  0.0000000  0  7 20 22 29 25 14 11 01
  21640289.962   -18959893.990 9 -14560609.10547  21640289.200    21640296.7664
  23880356.492    -7681283.463 7  -5762996.39545  23880355.684    23880370.0744
  22716847.201   -12262597.186 8  -8749493.55246  22716847.064    22716855.1574
  20923147.383   -24857692.911 9 -18908903.54448  20923147.187    20923153.8064
  23696310.223    -8788207.003 8  -6285453.76446  23696309.766    23696317.5264
  21409047.899   -22688980.892 9 -17667852.74047  21409047.435    21409055.1504
  22812016.393   -12333290.812 8  -9189429.11746  22812015.890    22812025.9054
 01  5 27  3  0 30.0000000  0  7 20 22 29 25 14 11 01
  21626538.513   -19032158.408 9 -14616918.98447  21626537.730    21626545.2534
  23861796.515    -7778816.468 8  -5838995.90145  23861795.702    23861809.9764
  22729279.170   -12197267.501 8  -8698587.32746  22729279.007    22729287.0674
  20929615.661   -24823701.966 9 -18882417.08948  20929615.449    20929622.0424
  23711055.365    -8710720.697 8  -6225074.83345  23711054.859    23711062.6354
  21416893.538   -22647752.226 9 -17635726.54447  21416893.063    21416900.7654
  22800388.948   -12394393.574 8  -9237041.54746  22800388.380    22800398.2194
 01  5 27  3  1  0.0000000  0  7 20 22 29 25 14 11 01
  21612826.741   -19104213.986 9 -14673066.12847  21612825.962    21612833.4854
  23843238.634    -7876340.238 7  -5914988.20445  23843237.660    23843251.5954
  22741721.072   -12131885.584 8  -8647640.40946  22741720.834    22741728.8464
  20936171.198   -24789252.238 9 -18855573.13348  20936170.980    20936177.5514
  23725802.949    -8633222.282 8  -6164686.45045  23725802.399    23725810.0994
  21424835.468   -22606017.148 9 -17603205.73947  21424835.025    21424842.7234
  22788793.023   -12455330.019 8  -9284524.38346  22788792.497    22788802.2004
 01  5 27  3  1 30.0000000  0  7 20 22 29 25 14 11 01
  21599153.506   -19176066.729 9 -14729055.22447  21599152.768    21599160.2714
  23824681.114    -7973860.101 8  -5990977.45645  23824680.198    23824693.9414
  22754171.288   -12066459.620 8  -8596659.16846  22754171.045    22754179.0114
  20942812.266   -24754353.023 9 -18828378.93348  20942812.083    20942818.6834
  23740551.170    -8555720.175 8  -6104295.19645  23740550.569    23740558.3754
  21432871.972   -22563785.442 9 -17570297.95747  21432871.492    21432879.1994
  22777227.305   -12516108.164 8  -9331883.87746  22777226.734    22777236.4234
 01  5 27  3  2  0.0000000  0  7 20 22 29 25 14 11 01
  21585521.458   -19247703.244 9 -14784875.83047  21585520.725    21585528.2094
  23806127.235    -8071361.620 8  -6066952.39245  23806126.182    23806139.6944
  22766631.846   -12000978.877 8  -8545635.23946  22766631.608    22766639.5214
  20949540.680   -24718994.639 9 -18800826.94148  20949540.515    20949547.1014
  23755302.048    -8478203.326 8  -6043892.45345  23755301.458    23755309.3994
  21441004.755   -22521047.615 9 -17536995.79047  21441004.281    21441011.9904
  22765693.764   -12576716.884 8  -9379111.34846  22765693.209    22765702.9874
 01  5 27  3  2 30.0000000  0  7 20 22 29 25 14 11 01
  21571929.941   -19319126.657 9 -14840530.38147  21571929.195    21571936.6844
  23787576.358    -8168846.346 8  -6142914.28245  23787575.385    23787588.6114
  22779101.742   -11935448.836 8  -8494572.89446  22779101.556    22779109.4914
  20956355.227   -24683184.006 9 -18772922.54548  20956355.057    20956361.6484
  23770054.676    -8400677.587 8  -5983482.80545  23770054.103    23770062.0894
  21449232.500   -22477810.602 9 -17503304.64747  21449232.026    21449239.7794
  22754191.445   -12637161.491 8  -9426210.94546  22754190.882    22754200.7674
 01  5 27  3  3  0.0000000  0  7 20 22 29 25 14 11 01
  21558379.926   -19390332.299 9 -14896015.23647  21558379.155    21558386.6224
  23769029.729    -8266308.440 8  -6218858.53145  23769028.794    23769041.9714
  22791581.435   -11869867.311 8  -8443470.44246  22791581.247    22791589.3434
  20963256.078   -24646920.001 9 -18744664.86748  20963255.880    20963262.4614
  23784809.527    -8323140.655 8  -5923064.42145  23784808.939    23784816.9404
  21457555.346   -22434073.670 9 -17469223.95147  21457554.864    21457562.6794
  22742720.839   -12697439.559 8  -9473180.77146  22742720.313    22742730.1994
 01  5 27  3  3 30.0000000  0  7 20 22 29 25 14 11 01
  21544870.154   -19461326.160 9 -14951335.08447  21544869.437    21544876.8154
  23750486.426    -8363752.913 8  -6294789.05245  23750485.581    23750498.6054
  22804069.400   -11804242.532 8  -8392334.30746  22804069.231    22804077.3724
  20970241.345   -24610212.239 9 -18716061.41548  20970241.144    20970247.6774
  23799564.989    -8245600.666 8  -5862643.67145  23799564.384    23799572.3154
  21465971.512   -22389846.516 9 -17434761.26747  21465971.057    21465978.8994
  22731280.370   -12757559.217 8  -9520027.17246  22731279.833    22731289.7734
 01  5 27  3  4  0.0000000  0  7 20 22 29 25 14 11 01
  21531402.764   -19532097.687 9 -15006481.68247  21531402.021    21531409.3764
  23731948.398    -8461168.751 8  -6370697.25745  23731947.575    23731960.9404
  22816567.162   -11738566.456 8  -8341158.18546  22816567.049    22816575.1424
  20977312.391   -24573053.995 9 -18687106.93648  20977312.149    20977318.6834
  23814322.450    -8168049.887 8  -5802214.51445  23814321.858    23814329.6534
  21474482.256   -22345122.574 9 -17399911.47347  21474481.776    21474489.6374
  22719871.611   -12817512.106 8  -9566743.61846  22719871.061    22719881.0234
 01  5 27  3  4 30.0000000  0  7 20 22 29 25 14 11 01
  21517977.547   -19602647.096 9 -15061455.18847  21517976.785    21517984.2024
  23713416.219    -8558554.787 8  -6446582.26445  23713415.405    23713428.7764
  22829074.271   -11672841.730 8  -8289944.15646  22829074.140    22829082.1544
  20984468.369   -24535448.997 9 -18657804.33348  20984468.125    20984474.6644
  23829081.465    -8090490.885 8  -5741778.94145  23829080.800    23829088.5554
  21483086.605   -22299906.225 9 -17364677.98647  21483086.169    21483094.0774
  22708494.117   -12877300.746 8  -9613332.07546  22708493.577    22708503.5064
 01  5 27  3  5  0.0000000  0  7 20 22 29 25 14 11 01
  21504594.868   -19672973.396 9 -15116254.85347  21504594.109    21504601.5174
  23694890.127    -8655908.446 8  -6522442.03345  23694889.260    23694902.6584
  22841590.383   -11607069.818 8  -8238693.36346  22841590.206    22841598.1274
  20991708.874   -24497400.027 9 -18628155.78448  20991708.632    20991715.1414
  23843841.719    -8012925.107 8  -5681338.10445  23843841.113    23843848.8534
  21491784.263   -22254200.207 9 -17329062.94647  21491783.798    21491791.7294
  22697147.718   -12936926.333 8  -9659793.48446  22697147.122    22697157.0374
 01  5 27  3  5 30.0000000  0  7 20 22 29 25 14 11 01
  21491254.291   -19743078.639 9 -15170882.26947  21491253.475    21491260.8704
  23676369.910    -8753230.721 7  -6598277.35845  23676369.052    23676382.5314
  22854114.548   -11541255.125 8  -8187409.23246  22854114.356    22854122.2614
  20999032.716   -24458913.242 9 -18598166.08048  20999032.432    20999038.9034
  23858602.383    -7935357.173 8  -5620895.60145  23858601.824    23858609.4954
  21500573.914   -22208010.569 9 -17293071.05747  21500573.413    21500581.4094
  22685831.392   -12996393.170 8  -9706131.18846  22685830.856    22685840.7774
 01  5 27  3  6  0.0000000  0  7 20 22 29 25 14 11 01
  21477956.960   -19812956.685 9 -15225332.65247  21477956.170    21477963.4754
  23657856.965    -8850514.602 8  -6674082.76445  23657856.187    23657869.8134
  22866647.612   -11475393.605 8  -8136088.61146  22866647.399    22866655.3624
  21006440.429   -24419985.424 9 -18567832.70948  21006440.154    21006446.5914
  23873364.167    -7857783.091 8  -5560448.29845  23873363.635    23873371.3554
  21509455.896   -22161335.062 9 -17256700.56347  21509455.464    21509463.4894
  22674546.057   -13055697.254 8  -9752342.06246  22674545.509    22674555.4714
 01  5 27  3  6 30.0000000  0  7 20 22 29 25 14 11 01
  21464703.764   -19882602.737 9 -15279602.26247  21464702.956    21464710.2344
  23639352.711    -8947754.716 8  -6749854.06645  23639351.828    23639365.2854
  22879189.891   -11409483.463 8  -8084730.09946  22879189.706    22879197.7214
  21013932.088   -24380616.343 9 -18537155.49548  21013931.838    21013938.2994
  23888127.411    -7780200.816 8  -5499994.63945  23888126.994    23888134.8144
  21518430.566   -22114173.282 9 -17219951.15547  21518430.121    21518438.1274
  22663292.142   -13114836.258 8  -9798424.30546  22663291.640    22663301.6614
 01  5 27  3  7  0.0000000  0  7 20 22 29 25 14 11 01
  21451494.751   -19952016.076 9 -15333690.53047  21451493.950    21451501.2844
  23620857.253    -9044948.772 8  -6825589.46645  23620856.352    23620869.6224
  22891741.167   -11343526.211 8  -8033334.89446  22891740.977    22891749.0034
  21021507.214   -24340808.611 9 -18506136.47748  21021506.974    21021513.4894
  23902891.977    -7702612.048 8  -5439535.88345  23902891.523    23902899.4254
  21527497.199   -22066528.408 9 -17182825.30847  21527496.704    21527504.6344
  22652069.442   -13173811.681 8  -9844379.08846  22652068.959    22652078.8714
 01  5 27  3  7 30.0000000  0  7 20 22 29 25 14 11 01
  21438330.574   -20021193.766 9 -15387595.18147  21438329.843    21438337.1984
  23602371.467    -9142092.220 8  -6901285.43345  23602370.529    23602383.6124
  22904301.438   -11277521.249 8  -7981902.49246  22904301.252    22904309.3284
  21029165.641   -24300563.020 9 -18474776.27248  21029165.422    21029171.9924
  23917657.915    -7625016.238 8  -5379071.66345  23917657.490    23917665.5084
  21536655.395   -22018401.558 9 -17145323.89547  21536654.924    21536662.8574
  22640878.057   -13232622.641 8  -9890205.72446  22640877.557    22640887.3824
 01  5 27  3  8  0.0000000  0  7 20 22 29 25 14 11 01
  21425211.145   -20090136.611 9 -15441316.83547  21425210.376    21425217.7864
  23583895.329    -9239184.937 8  -6976941.87945  23583894.340    23583907.1704
  22916870.303   -11211471.434 8  -7930435.15146  22916870.111    22916878.1904
  21036906.571   -24259884.192 9 -18443078.47748  21036906.343    21036912.9714
  23932424.681    -7547416.336 8  -5318604.23045  23932424.327    23932432.2854
  21545904.505   -21969797.238 9 -17107450.42947  21545904.031    21545911.9624
  22629717.470   -13291272.091 8  -9935906.49946  22629716.913    22629726.6834
 01  5 27  3  8 30.0000000  0  7 20 22 29 25 14 11 01
  21412136.734   -20158843.133 9 -15494854.33947  21412135.937    21412143.3484
  23565429.109    -9336224.971 8  -7052557.25945  23565428.154    23565440.7164
  22929447.492   -11145377.930 8  -7878933.75446  22929447.324    22929455.3724
  21044729.330   -24218775.170 9 -18411045.46048  21044729.087    21044735.7374
  23947192.171    -7469813.522 8  -5258134.54045  23947191.764    23947199.6244
  21555243.966   -21920718.565 9 -17069207.33747  21555243.465    21555251.3504
  22618587.265   -13349761.084 8  -9981482.23246  22618586.699    22618596.4974
 01  5 27  3  9  0.0000000  0  7 20 22 29 25 14 11 01
  21399107.703   -20227310.784 9 -15548205.70847  21399106.897    21399114.3344
  23546973.703    -9433208.301 8  -7128128.44245  23546972.760    23546985.2314
  22942033.045   -11079240.506 8  -7827398.14146  22942032.901    22942040.9014
  21052633.781   -24177236.786 9 -18378677.88148  21052633.555    21052640.2474
  23961960.140    -7392207.639 8  -5197662.43345  23961959.621    23961967.5494
  21564673.317   -21871167.053 9 -17030595.79347  21564672.838    21564680.7164
  22607487.720   -13408089.348 8 -10026932.72446  22607487.122    22607496.9274
 01  5 27  3  9 30.0000000  0  7 20 22 29 25 14 11 01
  21386125.276   -20295533.511 9 -15601366.23747  21386124.494    21386131.9684
  23528530.483    -9530127.693 8  -7203649.81445  23528529.509    23528542.0174
  22954627.731   -11013055.875 8  -7775825.72946  22954627.522    22954635.4304
  21060620.360   -24135267.016 9 -18345974.15248  21060620.156    21060626.7374
  23976729.084    -7314595.264 8  -5137185.28545  23976728.666    23976736.7304
  21574193.122   -21821140.758 9 -16991614.29547  21574192.607    21574200.4304
  22596419.333   -13466253.099 8 -10072255.03746  22596418.795    22596428.5534
 01  5 27  3 10  0.0000000  0  7 20 22 29 25 14 11 01
  21373189.490   -20363511.136 9 -15654335.75747  21373188.729    21373196.1974
  23510099.677    -9626981.495 8  -7279120.07245  23510098.658    23510111.1724
  22967230.935   -10946825.967 8  -7724218.02546  22967230.677    22967238.6704
  21068688.419   -24092869.281 9 -18312936.93848  21068688.191    21068694.7034
  23991498.987    -7236978.470 8  -5076704.68045  23991498.571    23991506.7314
  21583802.526   -21770643.598 9 -16952265.87247  21583801.965    21583809.7604
  22585381.958   -13524254.297 8 -10117450.66846  22585381.426    22585391.1414
 01  5 27  3 10 30.0000000  0  7 20 22 29 25 14 11 01
  21360299.739   -20431247.280 9 -15707117.11647  21360298.993    21360306.4234
  23491680.863    -9723772.572 8  -7354541.46745  23491679.869    23491692.3694
  22979841.569   -10880556.763 8  -7672579.69546  22979841.377    22979849.4074
  21076836.431   -24050051.304 9 -18279572.27148  21076836.200    21076842.6924
  24006268.761    -7159363.241 8  -5016225.28545  24006268.306    24006276.4294
  21593499.878   -21719683.466 9 -16912556.70747  21593499.341    21593507.1724
  22574374.388   -13582098.917 8 -10162524.29746  22574373.887    22574383.5874
 01  5 27  3 11  0.0000000  0  7 20 22 29 25 14 11 01
  21347457.787   -20498732.580 9 -15759703.01347  21347456.993    21347464.3354
  23473275.726    -9820491.049 8  -7429906.29945  23473274.751    23473287.2844
  22992460.972   -10814241.544 8  -7620905.51346  22992460.821    22992468.8994
  21085065.402   -24006807.703 9 -18245875.95348  21085065.163    21085071.6894
  24021039.521    -7081742.946 8  -4955741.96045  24021039.100    24021047.1474
  21603286.213   -21668255.622 9 -16872483.08947  21603285.737    21603293.6194
  22563398.003   -13639780.140 8 -10207470.60646  22563397.455    22563407.1064
 01  5 27  3 11 30.0000000  0  7 20 22 29 25 14 11 01
  21334663.733   -20565965.965 9 -15812092.61447  21334662.930    21334670.1664
  23454884.969    -9917133.935 8  -7505212.19745  23454884.052    23454896.5924
  23005088.973   -10747881.198 8  -7569196.16346  23005088.779    23005096.9444
  21093374.893   -23963141.148 9 -18211850.05648  21093374.661    21093381.1414
  24035811.075    -7004118.557 8  -4895255.43445  24035810.584    24035818.5114
  21613161.138   -21616362.514 9 -16832046.93047  21613160.670    21613168.6194
  22552452.386   -13697299.113 8 -10252290.49246  22552451.883    22552461.5214
 01  5 27  3 12  0.0000000  0  7 20 22 29 25 14 11 01
  21321917.404   -20632948.633 9 -15864286.84347  21321916.564    21321923.7654
  23436508.457   -10013701.192 8  -7580459.18345  23436507.634    23436520.2394
  23017724.875   -10681479.534 8  -7517454.61746  23017724.681    23017732.7744
  21101763.890   -23919056.927 9 -18177498.70148  21101763.623    21101770.0924
  24050582.581    -6926494.041 8  -4834768.79245  24050582.098    24050590.0324
  21623123.523   -21564010.111 9 -16791252.88447  21623122.993    21623131.0164
  22541537.081   -13754659.390 8 -10296986.70446  22541536.569    22541546.1314
 01  5 27  3 12 30.0000000  0  7 20 22 29 25 14 11 01
  21309219.540   -20699676.223 9 -15916282.30947  21309218.665    21309225.9004
  23418147.402   -10110187.564 8  -7655643.15745  23418146.635    23418159.2534
  23030368.911   -10615034.805 8  -7465679.51746  23030368.697    23030376.7304
  21110232.419   -23874554.449 9 -18142821.43148  21110232.160    21110238.6624
  24065354.481    -6848867.387 8  -4774280.48445  24065353.942    24065361.9644
  21633173.185   -21511198.523 9 -16750101.02447  21633172.696    21633180.7754
  22530652.379   -13811859.169 8 -10341557.85646  22530651.844    22530661.2854
 01  5 27  3 13  0.0000000  0  7 20 22 29 25 14 11 01
  21296570.353   -20766147.650 9 -15968078.17047  21296569.502    21296576.7564
  23399802.207   -10206591.125 8  -7730762.60145  23399801.385    23399813.9524
  23043020.998   -10548547.988 8  -7413871.60846  23043020.719    23043028.7044
  21118780.013   -23829636.632 9 -18107820.52548  21118779.753    21118786.2474
  24080126.483    -6771239.658 8  -4713791.34545  24080125.876    24080133.9254
  21643309.793   -21457930.355 9 -16708593.39447  21643309.329    21643317.3704
  22519798.015   -13868899.298 8 -10386004.60446  22519797.459    22519806.7954
 01  5 27  3 13 30.0000000  0  7 20 22 29 25 14 11 01
  21283970.040   -20832362.179 9 -16019673.84247  21283969.215    21283976.4754
  23381473.197   -10302909.837 8  -7805815.92845  23381472.284    23381484.9024
  23055680.690   -10482020.610 8  -7362032.09446  23055680.405    23055688.4864
  21127406.029   -23784306.506 9 -18072498.32948  21127405.762    21127412.2464
  24094898.455    -6693612.683 8  -4653302.78245  24094897.859    24094905.8834
  21653532.603   -21404209.264 9 -16666732.83247  21653532.112    21653540.1724
  22508973.720   -13925781.189 8 -10430328.04346  22508973.102    22508982.4224
 01  5 27  3 14  0.0000000  0  7 20 22 29 25 14 11 01
  21271420.357   -20898310.724 9 -16071062.26447  21271419.563    21271426.7744
  23363162.471   -10399133.191 8  -7880794.94445  23363161.540    23363173.9964
  23068349.256   -10415446.228 8  -7310155.95346  23068348.994    23068357.2404
  21136111.314   -23738559.245 9 -18036851.10248  21136111.085    21136117.6054
  24109671.565    -6615979.643 8  -4592809.50945  24109670.882    24109678.8604
  21663842.380   -21350030.880 9 -16624515.94547  21663841.904    21663849.9904
  22498180.740   -13982498.221 8 -10474523.02646  22498180.115    22498189.4344
 01  5 27  3 14 30.0000000  0  7 20 22 29 25 14 11 01
  21258920.020   -20964000.126 9 -16122248.74847  21258919.237    21258926.4144
  23344868.790   -10495266.743 8  -7955703.97645  23344867.874    23344880.2994
  23081025.000   -10348833.887 8  -7258250.22546  23081024.799    23081033.2004
  21144894.041   -23692405.455 9 -18000887.09148  21144893.825    21144900.3604
  24124443.938    -6538349.985 8  -4532318.85145  24124443.355    24124451.3524
  21674237.208   -21295406.030 9 -16581951.16247  21674236.718    21674244.7814
  22487417.323   -14039059.706 8 -10518596.80746  22487416.745    22487426.0364
 01  5 27  3 15  0.0000000  0  7 20 22 29 25 14 11 01
  21246470.240   -21029424.140 9 -16173228.43947  21246469.425    21246476.5744
  23326593.634   -10591303.498 8  -8030537.60745  23326592.646    23326604.9644
  23093708.658   -10282179.880 8  -7206312.02646  23093708.498    23093716.9924
  21153754.487   -23645843.261 9 -17964604.85147  21153754.281    21153760.8024
  24139216.536    -6460719.905 8  -4471827.89545  24139215.919    24139223.8764
  21684717.256   -21240333.130 9 -16539037.25347  21684716.743    21684724.8054
  22476684.311   -14095461.637 8 -10562546.26346  22476683.726    22476693.0144
 01  5 27  3 15 30.0000000  0  7 20 22 29 25 14 11 01
  21234071.350   -21094580.323 9 -16223999.42747  21234070.569    21234077.6904
  23308337.367   -10687240.243 8  -8105293.28745  23308336.295    23308348.6094
  23106400.480   -10215483.986 8  -7154341.19746  23106400.322    23106408.7604
  21162692.515   -23598873.834 9 -17928005.28348  21162692.293    21162698.7514
  24153989.334    -6383089.270 8  -4411336.47745  24153988.651    24153996.4924
  21695282.126   -21184814.227 9 -16495775.81147  21695281.609    21695289.7034
  22465981.645   -14151703.888 8 -10606371.29246  22465981.035    22465990.3994
 01  5 27  3 16  0.0000000  0  7 20 22 29 25 14 11 01
  21221723.914   -21159466.086 9 -16274559.69847  21221723.117    21221730.2604
  23290100.834   -10783072.862 8  -8179967.84845  23290099.830    23290112.0394
  23119100.441   -10148745.973 8  -7102337.53746  23119100.270    23119108.5034
  21171707.698   -23551498.676 9 -17891089.56347  21171707.462    21171713.9404
  24168762.138    -6305457.794 8  -4350844.43245  24168761.454    24168769.2904
  21705931.554   -21128851.064 9 -16452168.19447  21705931.056    21705939.1334
  22455309.394   -14207786.193 8 -10650071.68146  22455308.814    22455318.2644
 01  5 27  3 16 30.0000000  0  7 20 22 29 25 14 11 01
  21209427.822   -21224082.230 9 -16324909.88247  21209427.009    21209434.1204
  23271884.249   -10878800.590 8  -8254560.66645  23271883.241    23271895.4554
  23131807.629   -10081969.062 8  -7050303.57546  23131807.463    23131815.7084
  21180799.089   -23503722.872 9 -17853861.64947  21180798.868    21180805.3604
  24183534.425    -6227828.836 8  -4290354.32245  24183533.828    24183541.6574
  21716664.659   -21072448.772 9 -16408218.39847  21716664.146    21716672.1774
  22444666.935   -14263711.832 8 -10693649.99946  22444666.431    22444675.9164
 01  5 27  3 17  0.0000000  0  7 20 22 29 25 14 11 01
  21197184.238   -21288422.171 9 -16375044.84347  21197183.455    21197190.5174
  23253689.183   -10974415.760 8  -8329065.79245  23253688.127    23253700.2944
  23144522.835   -10015148.977 8  -6998235.98046  23144522.701    23144531.1444
  21189967.208   -23455543.790 9 -17816319.49047  21189966.971    21189973.5344
  24198306.902    -6150198.166 8  -4229862.88445  24198306.281    24198314.2734
  21727481.666   -21015605.302 9 -16363924.83047  21727481.138    21727489.1364
  22434055.254   -14319476.588 8 -10737102.96546  22434054.677    22434064.0804
 01  5 27  3 17 30.0000000  0  7 20 22 29 25 14 11 01
  21184993.260   -21352485.866 9 -16424964.54747  21184992.475    21184999.5484
  23235515.372   -11069917.793 8  -8403482.76845  23235514.418    23235526.6414
  23157245.823    -9948288.077 8  -6946136.56346  23157245.782    23157254.4184
  21199211.211   -23406965.692 9 -17778466.41847  21199211.012    21199217.5984
  24213079.182    -6072568.263 8  -4169372.06345  24213078.694    24213086.7594
  21738381.753   -20958325.168 9 -16319291.00447  21738381.222    21738389.2094
  22423473.636   -14375082.802 8 -10780432.38646  22423473.112    22423482.4054
 01  5 27  3 18  0.0000000  0  7 20 22 29 25 14 11 01
  21172854.207   -21416276.418 9 -16474671.41347  21172853.459    21172860.5794
  23217362.895   -11165308.709 8  -8477813.16245  23217361.915    23217374.0734
  23169975.667    -9881391.973 8  -6894009.72646  23169975.649    23169984.2594
  21208530.015   -23357995.426 9 -17740307.75747  21208529.780    21208536.2864
  24227850.546    -5994944.584 8  -4108886.09345  24227849.998    24227858.0824
  21749363.568   -20900615.813 9 -16274322.72147  21749363.019    21749370.9914
  22412921.250   -14430535.916 8 -10823642.50446  22412920.688    22412929.9304
 01  5 27  3 18 30.0000000  0  7 20 22 29 25 14 11 01
  21160769.291   -21479782.747 9 -16524156.80947  21160768.575    21160775.6954
  23199234.158   -11260575.795 8  -8552047.06645  23199233.066    23199245.0954
  23182714.153    -9814451.906 8  -6841848.63046  23182714.011    23182722.5164
  21217924.683   -23308626.275 9 -17701838.28547  21217924.426    21217930.8994
  24242622.463    -5917318.291 8  -4048398.07345  24242621.792    24242629.8454
  21760428.272   -20842470.729 9 -16229014.90547  21760427.729    21760435.7044
  22402399.535   -14485827.247 8 -10866726.55946  22402399.022    22402408.2034
 01  5 27  3 19  0.0000000  0  7 20 22 29 25 14 11 01
  21148737.984   -21543007.615 9 -16573422.89147  21148737.244    21148744.3544
  23181128.686   -11355720.284 8  -8626185.44245  23181127.579    23181139.4524
  23195460.057    -9747472.795 8  -6789657.10946  23195459.827    23195468.2274
  21227394.027   -23258864.887 9 -17663063.17347  21227393.781    21227400.1994
  24257393.673    -5839694.572 8  -3987912.06145  24257393.017    24257401.0704
  21771574.462   -20783897.223 9 -16183373.25447  21771573.943    21771581.9324
  22391907.764   -14540961.805 8 -10909688.45246  22391907.196    22391916.2984
 01  5 27  3 19 30.0000000  0  7 20 22 29 25 14 11 01
  21136760.804   -21605947.780 9 -16622467.12647  21136760.095    21136767.1954
  23163047.412   -11450737.954 8  -8700224.97445  23163046.178    23163057.8924
  23208213.366    -9680453.613 8  -6737434.35646  23208213.138    23208221.4974
  21236937.828   -23208712.001 9 -17623982.99547  21236937.574    21236944.0004
  24272164.521    -5762072.321 8  -3927427.18945  24272163.891    24272172.1484
  21782801.977   -20724896.391 9 -16137398.62547  21782801.400    21782809.4004
  22381445.983   -14595938.501 8 -10952527.33846  22381445.418    22381454.4404
 01  5 27  3 20  0.0000000  0  7 20 22 29 25 14 11 01
  21124838.208   -21668601.244 9 -16671287.96747  21124837.479    21124844.5754
  23144990.337   -11545626.160 8  -8774163.63245  23144989.328    23145001.1164
  23220974.185    -9613394.810 8  -6685180.72146  23220973.924    23220982.3464
  21246555.654   -23158169.661 9 -17584599.34747  21246555.436    21246561.8754
  24286935.055    -5684452.156 8  -3866943.94145  24286934.486    24286942.7714
  21794110.185   -20665470.855 9 -16091093.04947  21794109.662    21794117.7064
  22371014.160   -14650757.801 8 -10995243.58446  22371013.580    22371022.5844
 01  5 27  3 20 30.0000000  0  7 20 22 29 25 14 11 01
  21112970.061   -21730968.492 9 -16719885.78447  21112969.355    21112976.3944
  23126958.376   -11640384.279 8  -8848000.91746  23126957.321    23126969.1034
  23233741.963    -9546299.315 8  -6632898.49046  23233741.685    23233749.9844
  21256246.752   -23107242.832 9 -17544916.09747  21256246.497    21256252.9244
  24301704.791    -5606837.025 8  -3806464.60745  24301704.240    24301712.3954
  21805498.335   -20605625.782 9 -16044460.56247  21805497.778    21805505.8734
  22360611.687   -14705422.864 8 -11037839.64146  22360611.051    22360620.1134
 01  5 27  3 21  0.0000000  0  7 20 22 29 25 14 11 01
  21101158.081   -21793041.246 9 -16768254.13147  21101157.343    21101164.2914
  23108953.095   -11735002.020 8  -8921728.83546  23108952.045    23108963.7434
  23246518.094    -9479160.829 8  -6580582.77146  23246517.760    23246525.9014
  21266011.839   -23055926.696 9 -17504929.49547  21266011.596    21266017.9874
  24316474.806    -5529220.674 8  -3745984.35745  24316474.235    24316482.3794
  21816967.016   -20545357.381 9 -15997498.22047  21816966.508    21816974.6004
  22350239.687   -14759927.274 8 -11080310.52347  22350239.122    22350248.2154
 01  5 27  3 21 30.0000000  0  7 20 22 29 25 14 11 01
  21089401.363   -21854823.494 9 -16816396.09747  21089400.572    21089407.5284
  23090974.128   -11829482.362 8  -8995349.68146  23090972.982    23090984.4714
  23259301.153    -9411986.021 8  -6528238.75346  23259300.742    23259308.8654
  21275849.440   -23004229.854 9 -17464646.22347  21275849.186    21275855.5504
  24331243.694    -5451609.752 8  -3685508.32545  24331243.201    24331251.1214
  21828514.671   -20484674.250 9 -15950212.69347  21828514.184    21828522.2904
  22339897.042   -14814277.711 8 -11122661.42447  22339896.482    22339905.6264
 01  5 27  3 22  0.0000000  0  7 20 22 29 25 14 11 01
  21077700.522   -21916311.689 9 -16864308.93747  21077699.712    21077706.6944
  23073021.848   -11923820.993 8  -9068860.09146  23073020.770    23073032.1074
  23272091.195    -9344773.511 8  -6475865.35546  23272090.886    23272099.0264
  21285759.215   -22952153.277 9 -17424067.07047  21285758.976    21285765.3724
  24346011.746    -5374002.925 8  -3625035.50345  24346011.297    24346019.2114
  21840141.096   -20423577.552 9 -15902604.91347  21840140.565    21840148.6464
  22329583.890   -14868473.140 8 -11164891.53847  22329583.341    22329592.5454
 01  5 27  3 22 30.0000000  0  7 20 22 29 25 14 11 01
  21066056.755   -21977499.727 9 -16911987.89847  21066055.953    21066062.9564
  23055098.013   -12018010.963 8  -9142254.67846  23055096.978    23055108.0034
  23284889.085    -9277519.566 8  -6423459.65846  23284888.877    23284897.1904
  21295741.786   -22899694.662 9 -17383190.22347  21295741.545    21295747.9174
  24360779.746    -5296396.446 8  -3564562.93545  24360779.363    24360787.2664
  21851846.466   -20362065.698 9 -15854673.63347  21851845.952    21851853.9794
  22319301.038   -14922509.776 8 -11206997.91747  22319300.470    22319309.6604
 01  5 27  3 23  0.0000000  0  7 20 22 29 25 14 11 01
  21054469.479   -22038390.739 9 -16959435.41147  21054468.705    21054475.7304
  23037202.324   -12112053.706 8  -9215534.55746  23037201.268    23037212.0534
  23297693.949    -9210229.519 8  -6371025.83846  23297693.712    23297702.1394
  21305795.591   -22846861.386 9 -17342021.43847  21305795.345    21305801.7754
  24375546.619    -5218795.952 8  -3504095.04945  24375546.211    24375554.0074
  21863629.294   -20300146.495 9 -15806424.93447  21863628.825    21863636.8864
  22309047.341   -14976393.163 8 -11248984.87947  22309046.728    22309055.8804
 01  5 27  3 23 30.0000000  0  7 20 22 29 25 14 11 01
  21042939.883   -22098978.850 9 -17006646.88947  21042939.107    21042946.1464
  23019335.972   -12205942.047 8  -9288694.11446  23019334.806    23019345.5914
  23310506.270    -9142900.034 8  -6318561.28146  23310506.053    23310514.4524
  21315921.002   -22793651.929 9 -17300559.51047  21315920.755    21315927.1924
  24390313.127    -5141197.656 8  -3443628.87345  24390312.539    24390320.3424
  21875489.873   -20237818.943 9 -15757858.03947  21875489.394    21875497.4984
  22298823.433   -15030119.741 8 -11290849.65947  22298822.846    22298831.9444
 01  5 27  3 24  0.0000000  0  7 20 22 29 25 14 11 01
  21031468.369   -22159261.898 9 -17053620.66147  21031467.588    21031474.6494
  23001499.350   -12299672.442 8  -9361730.59446  23001498.235    23001509.1024
  23323326.168    -9075530.932 8  -6266065.86746  23323325.957    23323334.3494
  21326117.702   -22740067.635 9 -17258805.51247  21326117.456    21326123.9264
  24405079.212    -5063601.747 8  -3383164.54645  24405078.575    24405086.4584
  21887427.772   -20175085.124 9 -15708974.56947  21887427.259    21887435.4084
  22288629.311   -15083689.499 8 -11332592.24547  22288628.724    22288637.8254
 01  5 27  3 24 30.0000000  0  7 20 22 29 25 14 11 01
  21020054.384   -22219243.001 9 -17100359.15047  21020053.580    21020060.6174
  22983692.177   -12393247.734 8  -9434646.22646  22983691.132    22983702.1954
  23336152.530    -9008127.931 8  -6213544.02546  23336152.308    23336160.7184
  21336384.191   -22686116.552 9 -17216765.69847  21336383.969    21336390.4614
  24419843.886    -4986013.808 8  -3322706.39945  24419843.284    24419851.1024
  21899441.382   -20111953.146 9 -15659780.84147  21899440.912    21899449.0684
  22278463.852   -15137108.393 8 -11374217.26947  22278463.301    22278472.3664
 01  5 27  3 25  0.0000000  0  7 20 22 29 25 14 11 01
  21008699.494   -22278913.580 9 -17146855.68047  21008698.671    21008705.6584
  22965916.628   -12486657.858 8  -9507433.13746  22965915.548    22965926.7284
  23348986.587    -8940684.658 8  -6160990.80146  23348986.353    23348994.7614
  21346721.371   -22631793.900 9 -17174436.35147  21346721.172    21346727.6794
  24434608.203    -4908427.746 8  -3262249.71445  24434607.573    24434615.2794
  21911531.628   -20048418.974 9 -15610273.71647  21911531.113    21911539.2394
  22268328.484   -15190369.784 8 -11415719.57447  22268327.938    22268336.9484
 01  5 27  3 25 30.0000000  0  7 20 22 29 25 14 11 01
  20997403.592   -22338273.880 9 -17193110.42947  20997402.761    20997409.7054
  22948172.846   -12579901.359 8  -9580090.23446  22948171.802    22948182.9274
  23361827.952    -8873203.590 8  -6108408.14746  23361827.713    23361835.9744
  21357128.532   -22577104.000 9 -17131820.84147  21357128.328    21357134.8054
  24449371.527    -4830845.910 7  -3201796.31545  24449370.854    24449378.7294
  21923697.395   -19984487.687 9 -15560457.16347  21923696.871    21923704.9664
  22258222.629   -15243476.304 8 -11457101.19547  22258222.044    22258231.0004
 01  5 27  3 26  0.0000000  0  7 20 22 29 25 14 11 01
  20986167.233   -22397321.146 9 -17239121.25347  20986166.399    20986173.3474
  22930461.697   -12672974.263 8  -9652614.38246  22930460.572    22930471.5844
  23374676.461    -8805684.253 8  -6055795.68446  23374676.189    23374684.3974
  21367605.235   -22522048.698 9 -17088920.60247  21367605.015    21367611.4754
  24464133.960    -4753268.009 7  -3141345.97545  24464133.452    24464141.3714
  21935938.242   -19920161.383 9 -15510332.79947  21935937.776    21935945.8494
  22248146.237   -15296427.811 8 -11498362.03047  22248145.659    22248154.6074
 01  5 27  3 26 30.0000000  0  7 20 22 29 25 14 11 01
  20974990.679   -22456053.999 9 -17284887.07647  20974989.847    20974996.8314
  22912783.267   -12765874.242 8  -9725003.77746  22912782.211    22912793.1604
  23387531.950    -8738127.552 8  -6003154.09446  23387531.789    23387540.0114
  21378151.018   -22466630.345 9 -17045737.45947  21378150.804    21378157.2284
  24478895.431    -4675694.788 7  -3080899.29545  24478894.785    24478902.9554
  21948253.808   -19855443.111 9 -15459903.01547  21948253.300    21948261.3574
  22238099.183   -15349225.089 8 -11539502.68847  22238098.645    22238107.5314
 01  5 27  3 27  0.0000000  0  7 20 22 29 25 14 11 01
  20963874.428   -22514469.876 9 -17330405.91447  20963873.632    20963880.6074
  22895138.299   -12858598.098 8  -9797255.95246  22895137.316    22895148.1774
  23400394.728    -8670533.225 8  -5950483.20246  23400394.534    23400402.8204
  21388765.419   -22410850.996 9 -17002273.03047  21388765.196    21388771.6334
  24493655.968    -4598126.222 7  -3020456.23745  24493655.495    24493663.8874
  21960643.402   -19790335.263 9 -15409169.65947  21960642.903    21960650.9634
  22228081.529   -15401868.279 8 -11580523.28847  22228080.990    22228089.7734
 01  5 27  3 27 30.0000000  0  7 20 22 29 25 14 11 01
  20952818.802   -22572567.410 9 -17375676.68347  20952818.026    20952824.9634
  22877527.547   -12951142.569 8  -9869368.32046  22877526.489    22877537.2754
  23413264.582    -8602902.112 8  -5897783.62846  23413264.365    23413272.6294
  21399448.052   -22354713.363 9 -16958529.40747  21399447.840    21399454.2754
  24508415.717    -4520563.022 7  -2960017.36245  24508415.287    24508423.5924
  21973106.504   -19724840.895 9 -15358135.12047  21973106.015    21973114.1274
  22218092.993   -15454358.258 8 -11621424.49447  22218092.435    22218101.2414
 01  5 27  3 28  0.0000000  0  7 20 22 29 25 14 11 01
  20941824.350   -22630343.525 9 -17420696.99947  20941823.567    20941830.4844
  22859951.615   -13043503.369 8  -9941337.57146  22859950.586    22859961.3864
  23426141.617    -8535233.492 8  -5845054.84345  23426141.300    23426149.6534
  21410198.702   -22298218.399 9 -16914507.35147  21410198.468    21410204.8774
  24523174.580    -4443004.610 8  -2899582.21945  24523174.130    24523182.5334
  21985642.901   -19658962.156 9 -15306801.08147  21985642.356    21985650.4514
  22208133.723   -15506694.271 8 -11662205.73247  22208133.140    22208142.0234
 01  5 27  3 28 30.0000000  0  7 20 22 29 25 14 11 01
  20930891.442   -22687796.140 9 -17465465.23148  20930890.686    20930897.5964
  22842411.428   -13135676.919 8 -10013160.92146  22842410.358    22842421.1574
  23439025.778    -8467527.189 8  -5792296.68145  23439025.380    23439033.7254
  21421016.937   -22241368.393 9 -16870208.63147  21421016.679    21421023.0524
  24537932.478    -4365451.026 7  -2839150.83945  24537932.084    24537940.4654
  21998251.961   -19592701.316 9 -15255169.28847  21998251.397    21998259.4304
  22198203.748   -15558876.414 8 -11702867.07047  22198203.134    22198212.0194
 01  5 27  3 29  0.0000000  0  7 20 22 29 25 14 11 01
  20920020.564   -22744922.995 9 -17509979.63048  20920019.812    20920026.6914
  22824907.277   -13227660.552 8 -10084836.28246  22824906.256    22824917.1304
  23451916.918    -8399783.565 8  -5739509.46245  23451916.526    23451924.8884
  21431902.359   -22184165.218 9 -16825634.73047  21431902.093    21431908.4834
  24552689.528    -4287902.264 7  -2778723.19445  24552689.108    24552697.5784
  22010933.119   -19526061.083 9 -15203241.87447  22010932.608    22010940.6084
  22188302.975   -15610904.938 8 -11743408.72447  22188302.408    22188311.2024
 01  5 27  3 29 30.0000000  0  7 20 22 29 25 14 11 01
  20909211.579   -22801724.437 9 -17554240.45748  20909210.815    20909217.6634
  22807439.388   -13319453.543 8 -10156363.08646  22807438.389    22807449.4264
  23464814.589    -8332005.401 8  -5686695.30845  23464814.297    23464822.5724
  21442854.000   -22126614.027 9 -16780789.64447  21442853.751    21442860.1464
  24567445.233    -4210361.191 7  -2718301.54745  24567444.703    24567453.2054
  22023685.582   -19459046.830 9 -15151023.01047  22023685.010    22023693.0234
  22178430.885   -15662782.788 8 -11783832.95747  22178430.302    22178439.0384
 01  5 27  3 30  0.0000000  0  7 20 22 29 25 14 11 01
  20898465.821   -22858193.664 9 -17598242.41348  20898465.034    20898471.8904
  22790009.606   -13411047.196 8 -10227734.55346  22790008.626    22790019.6214
  23477719.780    -8264187.759 8  -5633850.40345  23477719.523    23477727.7674
  21453872.487   -22068711.539 9 -16735670.81447  21453872.233    21453878.6354
  24582200.389    -4132823.191 7  -2657882.27545  24582199.697    24582208.1834
  22036509.586   -19391656.272 9 -15098510.91547  22036508.992    22036517.0464
  22168588.350   -15714505.352 8 -11824136.19447  22168587.786    22168596.4614
 01  5 27  3 30 30.0000000  0  7 20 22 29 25 14 11 01
  20887782.834   -22914332.924 9 -17641987.24848  20887782.049    20887788.8894
  22772617.464   -13502442.316 8 -10298951.34346  22772616.497    22772627.5674
  23490631.784    -8196335.030 8  -5580978.16946  23490631.504    23490639.7174
  21464956.539   -22010464.418 9 -16690283.44447  21464956.280    21464962.6704
  24596954.162    -4055292.529 7  -2597468.73545  24596953.363    24596961.7524
  22049403.804   -19323896.472 9 -15045711.11647  22049403.266    22049411.3794
  22158774.561   -15766077.205 8 -11864321.99747  22158774.020    22158782.5714
 01  5 27  3 31  0.0000000  0  7 20 22 29 25 14 11 01
  20877163.341   -22970138.710 9 -17685472.22948  20877162.541    20877169.3674
  22755263.960   -13593634.592 8 -10370010.05546  22755263.020    22755274.0664
  23503550.668    -8128446.206 8  -5528077.81245  23503550.361    23503558.4514
  21476105.904   -21951873.623 9 -16644628.28347  21476105.691    21476112.1214
  24611706.601    -3977768.410 7  -2537060.29145  24611705.811    24611714.0944
  22062368.069   -19255768.885 9 -14992624.73047  22062367.531    22062375.7134
  22148989.607   -15817497.416 8 -11904389.63547  22148989.074    22148997.5504
 01  5 27  3 31 30.0000000  0  7 20 22 29 25 14 11 01
  20866608.236   -23025605.787 9 -17728693.27748  20866607.438    20866614.2904
  22737950.198   -13684617.956 8 -10440905.98446  22737949.166    22737960.1774
  23516476.969    -8060518.246 8  -5475146.95445  23516476.781    23516484.6884
  21487321.066   -21892937.827 9 -16598704.28347  21487320.847    21487327.2064
  24626458.333    -3900247.834 7  -2476654.64045  24626457.499    24626465.7004
  22075402.417   -19187273.102 8 -14939251.43147  22075401.927    22075410.1664
  22139234.006   -15868762.970 8 -11944336.74747  22139233.468    22139241.9814
 01  5 27  3 32  0.0000000  0  7 20 22 29 25 14 11 01
  20856116.958   -23080737.574 9 -17771653.05848  20856116.141    20856123.0264
  22720675.846   -13775394.333 8 -10511640.62846  22720674.875    22720685.7224
  23529409.627    -7992556.790 8  -5422189.98745  23529409.369    23529417.2714
  21498600.375   -21833665.022 9 -16552517.68547  21498600.119    21498606.4134
  24641208.356    -3822736.298 8  -2416256.00245  24641207.447    24641215.3274
  22088505.254   -19118417.319 8 -14885597.61647  22088504.756    22088513.0604
  22129506.728   -15919879.696 8 -11984167.89547  22129506.192    22129514.7674
 01  5 27  3 32 30.0000000  0  7 20 22 29 25 14 11 01
  20845690.884   -23135526.756 9 -17814345.87648  20845690.069    20845696.9024
  22703442.744   -13865954.711 8 -10582206.97546  22703441.765    22703452.3674
  23542349.559    -7924556.593 8  -5369202.81045  23542349.321    23542357.2554
  21509944.458   -21774051.935 9 -16506065.93747  21509944.175    21509950.4104
  24655957.227    -3745228.459 7  -2355860.24345  24655956.557    24655964.4474
  22101677.152   -19049198.900 8 -14831661.22847  22101676.628    22101684.9464
  22119808.791   -15970842.320 8 -12023878.96947  22119808.275    22119816.8394
 01  5 27  3 33  0.0000000  0  7 20 22 29 25 14 11 01
  20835330.287   -23189971.946 9 -17856770.65048  20835329.482    20835336.2354
  22686251.168   -13956296.554 8 -10652603.01646  22686250.256    22686260.6144
  23555296.756    -7856518.495 8  -5316186.11845  23555296.537    23555304.4734
  21521352.782   -21714101.408 9 -16459351.24247  21521352.438    21521358.6364
  24670705.157    -3667725.674 7  -2295468.43245  24670704.587    24670712.7284
  22114917.279   -18979621.591 8 -14777445.19247  22114916.782    22114925.0994
  22110139.987   -16021652.128 8 -12063470.96547  22110139.449    22110147.9724
 01  5 27  3 33 30.0000000  0  7 20 22 29 25 14 11 01
  20825035.309   -23244072.538 9 -17898926.90248  20825034.479    20825041.1894
  22669101.698   -14046418.469 8 -10722827.68946  22669100.668    22669110.7964
  23568250.963    -7788444.121 8  -5263141.14945  23568250.669    23568258.6414
  21532824.552   -21653816.931 9 -16412376.33047  21532824.186    21532830.3764
  24685452.094    -3590229.257 7  -2235081.57245  24685451.508    24685459.7054
  22128224.991   -18909689.513 9 -14722952.70547  22128224.469    22128232.7464
  22100499.906   -16072310.755 8 -12102945.15147  22100499.363    22100507.8724
 01  5 27  3 34  0.0000000  0  7 20 22 29 25 14 11 01
  20814806.475   -23297825.326 9 -17940812.13448  20814805.640    20814812.3404
  22651994.639   -14136316.151 8 -10792877.63546  22651993.601    22652003.5864
  23581212.248    -7720332.431 8  -5210067.11245  23581211.936    23581219.9234
  21544359.619   -21593199.734 9 -16365142.14847  21544359.260    21544365.4424
  24700198.252    -3512738.203 7  -2174698.90445  24700197.669    24700205.6614
  22141599.866   -18839404.562 8 -14668185.24947  22141599.310    22141607.5724
  22090888.740   -16122817.342 8 -12142300.85947  22090888.206    22090896.7574
 01  5 27  3 34 30.0000000  0  7 20 22 29 25 14 11 01
  20804643.380   -23351232.424 9 -17982427.99948  20804642.566    20804649.2724
  22634930.202   -14225989.982 8 -10862753.15346  22634929.115    22634939.0734
  23594179.753    -7652187.582 8  -5156967.23445  23594179.470    23594187.5464
  21555956.661   -21532256.327 9 -16317653.78547  21555956.342    21555962.5984
  24714942.595    -3435256.925 7  -2114323.86745  24714941.982    24714949.9274
  22155040.549   -18768773.346 8 -14613147.98947  22155040.015    22155048.3174
  22081305.704   -16173176.204 8 -12181541.45847  22081305.170    22081313.7294
 01  5 27  3 35  0.0000000  0  7 20 22 29 25 14 11 01
  20794547.771   -23404284.856 9 -18023767.49648  20794546.975    20794553.6504
  22617910.133   -14315429.664 8 -10932446.20846  22617909.098    22617919.1114
  23607154.743    -7584003.180 8  -5103836.52145  23607154.487    23607162.6444
  21567616.665   -21470982.177 9 -16269907.69347  21567616.390    21567622.6804
  24729686.193    -3357779.077 8  -2053951.56245  24729685.585    24729693.4824
  22168547.864   -18697792.093 8 -14557837.96347  22168547.334    22168555.6904
  22071752.000   -16223381.182 8 -12220662.15047  22071751.454    22071759.9594
 01  5 27  3 35 30.0000000  0  7 20 22 29 25 14 11 01
  20784519.243   -23456984.927 9 -18064832.43148  20784518.447    20784525.0664
  22600934.475   -14404636.497 8 -11001957.83146  22600933.460    22600943.5384
  23620136.576    -7515783.486 8  -5050678.32545  23620136.240    23620144.4494
  21579338.453   -21409383.690 9 -16221908.87547  21579338.195    21579344.5364
  24744428.277    -3280308.660 7  -1993585.01645  24744427.739    24744435.7624
  22182120.422   -18626467.987 9 -14502260.78447  22182119.908    22182128.3064
  22062226.772   -16273436.613 9 -12259666.30947  22062226.218    22062234.6544
 01  5 27  3 36  0.0000000  0  7 20 22 29 25 14 11 01
  20774557.988   -23509331.571 9 -18105621.96248  20774557.203    20774563.7704
  22584003.548   -14493608.455 8 -11071286.43646  22584002.530    22584012.6394
  23633125.044    -7447529.433 8  -4997493.33845  23633124.638    23633132.6684
  21591121.474   -21347463.637 9 -16173659.48247  21591121.178    21591127.5144
  24759168.602    -3202846.734 7  -1933225.06245  24759168.094    24759176.2574
  22195757.598   -18554804.601 8 -14446419.23147  22195757.017    22195765.4364
  22052729.764   -16323343.615 8 -12298554.81647  22052729.203    22052737.5824
 01  5 27  3 36 30.0000000  0  7 20 22 29 25 14 11 01
  20764665.123   -23561318.840 9 -18146131.45948  20764664.322    20764670.8694
  22567118.566   -14582338.398 8 -11140426.45946  22567117.570    22567127.7464
  23646120.727    -7379237.567 8  -4944278.89845  23646120.252    23646128.0914
  21602965.969   -21285220.729 9 -16125158.51247  21602965.678    21602971.9394
  24773908.120    -3125389.732 7  -1872868.82045  24773907.711    24773915.8814
  22209459.413   -18482801.161 8 -14390312.70447  22209458.831    22209467.2534
  22043261.593   -16373098.843 8 -12337325.03947  22043261.008    22043269.4184
 01  5 27  3 37  0.0000000  0  7 20 22 29 25 14 11 01
  20754840.285   -23612948.659 9 -18186362.42748  20754839.454    20754845.9924
  22550279.643   -14670826.381 8 -11209377.96046  22550278.677    22550288.8104
  23659122.807    -7310911.706 8  -4891037.98445  23659122.350    23659129.9354
  21614870.661   -21222661.062 9 -16076410.72447  21614870.337    21614876.5854
  24788646.138    -3047941.907 8  -1812519.81645  24788645.618    24788653.8044
  22223224.602   -18410464.459 8 -14333946.48747  22223224.072    22223232.4094
  22033821.447   -16422706.413 8 -12375980.21147  22033820.873    22033829.3794
 01  5 27  3 37 30.0000000  0  7 20 22 29 25 14 11 01
  20745085.395   -23664210.909 9 -18226306.97748  20745084.587    20745091.0504
  22533488.817   -14759061.105 8 -11278132.09946  22533487.911    22533498.0864
  23672132.794    -7242544.073 8  -4837764.50345  23672132.284    23672139.8004
  21626836.744   -21159778.155 9 -16027411.05847  21626836.463    21626842.7634
  24803383.852    -2970495.592 7  -1752172.03845  24803383.325    24803391.4494
  22237054.324   -18337789.321 9 -14277316.55147  22237053.827    22237062.0004
  22024410.924   -16472158.664 8 -12414514.35247  22024410.348    22024418.8844
 01  5 27  3 38  0.0000000  0  6 20 22 29 25 11 01
  20735399.546   -23715110.358 9 -18265968.82148  20735398.712    20735405.1414
  22516745.568   -14847046.391 8 -11346691.87146  22516744.632    22516754.8244
  23685149.248    -7174141.366 8  -4784463.69145  23685148.753    23685156.5044
  21638862.530   -21096581.827 9 -15978167.16347  21638862.277    21638868.6584
  22250946.621   -18264785.249 8 -14220430.30747  22250946.130    22250954.2674
  22015028.649   -16521462.665 8 -12452932.97747  22015028.063    22015036.5674
 01  5 27  3 38 30.0000000  0  6 20 22 29 25 11 01
  20725783.279   -23765643.961 9 -18305345.59148  20725782.430    20725788.8854
  22500050.567   -14934778.234 8 -11415054.15646  22500049.630    22500059.7674
  23698172.616    -7105702.707 8  -4731134.86545  23698172.156    23698179.9944
  21650947.712   -21033073.460 9 -15928680.11947  21650947.501    21650953.9274
  22264901.193   -18191454.025 8 -14163289.13647  22264900.690    22264908.8644
  22005674.722   -16570617.530 8 -12491235.39147  22005674.119    22005682.5954
 01  5 27  3 39  0.0000000  0  6 20 22 29 25 11 01
  20716237.524   -23815806.607 9 -18344433.31048  20716236.698    20716243.2024
  22483405.156   -15022249.879 8 -11483213.68646  22483404.213    22483414.2454
  23711203.374    -7037225.156 8  -4677775.73445  23711202.927    23711210.8684
  21663092.667   -20969251.668 9 -15878948.84547  21663092.453    21663098.8004
  22278917.991   -18117795.795 8 -14105893.15047  22278917.407    22278925.6274
  21996349.633   -16619620.470 9 -12529419.42347  21996349.084    21996357.5284
 01  5 27  3 39 30.0000000  0  6 20 22 29 25 11 01
  20706762.085   -23865599.798 9 -18383233.13248  20706761.278    20706767.8254
  22466809.321   -15109461.399 8 -11551170.52946  22466808.303    22466818.2504
  23724240.787    -6968712.453 8  -4624389.22045  23724240.410    23724248.3654
  21675296.181   -20905122.358 9 -15828977.95547  21675295.915    21675302.2544
  22292995.667   -18043817.060 8 -14048247.41447  22292995.080    22293003.3044
  21987052.860   -16668475.475 9 -12567488.17147  21987052.261    21987060.7194
 01  5 27  3 40  0.0000000  0  6 20 22 29 25 11 01
  20697357.151   -23915022.663 9 -18421744.39448  20697356.378    20697362.8904
  22450263.328   -15196410.694 8 -11618923.04446  22450262.327    22450272.1444
  23737284.726    -6900165.547 8  -4570976.06045  23737284.341    23737292.3294
  21687557.589   -20840688.883 9 -15778770.05647  21687557.286    21687563.5584
  22307133.589   -17969521.690 8 -13990354.95647  22307133.033    22307141.2014
  21977783.938   -16717183.845 9 -12605442.66347  21977783.337    21977791.8034
 01  5 27  3 40 30.0000000  0  6 20 22 29 25 11 01
  20688023.908   -23964069.411 9 -18459962.58148  20688023.110    20688029.5574
  22433768.599   -15283091.041 8 -11686465.99046  22433767.536    22433777.1494
  23750335.848    -6831580.850 8  -4517533.44045  23750335.585    23750343.4804
  21699877.073   -20775949.990 9 -15728324.16747  21699876.728    21699882.9454
  22321332.032   -17894908.469 8 -13932214.82946  22321331.493    22321339.5944
  21968543.497   -16765741.929 9 -12643280.04747  21968542.954    21968551.4114
 01  5 27  3 41  0.0000000  0  6 20 22 29 25 11 01
  20678762.093   -24012740.429 9 -18497888.00148  20678761.282    20678767.6844
  22417325.016   -15369501.678 8 -11753798.77146  22417323.950    22417333.4364
  23763393.737    -6762960.879 8  -4464063.34845  23763393.485    23763401.4554
  21712253.763   -20710909.878 9 -15677643.57047  21712253.410    21712259.6834
  22335589.895   -17819983.109 8 -13873831.47346  22335589.363    22335597.4364
  21959331.180   -16814152.584 9 -12681002.55447  21959330.642    21959339.0234
 01  5 27  3 41 30.0000000  0  6 20 22 29 25 11 01
  20669572.269   -24061032.852 9 -18535518.40748  20669571.464    20669577.8554
  22400933.636   -15455638.045 8 -11820917.84546  22400932.568    22400941.8914
  23776458.529    -6694304.899 8  -4410565.18445  23776458.320    23776466.2854
  21724687.483   -20645569.756 9 -15626729.19747  21724687.192    21724693.4754
  22349906.691   -17744747.885 8 -13815206.66746  22349906.132    22349914.2644
  21950147.019   -16862415.236 9 -12718609.72747  21950146.480    21950154.8004
 01  5 27  3 42  0.0000000  0  6 20 22 29 25 11 01
  20660454.929   -24108944.398 9 -18572852.03048  20660454.125    20660460.5314
  22384595.047   -15541496.297 8 -11887820.22546  22384593.989    22384603.3634
  23789530.328    -6625612.597 8  -4357038.71345  23789530.061    23789538.1564
  21737177.969   -20579931.462 9 -15575582.48447  21737177.705    21737183.9714
  22364282.036   -17669205.123 8 -13756342.22846  22364281.470    22364289.6434
  21940991.110   -16910529.755 9 -12756101.48947  21940990.558    21940998.8394
 01  5 27  3 42 30.0000000  0  6 20 22 29 25 11 01
  20651410.500   -24156472.926 9 -18609887.19848  20651409.677    20651416.0904
  22368310.005   -15627073.502 8 -11954503.58546  22368308.992    22368318.3094
  23802609.133    -6556883.945 8  -4303483.91245  23802608.876    23802617.0444
  21749724.670   -20513997.504 9 -15524205.38947  21749724.449    21749730.7674
  22378715.303   -17593357.621 8 -13697240.33346  22378714.708    22378723.0024
  21931863.381   -16958496.396 9 -12793478.01147  21931862.787    21931871.0324
 01  5 27  3 43  0.0000000  0  6 20 22 29 25 11 01
  20642439.244   -24203617.238 9 -18646622.98248  20642438.407    20642444.7814
  22352078.845   -15712367.687 8 -12020966.41246  22352077.849    22352087.2304
  23815694.510    -6488119.848 8  -4249901.49745  23815694.278    23815702.5194
  21762327.125   -20447770.984 9 -15472600.33247  21762326.925    21762333.2814
  22393205.696   -17517209.275 8 -13637904.01846  22393205.197    22393213.5494
  21922763.509   -17006316.130 9 -12830740.06747  21922762.947    21922771.1604
